GFSSGP_prec_cloud_003.txt.gz
Cloud_Cover
94 52 100 99 98 49 62 98 100 93 74 46 75 95 43 9 9 16 97 33 57 76 91 100 100 100 100 100 100 100 100 100 100 100 95 33 88 100 99 100 100 99 36 6 32 5 5 2 4
34 50 100 36 58 31 1 10 88 100 73 47 85 97 47 34 25 40 56 53 65 62 91 94 100 97 68 100 100 100 100 100 100 95 50 59 100 100 100 100 83 8 5 5 5 5 0 0 0
52 92 99 96 100 13 92 87 99 44 94 100 100 98 47 39 25 87 92 59 94 97 97 61 91 100 99 93 100 100 75 56 100 98 100 100 100 100 56 17 5 5 10 34 2 0 0 0 0
69 77 100 100 100 90 54 66 5 26 16 34 49 98 72 5 6 24 84 100 100 97 86 100 60 100 71 5 100 100 100 100 100 100 100 91 9 0 5 1 3 5 5 4 0 0 0 0 3
6 12 84 100 100 100 68 8 0 3 4 4 14 60 100 32 7 5 16 24 55 96 100 100 100 100 100 100 100 100 100 100 100 8 0 0 1 0 0 3 1 5 3 5 2 0 1 1 3
5 5 2 29 100 100 38 28 5 0 0 5 2 6 50 13 3 3 5 4 5 36 81 98 100 100 80 46 99 84 27 0 0 0 0 0 0 0 1 1 4 5 5 5 5 0 0 0 5
13 5 62 4 2 6 5 2 0 5 4 3 0 44 85 9 5 0 0 2 50 75 28 14 35 39 18 1 3 0 0 0 0 0 0 0 5 13 5 5 27 5 5 94 30 0 0 0 3
25 83 9 5 5 5 8 35 2 0 65 24 33 23 96 37 89 100 100 84 59 93 100 74 73 0 0 0 0 0 0 4 5 2 0 0 20 81 8 5 5 82 13 94 62 2 4 2 0
80 96 35 5 21 3 5 91 40 4 3 97 92 9 8 78 70 80 71 27 20 16 23 22 20 15 17 7 0 0 4 5 2 0 0 0 1 1 5 5 19 100 28 100 85 49 9 77 5
5 29 72 44 26 4 0 17 83 0 0 0 0 0 0 0 0 7 43 51 54 36 42 18 23 22 23 2 0 3 0 0 0 0 0 0 0 0 89 99 27 26 11 46 13 100 100 22 1
5 25 80 44 5 0 4 12 4 3 0 1 0 0 0 0 0 0 2 7 4 3 24 12 16 21 22 14 26 32 26 18 13 0 0 0 0 1 91 60 68 13 5 21 12 22 91 99 11
48 14 0 4 0 0 0 4 0 0 3 5 14 5 17 18 1 0 0 0 0 4 2 0 4 25 23 18 35 20 27 23 26 16 0 1 12 0 11 88 46 98 9 5 5 5 15 5 39
2 4 0 3 0 1 4 4 5 0 30 5 10 5 5 5 3 0 0 0 0 0 0 0 1 9 0 11 17 13 32 9 4 5 0 4 19 5 5 11 99 28 27 10 5 5 5 8 5
7 67 3 0 0 0 0 0 0 0 3 5 5 2 1 1 0 0 0 0 0 0 0 0 7 0 0 2 19 6 2 0 0 2 0 0 18 12 26 24 24 5 5 5 5 5 5 30 93
92 2 0 0 0 5 0 0 0 0 0 0 0 0 0 0 0 0 0 0 0 0 0 0 0 0 0 0 4 4 3 3 0 0 0 0 1 0 0 2 5 5 6 53 31 23 87 100 18
12 21 0 0 5 4 0 0 0 0 0 0 0 0 0 0 0 0 0 0 0 0 0 0 0 0 0 0 0 0 0 0 0 0 0 0 0 0 0 19 6 0 1 3 2 0 0 21 92
4 0 0 0 5 3 4 3 0 0 0 0 0 0 0 0 0 0 0 0 0 0 0 0 0 0 0 0 0 7 0 0 0 0 0 0 0 0 6 23 14 10 39 12 0 0 2 9 1
1 3 0 0 0 0 2 3 0 0 0 0 0 0 0 0 0 0 0 0 0 0 0 0 0 0 0 8 6 2 0 0 0 0 0 0 0 0 16 18 38 9 26 18 19 28 4 7 14
0 5 0 0 0 0 0 0 0 0 0 0 0 0 0 0 0 0 0 0 0 0 0 0 0 0 6 12 21 14 4 0 0 0 0 0 0 0 0 0 0 3 4 0 0 6 12 11 3
0 5 1 12 3 10 40 13 0 3 0 4 2 0 0 0 0 0 0 0 0 0 0 0 0 0 0 5 0 0 0 0 0 0 0 0 0 0 0 0 0 0 0 0 0 0 6 17 16
0 0 1 1 5 83 92 74 5 5 3 10 22 4 0 0 4 0 0 0 0 0 0 0 0 0 0 0 2 11 18 14 5 11 26 8 0 0 0 0 0 0 0 0 0 0 0 0 4
0 0 0 5 5 1 1 0 5 92 2 59 54 5 0 0 67 8 0 0 0 0 0 0 0 0 0 0 2 1 22 14 5 0 12 0 0 0 0 0 0 0 0 0 0 0 0 0 0
0 3 4 4 0 0 0 0 0 5 0 64 46 7 0 0 5 1 0 0 0 0 0 0 0 0 0 0 0 11 4 0 0 0 0 0 0 0 0 0 0 0 0 0 0 0 0 0 0
0 16 5 0 0 0 0 0 0 0 0 0 0 0 1 5 0 2 0 0 0 0 0 0 0 0 1 1 5 2 0 0 2 0 0 0 0 0 0 0 0 0 0 0 0 0 0 0 0
0 5 4 0 0 0 0 0 0 0 1 0 0 0 0 0 0 0 0 0 0 0 0 0 0 0 0 2 2 0 0 0 0 0 0 0 0 0 3 10 3 1 0 0 0 0 0 0 0
0 5 0 0 0 0 0 0 0 0 5 0 4 0 0 0 0 0 0 0 0 0 0 0 0 0 0 0 0 0 0 0 0 0 0 2 4 0 5 7 0 4 2 0 0 0 5 5 0
0 0 0 0 0 0 0 0 0 0 28 1 0 0 0 0 0 0 0 0 1 16 5 5 0 0 0 0 0 0 0 0 0 0 5 5 5 4 22 5 1 5 5 0 0 0 2 5 0
0 0 0 0 0 0 0 0 0 0 0 3 0 0 0 0 0 0 0 0 0 1 1 0 0 0 0 0 0 0 0 0 2 5 5 5 6 52 5 5 5 5 5 3 0 0 3 2 2
0 0 0 0 0 0 0 0 0 0 0 0 3 1 0 0 0 0 0 0 0 0 0 0 0 3 44 69 0 0 0 11 27 60 26 15 16 5 5 5 5 4 37 5 0 2 5 5 5
0 0 0 0 0 0 0 0 0 0 0 0 5 5 0 0 0 0 0 0 0 0 0 0 0 2 96 71 59 5 17 5 5 5 100 100 100 63 5 6 50 26 97 3 0 5 6 49 6

GFSSGP_prec_cloud_006.txt.gz
Cloud_Cover
94 90 100 100 94 7 14 12 36 26 31 43 6 52 90 77 20 5 5 94 96 100 71 100 100 100 99 100 92 100 86 100 100 100 100 100 93 100 100 100 93 92 1 5 4 1 0 0 0
97 89 100 100 100 91 88 4 92 20 5 52 16 11 76 96 70 43 32 6 8 70 73 96 84 94 100 100 100 100 100 96 100 80 5 73 100 100 100 40 9 2 3 5 0 5 0 0 0
99 99 100 76 98 91 22 4 14 96 59 57 92 83 36 38 47 56 75 42 5 24 20 90 72 100 72 88 36 9 18 82 86 100 100 100 100 68 7 5 0 0 5 0 5 3 0 0 1
9 49 7 82 72 39 5 5 57 7 100 56 90 97 87 88 5 24 72 96 98 92 95 54 100 100 56 14 6 100 100 100 100 100 85 3 1 0 0 0 0 0 5 2 5 3 0 0 0
35 4 6 5 5 90 12 10 8 25 9 91 94 20 64 78 38 5 5 5 19 96 91 96 100 100 86 100 100 100 100 82 80 20 0 0 0 0 0 0 1 3 0 7 6 0 0 0 0
5 43 76 56 80 16 86 31 2 5 4 14 13 5 22 55 19 5 4 0 2 13 1 1 9 77 59 86 92 100 74 0 0 33 14 5 2 4 1 2 5 5 5 54 11 0 5 0 2
5 5 74 100 100 65 59 87 17 1 0 0 0 1 46 1 9 4 1 0 10 10 3 5 5 66 64 5 1 0 0 0 0 84 43 7 18 5 5 5 4 5 26 68 95 5 27 5 3
10 4 4 5 5 30 20 5 5 0 0 0 0 16 96 3 0 0 0 93 100 69 53 98 97 13 0 0 1 0 0 2 2 4 0 0 4 3 1 100 5 10 100 100 100 21 85 41 98
88 71 11 4 5 4 5 2 0 0 0 0 0 6 19 22 2 10 35 80 80 23 26 16 11 19 10 3 0 0 0 0 0 0 0 0 2 2 5 6 98 66 98 97 100 100 64 100 100
57 53 5 2 2 4 4 4 3 1 0 0 0 10 13 9 22 54 44 34 44 28 55 23 14 22 22 4 0 0 0 0 0 0 0 0 0 0 4 5 15 70 33 91 8 53 100 100 97
12 5 5 4 0 0 0 17 3 0 1 0 0 1 15 45 51 58 28 1 12 1 11 22 27 20 25 20 18 23 14 6 6 0 0 0 0 0 0 0 23 57 100 55 5 5 14 39 88
35 5 0 0 18 5 1 1 4 15 94 3 36 0 16 40 44 38 9 6 15 16 13 4 18 31 28 27 28 20 21 18 11 4 0 6 47 5 2 0 0 3 5 5 5 7 34 91 41
5 4 0 0 0 1 4 0 5 12 76 72 89 21 0 8 0 0 0 0 0 12 6 1 15 26 16 24 21 22 30 17 3 8 1 6 20 11 0 0 1 1 0 1 3 24 96 100 76
5 5 3 0 0 0 0 0 0 0 3 50 44 6 0 1 0 0 0 0 0 0 0 0 2 16 20 24 10 18 11 6 8 4 0 0 24 16 0 0 0 0 0 0 0 2 0 0 2
4 3 0 0 0 0 0 0 0 0 0 0 0 0 0 0 0 0 0 0 0 0 0 0 0 9 15 8 15 15 6 7 6 0 0 0 10 23 8 14 0 0 0 0 0 0 0 0 0
4 1 0 0 0 0 0 0 0 0 0 0 0 0 0 0 0 0 0 0 0 0 0 0 0 0 6 2 6 4 10 9 6 0 0 0 0 0 1 22 18 0 0 11 7 0 0 0 0
0 0 0 0 0 1 5 0 0 0 0 0 0 0 0 0 0 0 0 0 0 0 0 0 0 0 0 7 10 6 0 0 0 0 0 0 0 0 6 20 7 0 17 32 13 0 4 2 0
0 0 0 0 4 1 5 2 0 0 0 0 0 0 0 0 0 0 0 0 0 0 0 0 0 0 5 7 10 13 6 0 1 0 0 0 0 0 9 17 11 34 39 25 28 35 30 15 13
0 0 0 0 1 5 5 5 5 0 0 0 0 0 0 0 0 0 0 0 0 0 0 0 0 0 6 18 32 28 22 8 0 2 0 0 0 0 2 19 0 14 3 0 0 24 29 2 18
0 0 0 3 2 4 70 97 8 4 1 4 1 2 0 0 0 2 0 0 0 0 0 0 0 0 0 12 11 0 4 8 4 0 0 0 0 0 0 0 0 0 6 0 0 1 2 23 37
0 0 0 0 5 5 8 7 4 49 5 2 5 5 1 0 3 6 2 0 0 0 0 0 0 0 0 1 20 30 23 24 28 21 17 10 0 0 0 0 0 0 0 0 0 1 0 0 9
0 0 0 0 5 5 5 0 5 77 23 2 5 5 3 0 0 2 0 0 0 0 0 0 0 0 0 8 4 1 26 26 11 1 14 8 0 0 0 0 0 0 5 4 0 5 0 0 0
0 0 0 4 9 5 2 2 0 5 5 2 0 1 4 0 0 0 0 0 0 0 0 0 0 0 0 0 0 0 10 4 0 0 7 0 0 0 0 0 0 0 5 5 5 2 0 0 2
0 2 15 5 56 4 0 0 0 0 0 3 4 4 0 0 0 0 0 0 0 0 0 0 0 0 0 0 0 0 0 0 0 0 16 0 0 0 0 0 0 5 10 43 5 5 0 1 0
0 0 1 2 22 4 0 0 0 0 0 0 3 5 0 0 0 0 0 0 0 0 0 0 0 0 0 0 0 0 0 0 0 0 0 0 0 0 0 5 0 5 5 7 5 5 5 4 0
0 0 0 5 5 4 0 0 0 0 0 0 1 1 0 0 0 0 0 0 0 0 0 0 0 0 0 0 0 5 0 0 0 0 0 0 2 5 5 0 3 10 5 5 5 2 5 4 3
0 0 0 7 2 0 0 0 0 0 0 0 0 5 0 0 0 0 0 0 0 0 0 0 0 0 0 0 3 8 0 0 0 1 3 0 3 41 5 7 5 8 5 5 5 5 5 0 0
0 0 0 4 1 0 0 0 0 0 0 0 0 1 0 1 0 0 0 0 0 0 0 0 0 0 0 4 0 0 0 0 7 73 79 1 1 5 5 81 90 44 23 5 5 5 5 4 4
0 0 0 0 2 0 0 0 0 0 0 0 0 0 0 0 0 0 0 0 0 0 0 0 0 0 0 5 5 36 100 31 61 15 12 5 1 3 16 71 70 49 19 71 81 37 38 5 10
0 0 0 0 0 0 0 0 0 0 0 0 0 0 0 0 0 0 0 0 0 0 0 0 0 0 0 7 16 100 1 100 4 95 22 5 6 73 90 96 100 100 90 37 100 91 44 46 90

GFSSGP_prec_cloud_009.txt.gz
Cloud_Cover
100 99 100 92 5 57 91 72 5 37 48 10 36 85 61 48 5 24 57 8 89 84 99 100 86 100 100 100 100 100 100 100 100 100 100 86 76 100 100 99 11 2 0 0 5 2 0 0 0
81 83 100 98 44 5 5 66 30 5 5 5 5 12 53 86 87 26 72 98 96 92 35 33 98 100 100 100 100 80 83 100 100 92 58 100 100 100 51 0 0 0 0 0 5 0 0 0 0
100 51 96 100 100 62 9 10 59 3 5 11 58 5 55 94 99 94 45 46 61 60 9 5 5 5 38 96 100 46 82 86 69 100 100 94 25 0 1 4 0 0 0 2 0 0 0 0 0
6 100 92 100 100 100 61 5 6 82 70 6 45 97 68 78 100 100 100 100 100 100 100 99 19 90 36 100 100 65 100 100 100 100 56 5 5 6 5 0 0 0 0 5 5 0 0 0 0
5 82 62 100 100 100 19 3 5 5 5 54 66 96 36 68 93 75 80 75 96 54 90 77 54 100 86 100 98 94 45 11 2 4 6 68 20 5 0 4 5 2 5 7 5 1 1 0 2
98 37 100 100 100 81 10 2 0 1 0 3 4 16 33 79 27 12 8 5 10 14 32 31 2 15 8 3 62 18 2 0 0 0 5 5 5 1 5 11 5 5 5 5 74 13 19 4 5
94 88 88 5 3 5 10 8 5 0 0 0 0 0 18 6 55 8 36 11 6 8 32 54 36 8 5 14 2 0 0 0 0 0 5 5 4 1 5 100 5 5 56 99 17 77 76 84 58
5 5 5 5 5 6 5 5 5 1 0 0 0 0 1 0 0 0 0 20 38 41 38 31 27 23 31 0 0 0 0 0 0 0 2 0 0 1 5 5 13 5 38 76 96 17 55 99 28
5 5 4 5 5 5 2 1 0 0 0 0 0 0 0 5 5 5 12 43 42 36 34 45 26 27 5 0 0 0 0 0 0 0 0 0 0 0 4 5 4 6 12 72 100 5 62 66 100
32 39 1 2 3 2 53 9 5 0 0 0 0 0 0 4 0 0 0 1 10 10 37 46 45 4 0 1 0 0 0 0 0 0 0 0 2 0 0 0 0 1 3 6 14 60 94 50 90
56 98 22 2 0 0 4 84 0 0 0 0 0 0 0 0 0 0 0 0 0 0 8 22 33 16 0 1 0 3 0 0 0 0 0 4 0 0 0 0 0 0 0 0 1 4 3 70 100
4 9 57 5 0 0 0 3 5 8 62 6 0 0 0 1 0 0 0 0 0 0 0 2 6 20 4 0 0 0 0 0 0 0 0 0 2 0 0 0 0 0 0 0 0 0 0 0 0
5 0 0 0 0 0 2 0 40 9 76 56 88 18 3 0 0 1 0 0 0 0 0 0 2 14 17 0 0 0 0 0 0 0 0 0 0 0 0 0 0 0 0 0 0 0 0 0 0
4 0 0 0 0 0 0 0 0 1 4 13 38 5 9 6 0 0 1 0 0 0 0 0 12 31 20 2 2 0 0 0 0 0 0 0 0 0 0 0 0 0 0 0 0 5 0 0 0
4 2 0 0 0 0 0 0 0 0 0 0 0 0 0 0 0 0 0 0 0 0 0 0 0 1 11 0 0 0 0 0 0 0 0 0 0 0 0 2 0 0 0 0 0 14 4 0 0
0 0 0 0 0 0 0 0 0 0 0 0 0 0 0 0 0 0 0 0 0 0 0 0 0 0 0 0 0 0 0 0 0 0 0 0 4 6 0 4 0 0 0 0 3 15 6 3 0
0 0 0 0 0 0 0 0 0 0 0 0 0 0 0 0 0 0 0 0 0 0 0 0 0 0 1 10 0 4 0 1 0 0 0 0 0 0 0 0 0 0 0 0 13 19 0 0 0
0 0 0 0 0 0 0 0 0 0 0 0 0 0 0 0 0 0 0 0 0 0 0 0 0 0 0 16 0 1 0 0 0 0 0 0 6 0 0 0 1 6 20 4 0 16 5 2 0
0 0 0 5 5 5 5 5 0 0 0 0 0 0 0 0 0 0 0 0 0 0 0 0 0 0 0 0 0 0 0 0 0 0 0 0 0 0 0 0 38 1 0 2 26 6 5 1 8
0 0 0 2 5 4 5 5 5 0 0 0 0 0 0 0 0 0 0 0 0 0 0 0 0 0 0 0 5 1 0 0 2 7 2 0 0 0 0 0 0 0 0 0 5 6 2 0 27
0 0 0 0 4 5 5 5 1 0 0 3 1 0 1 0 0 4 2 0 0 0 0 0 0 0 0 2 37 23 10 6 0 2 13 1 0 0 0 0 0 0 0 0 23 5 9 2 21
0 0 0 0 0 0 24 1 5 5 5 1 1 0 4 0 0 0 0 0 0 0 0 0 0 0 0 20 7 2 0 4 32 23 2 4 2 0 0 0 0 0 0 0 7 5 6 14 5
0 0 0 0 0 0 2 0 0 5 0 0 0 0 0 3 0 0 0 0 0 0 0 0 0 0 0 2 0 0 6 13 26 0 1 29 37 18 0 0 0 0 0 0 24 16 5 5 7
0 0 0 0 0 2 0 0 0 0 0 0 1 4 2 0 0 0 0 0 0 0 0 0 0 0 0 0 0 0 0 4 3 0 0 0 1 0 0 0 0 0 5 5 5 14 46 100 77
0 0 0 0 0 0 0 0 0 0 0 0 3 30 0 0 0 0 0 0 0 0 0 0 0 0 0 0 0 0 0 0 0 0 0 0 0 0 0 0 3 5 4 10 5 36 60 75 76
0 0 0 0 0 0 0 0 0 0 0 0 0 1 0 0 0 0 0 0 0 0 0 0 0 0 0 0 0 0 0 0 0 0 0 0 0 0 0 0 4 5 32 5 81 5 10 40 71
0 0 0 0 0 0 0 0 0 0 0 0 0 0 0 0 0 0 0 0 0 0 0 0 0 0 0 0 0 0 1 0 0 0 1 0 4 0 0 0 0 0 3 5 5 33 5 5 69
0 0 0 0 0 2 0 0 0 0 0 0 0 0 0 1 0 2 0 0 0 0 0 0 0 0 0 0 0 0 0 0 1 35 20 1 4 3 0 3 0 0 5 5 5 5 3 5 5
0 0 0 0 0 0 0 0 0 0 0 0 0 0 0 0 0 0 0 0 0 0 0 0 0 0 0 0 0 5 4 41 98 7 17 81 70 74 13 9 10 5 61 5 5 5 5 5 7
0 0 0 0 0 0 0 0 0 0 0 0 0 0 0 0 0 0 0 0 0 0 0 0 0 0 0 0 0 3 2 26 89 98 5 100 31 100 100 100 100 100 6 5 5 3 5 5 6

GFSSGP_prec_cloud_015.txt.gz
Cloud_Cover
7 5 94 97 100 94 100 95 100 100 100 81 53 100 97 100 100 72 98 57 100 96 81 100 89 34 74 100 100 100 100 100 89 41 34 100 100 100 4 5 5 5 0 0 2 5 3 0 2
43 60 95 76 64 100 84 77 95 86 36 80 38 98 100 100 50 52 70 84 100 100 97 87 72 5 40 86 100 100 71 7 5 48 98 71 21 0 2 4 1 5 0 0 2 5 0 4 0
3 8 56 96 66 69 60 85 11 5 33 100 18 68 68 100 84 50 81 100 100 99 80 63 89 83 72 100 52 25 36 41 2 4 1 0 0 0 4 0 2 0 0 0 0 5 5 5 2
5 46 46 98 62 100 100 93 31 24 16 25 12 38 95 92 23 98 100 100 100 100 61 100 100 100 100 97 44 79 10 3 4 0 0 0 0 0 2 0 0 0 5 6 4 5 10 5 1
5 70 100 100 84 100 100 94 95 99 89 32 30 36 61 99 97 94 100 100 100 100 100 97 90 100 100 100 98 16 2 4 0 0 0 0 0 4 5 1 5 5 10 52 42 33 42 6 4
83 100 100 100 100 82 17 62 100 100 91 2 20 7 70 66 70 100 46 100 81 100 77 49 100 21 1 3 6 3 0 0 0 0 0 0 0 0 5 2 29 18 5 100 39 68 4 5 5
100 92 100 91 100 100 64 6 92 41 16 31 0 19 15 37 89 78 66 99 74 50 62 53 8 5 6 6 0 0 1 0 0 0 0 0 0 0 0 3 1 2 5 9 5 5 69 78 5
100 92 88 69 100 100 4 5 5 26 90 4 21 1 0 11 16 35 59 34 98 92 23 22 14 5 1 0 0 0 0 0 0 0 0 0 0 0 0 0 0 0 2 2 4 5 5 5 5
58 99 100 100 62 88 5 5 5 4 0 0 64 18 0 0 7 34 59 24 74 94 7 76 36 13 35 11 9 0 0 0 0 0 0 0 54 74 36 34 0 0 0 0 0 0 0 0 3
53 100 73 100 98 99 3 5 3 3 0 0 0 11 0 0 0 20 38 38 34 98 40 100 97 56 18 8 0 0 0 0 2 5 2 0 100 57 38 5 0 0 0 0 0 0 0 21 76
71 100 100 35 12 100 3 32 5 5 2 0 0 0 0 0 0 6 29 26 31 0 80 32 30 94 24 84 0 19 23 32 12 24 4 17 87 99 63 84 85 51 2 94 31 66 37 70 37
1 74 68 58 16 56 25 58 5 5 27 0 0 0 0 0 0 0 19 27 28 10 20 34 31 41 10 91 25 58 70 54 67 15 3 16 5 100 12 88 100 68 100 80 54 77 96 29 97
4 4 4 2 1 20 94 58 11 5 1 0 0 0 0 0 0 0 1 1 10 4 15 7 0 0 2 64 20 93 42 29 94 34 10 70 66 92 7 63 3 70 36 48 76 96 80 34 96
46 4 5 5 4 5 54 47 5 5 24 0 5 4 0 2 5 0 0 0 0 0 0 1 7 3 14 13 34 8 100 100 30 100 100 100 73 71 97 94 67 32 47 56 100 97 64 31 90
2 0 4 0 3 5 5 2 5 4 5 5 3 1 1 2 0 0 0 0 0 0 0 1 2 11 1 0 6 12 84 44 100 92 100 35 13 0 0 45 53 100 44 16 9 10 23 70 9
1 3 69 2 3 3 0 21 0 0 0 0 0 0 0 0 0 0 0 0 0 0 0 0 0 0 9 40 32 40 90 100 96 64 100 28 73 46 22 27 90 100 86 72 60 30 68 21 32
3 5 14 100 0 3 14 100 3 0 0 4 0 0 0 0 0 0 0 0 0 0 1 0 0 1 1 11 18 29 100 100 88 98 13 100 14 82 72 57 81 1 3 3 2 24 92 0 0
5 5 87 48 3 5 0 98 4 0 0 0 0 0 0 0 0 0 0 0 0 0 0 1 2 17 0 61 15 69 41 45 43 56 73 0 0 17 40 62 17 15 72 2 28 64 0 0 0
5 98 93 100 43 1 5 52 2 0 0 2 0 0 0 0 0 0 0 0 0 0 0 0 0 0 0 2 5 11 100 91 90 38 100 26 0 34 2 2 59 35 10 100 74 0 0 0 46
0 56 60 100 42 54 80 100 99 5 0 0 0 0 0 0 0 0 0 0 0 0 0 0 0 0 0 6 0 43 76 33 12 2 13 3 86 46 7 1 30 36 83 0 0 0 0 1 19
0 5 92 91 44 96 53 100 97 71 2 0 0 0 0 0 0 0 0 0 0 0 0 0 0 0 0 0 10 1 12 0 7 15 8 0 0 4 2 17 5 27 0 0 0 10 5 13 13
0 2 21 98 71 100 14 99 96 20 46 1 0 0 0 0 0 0 0 0 0 0 0 0 0 0 0 0 20 10 0 0 0 0 0 10 23 0 45 26 6 0 0 0 0 0 18 0 9
0 3 5 61 100 87 91 88 97 98 6 4 0 0 0 0 0 0 0 0 0 0 0 2 0 0 0 0 0 2 0 0 0 0 0 0 0 0 0 2 0 1 0 0 2 3 0 0 0
0 0 5 14 100 97 100 96 27 100 98 87 84 1 0 0 0 0 0 0 0 0 0 0 0 0 0 0 0 0 13 0 0 0 0 0 0 0 0 0 0 0 0 15 4 4 0 6 1
0 0 5 62 100 48 100 93 100 70 25 14 21 91 16 0 0 0 0 0 0 0 0 0 0 0 0 0 0 0 0 0 0 2 0 0 0 0 0 0 6 1 93 90 5 5 16 0 9
0 0 0 5 80 97 55 100 71 100 55 98 84 32 28 0 0 0 0 0 0 0 0 0 0 0 0 0 0 0 0 0 0 0 0 0 0 0 0 0 0 5 100 98 12 53 20 4 1
0 0 0 5 73 96 97 58 96 97 89 76 5 5 37 1 0 0 0 0 0 0 0 0 0 0 0 0 0 0 0 0 0 0 0 0 2 1 5 0 2 37 75 100 100 40 99 30 4
0 3 0 0 34 100 99 93 100 53 4 5 5 5 5 4 0 0 0 0 0 0 0 0 0 0 0 0 0 0 0 0 0 0 0 1 5 5 3 2 1 5 40 100 100 77 41 86 5
4 0 0 0 19 35 100 100 100 100 88 0 2 5 5 5 0 0 0 0 0 0 0 0 0 0 0 0 0 0 0 0 0 0 0 0 3 66 4 2 38 66 71 100 95 30 12 50 63
0 0 0 0 0 5 75 100 100 71 27 0 5 88 97 51 0 0 0 0 0 0 0 0 0 0 0 0 0 0 0 0 0 0 0 0 5 4 5 7 4 66 100 100 100 100 99 100 96

GFSSGP_prec_cloud_018.txt.gz
Cloud_Cover
28 83 84 100 100 100 100 100 100 100 96 71 90 100 100 96 56 39 10 39 60 76 84 96 61 20 18 5 39 100 100 100 100 100 8 5 12 1 0 2 5 0 0 0 2 5 5 0 4
5 59 56 100 100 100 100 100 100 96 100 100 100 100 100 100 69 83 88 70 99 95 59 58 77 0 4 5 6 82 84 98 79 21 0 2 1 0 0 0 0 0 0 0 5 16 5 11 3
5 37 100 100 100 100 100 100 98 100 92 100 75 100 8 36 10 35 69 89 100 99 14 4 5 53 100 100 100 81 64 48 90 1 1 0 0 0 0 0 0 0 4 5 5 7 5 5 9
4 76 92 72 100 100 100 96 92 16 51 12 5 15 17 25 11 14 97 100 86 99 35 66 97 100 100 23 96 85 98 100 1 0 0 0 0 1 5 0 0 2 5 3 4 5 4 3 5
90 100 100 100 27 72 32 59 100 32 70 14 0 99 23 55 31 72 100 99 99 100 100 100 100 100 100 100 100 95 48 0 0 0 0 0 0 0 4 2 5 4 7 46 3 5 3 1 2
100 64 100 100 98 98 100 75 45 95 77 100 2 100 100 51 4 9 99 92 100 100 100 100 70 100 100 43 0 2 2 0 0 0 0 0 0 0 0 0 0 0 5 2 0 0 2 4 0
100 100 93 100 100 100 83 75 83 32 19 64 23 93 98 80 48 61 20 96 100 61 10 41 50 6 2 0 1 0 0 0 0 0 0 0 0 0 0 0 0 0 0 1 0 0 0 1 3
100 100 100 100 88 100 99 100 96 67 95 2 1 0 88 8 0 11 35 99 91 41 3 4 3 12 0 1 0 0 0 0 0 0 0 0 0 0 0 0 0 0 0 0 0 0 0 0 2
100 99 93 100 100 99 46 62 5 89 58 4 99 20 0 4 32 14 5 100 83 76 5 0 5 0 0 0 0 0 0 0 0 0 0 0 35 2 100 1 0 0 0 0 0 0 0 0 0
83 99 62 85 98 93 13 2 3 0 0 40 4 40 1 2 84 57 0 21 86 99 58 7 0 0 0 0 0 0 0 0 0 0 0 0 76 5 0 0 0 0 0 4 1 0 0 33 4
84 100 100 8 72 5 96 73 0 8 3 3 16 0 0 0 22 50 0 0 21 0 69 17 0 6 0 15 0 0 0 0 0 0 9 57 100 100 100 38 97 16 0 1 0 51 45 44 3
87 38 33 99 91 5 23 84 0 25 88 3 0 0 0 0 1 41 65 26 8 0 3 2 0 22 4 3 0 0 0 0 0 1 3 5 5 25 55 32 9 95 60 52 82 12 40 2 4
28 99 50 52 3 8 96 66 0 19 97 13 0 0 0 0 0 0 6 0 0 0 81 43 0 12 29 54 10 92 100 94 97 100 100 100 47 51 53 3 25 43 87 55 97 99 24 0 16
51 57 45 11 55 1 56 70 0 6 4 22 0 0 0 0 0 0 8 0 15 0 92 2 0 0 0 84 13 52 87 3 65 71 90 56 8 4 16 2 85 91 82 33 30 23 33 0 0
4 76 5 3 4 7 84 100 5 5 5 58 5 5 1 0 1 0 0 0 37 0 5 0 0 0 0 0 3 3 87 2 97 3 29 7 0 0 4 0 1 99 100 100 0 0 0 32 73
0 2 20 98 48 9 0 100 1 13 43 5 5 0 0 0 0 0 0 0 0 0 0 0 0 0 0 0 0 0 0 45 14 46 49 14 16 0 0 22 27 100 97 66 65 5 11 100 59
0 4 8 100 100 78 100 63 100 41 2 3 0 0 0 0 0 0 0 0 0 0 0 0 0 30 4 2 4 0 0 89 56 45 82 2 6 23 2 36 3 97 0 0 0 0 62 32 1
0 4 10 37 64 92 94 100 19 14 37 4 3 0 0 0 0 0 0 0 0 0 0 0 5 0 54 4 4 4 0 84 42 55 71 29 41 0 0 0 100 0 0 0 0 69 36 0 0
0 17 84 100 95 100 100 100 100 6 65 14 0 0 0 0 0 0 0 0 0 0 0 0 0 0 32 0 0 0 48 40 0 0 97 2 78 0 0 0 0 0 0 11 8 12 0 0 87
0 11 58 100 35 80 100 30 0 11 0 0 0 0 0 0 0 0 0 0 0 0 0 0 0 0 0 0 0 1 7 0 7 46 66 0 0 0 0 0 0 76 30 71 0 0 0 2 71
0 0 8 100 78 29 93 100 90 62 1 0 1 0 0 0 0 0 0 0 0 0 0 0 0 0 0 0 0 0 0 10 100 84 98 34 74 0 12 0 0 36 18 0 0 0 0 4 65
0 0 6 14 100 9 100 83 6 99 15 0 0 1 0 0 0 0 0 0 0 0 0 0 0 0 0 0 0 0 0 0 13 0 10 10 0 0 41 23 0 0 0 0 0 0 0 0 56
0 0 0 5 100 11 8 51 81 89 92 46 0 0 0 0 0 0 0 0 0 0 0 0 0 0 0 0 0 0 0 0 0 1 0 0 0 0 20 1 0 0 0 0 0 4 0 0 0
0 0 0 2 66 100 96 17 90 66 26 100 99 5 0 0 0 0 0 0 0 0 0 0 0 0 0 0 0 0 0 0 19 87 0 0 0 0 0 0 0 0 0 0 5 49 7 0 4
3 0 0 0 14 8 96 34 95 95 100 40 100 87 30 0 1 1 0 0 0 0 0 0 0 0 0 0 0 0 0 0 0 0 0 0 0 0 0 0 0 0 0 0 5 59 98 6 4
5 0 0 0 0 2 0 52 46 53 23 96 94 100 70 3 2 0 0 0 0 0 0 0 0 0 0 0 0 0 0 0 0 0 0 0 0 0 0 0 0 0 0 0 95 91 42 52 86
0 0 0 0 0 5 15 54 7 14 84 36 100 100 100 16 0 0 0 0 0 0 0 0 0 0 0 0 0 0 0 0 0 0 0 0 0 0 1 0 0 0 4 0 5 64 48 88 5
0 3 0 0 0 0 1 28 100 38 33 27 18 98 100 8 4 0 0 0 0 0 0 0 0 0 0 0 0 0 0 0 0 0 0 0 0 0 5 3 0 3 1 5 14 82 96 100 49
0 0 0 0 0 0 0 0 2 92 96 51 2 75 94 1 4 0 0 0 0 0 0 0 0 0 0 0 0 0 0 0 0 0 0 0 0 0 0 0 0 0 0 5 5 68 96 100 99
0 0 0 0 0 0 0 0 88 97 96 95 73 3 0 0 0 0 0 0 0 0 0 0 0 0 0 0 0 0 0 0 0 0 0 0 0 0 0 0 0 0 4 5 5 77 99 43 100

GFSSGP_prec_cloud_021.txt.gz
Cloud_Cover
99 54 97 100 100 100 100 100 100 96 100 100 100 100 57 63 18 74 100 92 5 5 47 100 100 100 100 100 59 0 4 6 89 100 89 10 1 0 0 0 0 0 0 0 36 5 4 14 0
93 100 100 100 100 100 100 100 100 72 88 100 100 100 100 96 87 95 7 5 53 54 46 70 100 100 70 53 46 99 18 68 5 5 98 1 0 0 0 0 0 0 6 8 47 38 3 4 4
6 99 100 100 100 100 100 100 100 100 31 100 8 76 100 100 100 47 7 18 74 76 22 5 4 2 0 100 100 40 24 46 94 100 2 0 0 0 0 0 2 12 6 35 54 14 1 0 0
96 100 100 100 100 100 100 99 100 100 100 100 24 6 8 4 5 5 5 5 64 33 11 5 5 48 4 5 5 100 100 100 16 0 0 0 0 0 0 0 2 4 8 16 14 44 1 0 0
40 30 100 100 100 100 100 100 100 92 99 47 0 43 7 0 4 7 74 79 58 24 5 88 73 100 100 100 100 100 1 0 0 0 0 0 0 0 0 0 0 0 0 0 0 2 30 5 1
100 100 76 97 99 100 100 100 98 78 6 1 0 0 0 0 0 17 17 11 15 5 78 64 86 100 50 51 8 0 0 0 0 0 0 0 0 0 0 0 0 0 0 0 0 0 0 4 4
100 100 100 100 100 100 100 79 97 64 2 2 0 0 29 1 2 98 46 0 1 5 5 0 5 2 23 0 0 0 0 0 0 0 0 0 0 0 0 0 0 0 0 0 0 0 0 0 0
100 100 100 100 70 100 99 100 33 22 2 0 3 0 19 0 0 1 100 0 0 0 0 0 0 0 0 0 0 0 0 0 0 0 0 0 0 0 0 0 0 0 0 0 0 0 0 0 0
100 99 98 99 70 100 95 96 41 71 100 6 1 1 0 0 0 0 95 100 1 0 0 0 0 0 0 0 0 0 0 0 0 0 0 0 0 44 15 0 1 0 0 0 0 0 0 1 0
87 61 96 100 98 98 31 5 1 6 3 17 0 0 0 0 0 0 4 0 0 0 0 0 0 0 0 0 0 0 0 0 0 0 0 41 4 10 5 84 4 0 2 3 0 0 1 0 0
64 93 100 97 99 49 24 95 5 0 0 0 0 0 0 0 0 0 0 0 0 0 0 0 0 0 0 0 0 0 0 0 0 0 0 5 99 82 5 9 2 3 0 0 0 2 20 1 15
81 37 100 90 5 13 5 13 6 0 0 2 0 0 0 0 0 0 0 0 0 3 81 0 0 0 0 0 0 0 0 0 5 5 2 5 1 14 18 0 0 18 0 51 14 13 0 98 0
5 15 91 100 17 12 4 94 77 34 0 0 0 0 0 0 0 0 0 0 0 0 0 0 0 0 0 0 0 0 0 4 6 51 4 0 3 10 0 3 49 29 62 73 100 100 0 0 0
0 10 100 91 94 95 15 23 78 28 0 0 0 0 0 0 3 0 0 0 0 0 0 0 0 0 0 0 0 97 100 71 37 37 68 85 1 0 0 0 79 100 61 100 22 33 0 0 0
0 5 52 100 57 93 23 85 100 60 1 5 3 0 0 0 0 26 2 0 0 0 0 0 0 0 0 0 0 11 100 42 60 72 0 3 0 0 0 0 0 0 24 97 61 91 0 96 100
0 2 5 6 90 100 5 82 94 66 4 5 5 1 3 0 0 0 62 0 0 0 0 0 0 0 0 0 0 0 0 0 2 2 0 9 7 0 0 0 0 11 100 25 0 0 2 0 0
0 0 0 5 78 55 12 81 62 21 1 0 0 0 0 0 0 0 10 0 0 0 0 0 0 0 2 0 0 0 0 0 6 0 6 11 0 1 0 0 0 0 76 0 0 0 0 0 0
0 0 0 5 46 57 11 5 98 58 1 0 0 0 0 0 0 0 0 0 0 0 0 0 5 5 1 0 1 0 0 0 12 0 0 47 0 0 0 0 0 0 0 0 0 48 81 0 0
0 0 0 5 75 32 100 100 81 5 0 0 0 0 0 0 0 0 0 0 0 0 0 5 0 0 0 0 0 1 5 0 0 0 24 0 24 0 0 0 0 0 4 3 65 0 0 0 0
0 0 0 62 98 32 97 74 82 5 0 0 0 0 0 0 0 0 0 0 0 0 0 0 0 0 0 0 0 0 0 0 0 3 13 84 16 0 0 0 0 0 13 3 7 0 0 0 5
0 0 0 20 90 99 95 10 3 5 5 2 0 0 0 0 0 0 0 0 0 0 0 0 0 0 0 0 0 0 0 0 0 3 100 59 12 34 0 0 0 0 0 0 0 0 0 0 0
0 0 0 5 98 31 48 5 33 46 4 15 5 0 0 0 0 0 0 0 0 0 0 0 0 0 0 0 0 0 0 0 0 85 0 17 8 0 0 0 0 0 5 30 0 0 2 68 5
0 0 0 5 24 15 74 100 88 43 5 54 7 0 0 0 0 0 0 0 0 0 0 0 0 0 0 0 0 0 0 0 0 16 0 0 0 0 0 0 0 0 0 0 0 0 2 3 2
5 0 0 5 34 93 3 81 5 79 4 12 16 5 11 0 0 0 0 0 0 0 0 0 0 0 0 0 0 0 0 0 0 0 0 0 0 0 0 0 0 0 0 0 0 0 1 0 0
0 0 0 0 1 0 5 4 0 93 20 2 0 73 59 44 6 2 2 0 0 0 0 0 0 0 0 0 0 0 0 0 0 0 0 0 0 0 0 0 0 0 0 0 0 5 8 5 5
0 0 0 0 0 0 0 0 0 13 94 66 28 19 83 75 91 4 0 0 0 0 0 0 0 0 0 0 0 0 0 0 0 0 0 0 0 0 0 0 0 0 0 0 0 7 54 96 11
0 0 2 0 0 0 0 0 0 0 4 97 97 38 88 98 56 5 2 0 0 0 0 0 0 0 0 0 0 0 0 0 0 0 0 0 0 0 0 0 0 0 0 1 4 5 83 5 53
0 0 0 0 0 0 0 0 0 0 13 21 8 22 100 77 77 3 2 0 0 0 0 0 0 0 0 0 0 0 0 0 0 0 0 0 0 0 0 0 0 0 0 0 0 2 5 13 61
0 0 0 0 0 0 1 0 0 0 70 68 3 10 22 0 68 0 3 0 0 0 0 0 0 0 0 0 0 0 0 0 0 0 0 0 0 0 0 0 0 0 0 4 0 0 0 0 14
0 0 0 0 0 0 0 2 3 32 28 100 100 4 23 9 6 18 2 0 0 0 0 0 0 0 0 0 0 0 0 0 0 0 0 0 0 0 0 0 0 0 0 0 12 65 5 0 17

GFSSGP_prec_cloud_024.txt.gz
Cloud_Cover
70 90 34 80 100 100 100 100 99 92 96 100 100 100 100 100 100 100 100 100 29 32 7 11 84 100 100 100 92 5 39 100 89 85 31 99 7 0 0 0 0 2 7 6 75 92 64 8 7
76 85 100 73 99 84 100 100 100 95 38 72 96 100 100 100 100 100 100 100 100 40 35 18 4 21 69 98 38 78 41 16 22 97 93 0 0 0 1 1 0 7 21 63 63 64 4 5 5
55 100 100 100 100 54 100 100 90 100 87 100 100 100 78 59 33 38 82 8 5 7 7 5 2 0 2 8 6 5 36 91 96 5 0 0 0 0 0 0 0 0 3 2 4 96 24 0 4
99 100 100 100 100 100 100 75 99 100 100 100 100 100 94 42 4 5 11 5 5 23 5 5 6 16 70 100 100 100 100 91 0 0 0 0 0 0 0 0 0 0 0 0 0 6 5 2 0
82 97 100 100 100 100 100 98 24 13 100 100 98 82 21 3 5 5 5 20 5 11 44 25 32 61 100 100 72 59 4 0 0 0 0 0 0 0 0 0 0 0 0 0 0 0 5 5 2
10 74 100 100 100 100 100 100 100 100 55 96 61 0 0 0 0 3 3 2 5 3 1 5 1 4 6 7 63 0 0 0 0 0 0 0 0 0 0 0 0 0 0 0 0 0 0 0 1
62 82 88 100 100 100 100 100 100 100 100 34 5 0 0 0 0 0 0 0 0 0 3 0 0 2 0 0 0 0 0 0 0 0 0 0 0 0 0 0 0 0 0 0 0 0 0 6 2
97 99 86 100 100 100 100 100 100 40 93 39 4 0 7 0 0 0 0 0 0 0 0 0 0 0 0 0 1 0 0 0 0 0 0 0 0 0 0 0 0 0 0 0 0 0 0 0 9
97 99 98 69 92 69 78 100 100 15 15 18 31 3 0 0 0 0 0 0 0 0 0 0 0 0 0 0 0 0 0 0 0 0 0 1 5 4 28 4 1 0 0 0 0 0 0 1 16
41 49 20 100 7 4 17 83 68 70 3 23 3 0 0 0 0 0 0 0 0 0 0 0 0 0 0 0 0 0 0 0 0 0 5 5 4 3 5 0 1 0 0 0 3 0 0 0 0
6 22 79 51 99 5 5 4 0 0 0 0 0 0 0 0 0 0 0 0 0 0 0 0 0 0 0 0 0 10 0 0 0 0 5 3 2 0 0 2 0 0 1 2 0 4 50 7 0
5 4 10 82 100 25 5 5 0 4 0 0 0 0 0 0 0 0 0 0 0 0 0 0 0 0 0 0 0 0 0 5 5 2 0 0 0 0 0 1 0 2 1 85 25 8 42 38 44
0 0 6 98 88 100 12 79 5 5 1 0 0 0 0 0 0 0 0 0 0 0 0 0 0 0 0 0 0 0 4 1 0 0 0 0 0 0 0 0 30 34 76 63 55 98 93 0 0
0 0 7 98 7 100 40 65 5 2 2 1 0 0 0 0 0 0 0 0 0 0 0 0 0 0 0 0 0 0 0 12 24 69 0 91 3 1 0 0 28 90 66 100 100 50 0 1 55
0 0 0 15 74 15 52 4 93 4 10 2 0 0 0 0 1 0 0 1 0 0 0 0 0 0 0 0 0 14 100 100 43 52 3 0 0 0 0 0 0 0 2 96 98 35 45 98 19
0 0 0 5 1 40 4 5 78 34 0 0 4 0 0 0 0 0 0 0 0 0 0 0 0 0 0 0 0 0 52 100 45 0 0 0 0 0 0 0 0 0 3 96 0 0 0 0 0
0 0 0 0 14 21 29 5 91 2 0 0 0 0 0 0 0 0 0 0 0 0 0 0 0 0 0 0 0 0 0 34 9 0 0 1 10 0 0 0 0 0 0 32 0 0 0 0 0
0 0 0 0 42 13 79 5 5 2 7 4 0 0 0 0 0 0 0 0 0 0 0 0 0 0 0 0 0 0 0 0 0 0 0 0 1 0 0 0 0 0 0 0 0 0 5 0 0
0 4 0 0 4 5 6 93 62 5 3 0 0 0 0 0 0 0 0 0 0 0 0 0 0 0 0 0 0 0 0 0 0 0 0 0 0 0 0 0 0 0 0 0 0 0 0 0 0
0 0 0 0 0 4 89 76 5 5 5 5 1 0 0 0 0 0 0 0 0 0 4 5 0 0 0 0 0 0 0 0 0 0 0 0 2 22 0 0 0 0 0 0 0 0 0 0 1
0 0 0 0 0 0 53 88 5 9 49 5 0 0 0 0 0 0 0 0 0 0 0 0 0 0 0 0 0 0 0 0 0 0 0 95 75 0 0 7 0 0 0 0 0 0 0 0 0
0 0 0 0 2 2 29 79 95 49 7 3 0 0 0 0 0 0 0 0 0 0 0 0 0 0 0 0 0 0 0 0 0 0 0 0 0 38 0 0 0 0 0 0 0 0 0 0 0
0 0 0 1 5 20 5 72 5 88 5 8 2 0 1 2 0 0 0 0 0 0 0 0 0 0 0 0 0 0 0 0 0 0 70 0 0 0 0 0 0 0 0 0 0 1 5 5 5
0 0 0 3 59 34 0 1 0 4 2 0 3 4 0 1 2 0 0 0 0 0 0 0 0 0 0 0 0 0 0 0 0 0 0 11 0 0 0 0 0 0 0 0 4 5 14 36 5
0 0 0 0 2 5 0 0 0 0 1 0 1 0 0 0 6 0 0 5 0 0 0 0 0 0 0 0 0 0 0 0 0 0 0 1 0 0 0 0 0 0 0 0 0 8 8 5 5
0 0 0 0 0 0 0 0 0 0 0 0 5 4 5 2 32 96 73 63 0 0 0 0 0 0 0 0 0 0 0 0 0 0 0 0 0 0 0 0 0 0 0 0 0 0 5 13 11
0 0 0 0 0 0 0 0 0 0 5 0 4 5 0 3 74 100 12 62 2 0 0 0 0 0 0 0 0 0 0 0 0 0 0 0 0 0 0 0 0 0 0 0 0 0 7 51 48
0 0 0 0 0 0 0 0 0 0 0 2 5 5 3 3 5 86 66 90 86 0 0 0 0 0 0 0 0 0 0 0 0 0 0 0 0 0 0 0 0 0 0 0 0 0 0 6 3
0 0 0 0 0 0 0 0 0 3 0 0 0 0 4 5 1 5 100 98 98 1 0 0 0 0 0 0 0 0 0 0 0 0 0 0 0 0 0 0 0 0 0 0 0 0 1 2 2
0 0 0 0 0 0 0 4 0 0 0 0 2 0 25 65 17 44 83 26 6 0 0 0 0 0 0 0 0 0 0 0 0 0 0 0 0 0 0 0 0 0 4 1 5 5 5 5 5

GFSSGP_prec_cloud_027.txt.gz
Cloud_Cover
58 70 71 100 100 99 97 84 48 81 69 20 89 100 31 69 74 100 100 100 100 100 100 79 5 10 90 94 98 75 58 5 6 83 90 0 0 0 0 0 0 0 0 6 6 51 5 8 18
40 98 82 78 97 89 93 100 7 59 61 35 86 84 100 100 100 100 100 100 78 9 5 3 4 1 0 1 5 3 6 45 88 81 0 0 0 0 1 0 0 9 0 18 4 11 1 4 24
95 100 94 100 73 98 100 71 99 79 98 93 62 97 100 100 100 100 55 6 5 6 4 0 8 5 5 5 5 48 100 100 37 0 0 0 0 0 0 0 2 0 8 5 3 5 5 8 5
98 99 98 90 100 99 81 67 5 20 99 72 72 81 96 33 7 5 5 5 5 5 1 42 33 99 26 100 90 64 6 0 0 0 0 0 0 0 0 0 0 0 0 2 16 5 5 8 0
87 100 100 100 100 100 100 100 100 95 56 5 5 26 30 6 7 5 29 19 75 4 0 2 2 3 4 19 3 0 4 0 0 0 0 0 0 0 0 0 0 0 0 0 1 2 3 4 4
5 100 97 100 62 94 85 97 100 100 100 94 44 40 88 68 32 3 5 5 5 0 0 0 0 0 1 0 0 0 0 0 0 0 0 0 0 0 0 0 0 0 0 0 0 0 0 3 15
5 30 100 85 79 71 14 59 100 100 100 23 49 89 100 41 5 3 5 0 0 0 0 0 0 0 0 0 0 0 0 0 0 0 0 0 0 0 0 0 0 0 0 0 0 4 88 74 96
30 3 84 100 96 77 8 6 5 6 61 29 89 100 99 0 0 0 0 0 0 4 0 0 0 0 0 0 0 0 0 0 0 0 0 4 5 5 0 0 0 0 0 0 0 5 0 54 100
7 9 18 5 54 100 100 74 11 34 26 73 65 57 54 0 0 0 11 28 34 36 3 4 0 0 1 0 0 0 0 0 0 0 4 5 4 4 0 3 2 0 0 0 2 5 5 0 2
6 7 92 23 5 30 27 88 93 62 37 6 16 4 1 0 0 0 43 60 55 43 52 6 11 12 16 3 0 0 0 0 0 4 2 0 0 0 0 0 3 0 0 0 5 5 4 0 0
5 8 79 75 94 49 88 12 5 14 9 5 0 0 0 0 0 0 0 0 7 2 34 34 3 14 2 8 5 20 10 2 2 5 0 0 8 0 0 0 0 0 2 2 0 0 28 50 0
49 5 56 99 100 100 96 53 10 76 5 0 0 0 0 0 0 0 0 0 0 0 0 2 1 16 2 0 15 8 5 16 13 0 0 0 0 0 0 0 0 0 2 80 62 8 87 1 88
5 5 43 54 80 56 8 5 9 4 4 0 0 0 0 0 0 0 0 0 0 0 0 0 0 0 0 0 5 21 22 3 0 0 0 3 0 0 0 3 13 24 69 70 100 100 53 0 0
5 5 5 4 13 5 5 26 4 29 100 42 0 0 0 0 0 0 0 0 2 0 0 0 0 0 0 0 0 2 0 0 0 0 0 86 2 0 0 1 31 31 56 100 99 44 79 0 58
0 0 0 0 0 0 0 0 0 2 6 5 0 0 0 0 0 0 0 0 0 0 0 0 0 0 0 0 0 0 0 0 0 36 9 0 0 0 0 0 0 0 0 4 99 0 100 99 82
0 0 0 0 0 0 0 0 1 2 2 7 5 0 0 0 0 0 0 0 0 0 0 0 0 0 0 0 0 0 0 23 84 3 97 0 0 0 0 0 0 0 0 3 68 0 0 0 44
0 0 0 0 0 0 0 0 5 5 96 57 2 0 0 0 0 0 0 0 0 0 0 0 0 0 0 0 0 0 0 28 84 17 0 0 0 8 0 0 0 0 0 4 37 0 0 0 31
0 0 0 1 0 0 0 3 5 100 92 44 3 0 0 0 0 0 0 0 0 0 0 0 0 0 0 0 0 0 0 0 0 0 0 0 0 0 1 0 0 0 0 0 0 0 0 0 0
0 0 0 5 0 0 13 3 5 60 100 35 5 0 0 0 0 0 0 0 0 0 0 0 0 0 0 0 0 0 0 0 0 0 0 0 0 0 0 0 0 0 0 0 0 0 0 0 0
0 0 0 5 0 0 0 3 5 5 97 100 1 0 0 0 0 0 0 0 0 0 0 2 0 0 0 0 0 0 0 0 0 0 0 0 0 0 4 0 0 0 0 0 0 0 0 0 0
0 0 0 0 3 3 0 2 4 72 35 63 0 4 0 0 0 0 0 0 0 0 0 0 0 0 0 0 0 0 0 0 0 0 0 0 0 1 24 0 0 0 0 0 0 0 0 0 0
0 0 0 0 5 0 0 0 0 4 5 3 2 5 3 0 0 0 0 0 0 0 4 0 0 0 0 0 0 0 0 1 0 0 0 0 11 76 0 0 0 0 9 0 0 2 5 0 5
0 0 0 0 2 3 0 0 0 3 2 0 0 5 5 7 0 0 0 0 0 0 0 0 0 0 0 0 0 0 0 0 0 0 0 0 0 0 0 0 0 0 10 0 2 5 5 5 5
0 0 0 0 2 2 0 0 0 1 0 0 5 5 1 5 0 1 0 0 0 0 0 0 0 0 0 0 0 0 0 0 0 0 0 0 3 3 0 0 0 0 0 0 4 1 2 4 5
0 0 0 0 0 4 0 0 0 0 0 0 0 11 4 2 5 21 5 0 0 0 0 0 0 0 0 0 0 0 0 0 0 0 0 3 24 18 2 0 5 0 0 0 0 0 0 5 5
0 0 0 0 0 0 0 1 0 0 0 2 5 5 5 0 5 5 30 40 4 0 0 0 0 0 0 0 0 0 0 0 0 0 0 0 0 0 0 0 0 0 0 0 0 0 0 0 0
0 0 0 0 0 0 0 4 1 0 0 5 3 0 3 5 6 18 5 77 5 5 4 0 0 0 0 0 0 0 0 0 0 0 0 0 0 0 0 0 0 0 0 0 0 2 5 2 0
0 0 0 0 0 0 0 1 5 0 0 0 1 0 0 0 3 20 5 8 5 5 5 0 0 0 0 0 0 0 0 0 0 0 0 0 0 0 0 0 0 0 0 0 0 3 5 5 0
0 0 0 0 0 0 0 1 0 4 0 0 1 0 0 0 0 2 5 68 12 5 4 1 0 0 0 0 0 0 0 0 0 0 0 0 0 0 0 0 0 0 0 0 0 2 5 5 5
0 0 0 0 0 0 0 0 0 0 0 0 0 0 0 0 0 0 56 100 100 71 5 0 0 0 0 0 0 0 0 0 0 0 0 0 0 0 0 0 0 0 0 0 0 0 0 4 5

GFSSGP_prec_cloud_030.txt.gz
Cloud_Cover
100 100 98 65 99 100 100 100 67 100 100 100 68 33 26 98 48 100 100 100 100 98 11 98 99 97 47 0 0 0 0 4 4 5 2 0 0 4 0 1 0 0 0 14 2 3 9 5 70
100 63 61 82 99 94 61 93 59 76 90 22 100 96 8 76 71 100 100 100 72 18 5 4 23 16 4 5 5 5 60 5 3 0 0 0 0 0 0 0 0 0 0 0 3 4 4 62 100
92 96 90 86 98 75 98 15 57 100 92 62 90 80 63 82 65 64 99 96 5 10 3 1 4 3 5 5 84 100 5 4 3 0 0 0 0 0 0 0 3 0 0 0 3 5 3 0 4
77 100 83 90 95 89 47 78 98 100 100 100 100 98 18 26 16 14 33 19 5 4 0 0 0 1 1 1 5 12 0 0 0 0 0 0 0 0 0 0 7 1 0 4 4 4 0 0 0
100 93 88 99 94 100 100 100 100 98 98 15 5 17 63 30 11 31 45 5 5 4 0 1 0 0 0 0 1 0 0 0 0 0 0 0 0 0 0 0 0 0 16 0 0 0 0 2 70
43 97 70 26 5 15 36 70 6 5 96 100 100 100 100 51 96 95 11 0 4 0 0 0 0 0 0 0 0 0 0 0 0 0 0 0 0 0 0 0 0 0 3 3 2 1 2 11 71
5 94 63 9 6 5 17 72 19 96 100 100 100 100 97 26 99 10 5 0 0 0 0 1 0 0 13 0 0 0 0 0 0 0 0 1 3 5 0 3 0 0 0 0 0 1 5 5 4
5 99 100 76 60 5 13 27 3 60 31 21 26 27 90 100 61 4 2 0 0 0 0 0 0 0 0 0 0 0 0 0 0 0 3 4 1 0 0 0 2 0 0 0 0 4 3 0 0
72 66 35 39 97 38 29 32 15 24 69 86 69 81 44 12 69 12 24 12 43 33 23 4 0 0 0 0 0 0 0 0 0 3 0 4 0 0 0 0 0 0 1 2 2 5 3 0 0
94 100 79 3 1 2 46 100 67 28 5 23 14 63 14 18 9 47 94 71 50 53 67 10 4 0 5 0 0 0 0 0 2 0 0 0 0 0 0 0 0 0 0 2 0 0 1 0 0
71 100 100 95 20 3 20 9 34 32 100 100 100 86 24 9 21 49 68 17 21 24 59 37 11 8 12 6 5 11 0 3 0 0 0 0 0 0 0 3 0 0 0 0 0 1 6 61 1
5 37 97 88 14 5 12 45 89 19 28 5 54 2 0 0 20 23 42 18 3 27 24 42 22 35 25 10 15 12 12 7 6 0 0 0 0 0 5 1 0 0 3 96 46 9 90 0 42
5 95 81 87 14 5 5 0 3 37 12 5 0 0 0 0 0 0 0 0 0 5 15 31 32 46 36 11 24 25 22 12 0 0 0 0 4 0 0 0 0 24 72 74 92 100 14 0 0
5 45 99 19 5 3 4 1 0 5 54 5 4 4 0 0 0 0 0 0 0 0 0 3 25 24 28 8 15 16 22 3 0 0 0 0 1 2 0 0 28 41 56 56 100 39 44 33 73
5 2 7 5 0 0 0 0 0 1 5 84 5 5 0 0 0 0 0 0 0 0 0 0 0 0 13 2 0 12 0 0 0 0 0 0 0 0 0 0 0 0 2 0 81 8 25 99 81
0 0 0 0 0 0 0 0 4 4 6 83 4 5 0 0 0 0 0 0 0 0 0 0 0 0 0 0 0 0 0 0 0 0 21 85 0 0 0 0 0 0 0 0 37 94 0 0 50
0 0 0 0 0 0 0 1 5 5 5 23 2 0 1 0 0 0 0 0 0 0 0 0 0 0 0 0 0 0 0 0 0 57 12 32 14 0 0 0 0 0 0 0 71 4 0 0 6
0 0 0 0 0 0 0 4 5 12 84 32 64 0 4 0 0 0 0 0 0 0 0 0 0 0 0 0 0 0 0 0 0 7 0 0 0 0 0 0 0 0 0 0 0 0 0 0 0
0 0 0 0 0 0 0 1 2 20 5 50 52 70 0 0 0 0 0 0 0 0 0 0 0 0 0 0 0 0 0 0 0 0 0 0 0 0 0 0 0 0 0 0 0 0 0 0 0
0 0 0 0 0 0 0 4 0 5 70 78 86 21 14 0 0 0 0 0 0 0 0 0 0 0 0 0 0 0 0 0 0 0 0 0 0 0 0 2 0 0 0 0 0 0 0 0 0
0 0 0 0 0 0 0 0 5 4 3 23 24 5 1 0 0 0 0 0 0 0 0 0 0 0 0 0 0 1 0 0 0 0 0 0 0 0 0 82 0 0 0 0 0 1 0 4 0
0 0 0 0 0 1 1 0 4 4 0 0 4 0 0 0 0 0 0 0 0 0 0 1 0 0 0 0 0 0 0 0 0 0 0 0 0 0 0 0 0 0 0 0 4 5 5 5 3
0 0 0 0 0 0 0 0 0 0 0 0 1 2 0 0 0 0 0 0 0 0 0 3 0 0 0 0 0 0 0 0 0 0 0 0 0 0 0 19 0 0 0 0 4 5 5 5 4
0 0 0 0 0 1 0 0 0 0 3 0 2 5 3 2 0 0 0 0 0 0 0 0 0 0 0 0 0 0 0 0 0 0 0 0 0 0 0 0 0 0 0 0 0 2 3 5 5
0 0 0 0 0 35 0 1 0 0 3 2 0 5 5 5 0 0 0 0 3 0 0 0 0 0 0 0 0 0 0 0 0 0 0 0 0 6 0 0 0 0 0 0 0 1 0 2 2
0 0 0 0 0 0 0 59 0 1 4 5 56 81 86 5 0 2 5 5 5 4 0 0 0 0 0 0 0 0 0 0 0 0 0 0 0 0 0 0 0 0 0 0 0 0 0 0 0
0 0 0 0 0 0 2 4 5 0 0 5 57 83 8 5 4 5 5 5 50 4 4 0 0 0 0 0 0 0 0 0 0 0 0 0 0 0 0 0 0 0 0 0 0 0 0 0 0
0 0 0 0 0 0 0 0 5 49 3 4 5 2 5 0 4 5 4 2 2 14 5 5 0 0 0 0 0 0 0 0 0 0 0 0 0 0 0 0 0 0 0 0 0 0 0 0 0
0 0 0 0 0 0 0 0 0 0 5 3 0 0 2 5 4 5 5 5 11 92 5 3 10 2 0 0 0 0 0 0 0 0 0 0 0 0 0 0 0 0 0 0 0 0 0 0 0
0 0 0 0 0 0 0 0 0 0 0 0 5 3 0 19 77 0 3 90 63 47 48 5 5 24 0 0 0 0 0 0 0 0 0 0 0 0 0 0 0 0 0 0 0 0 0 0 0

GFSSGP_prec_cloud_033.txt.gz
Cloud_Cover
72 84 66 64 74 90 100 100 100 100 100 100 37 95 93 96 99 99 100 100 100 100 100 49 6 64 19 17 0 0 5 27 5 0 0 0 1 6 16 0 0 0 0 2 3 7 0 28 9
66 46 89 84 98 97 90 43 14 69 100 39 5 11 95 89 80 100 100 88 100 100 93 16 2 1 4 0 0 12 100 10 0 0 0 0 0 3 5 3 0 19 0 2 6 4 0 40 97
48 80 54 44 35 19 100 71 99 99 22 20 33 92 25 78 85 80 88 95 100 58 6 3 0 0 0 0 0 4 4 0 0 0 3 7 2 6 12 2 0 9 0 2 1 6 0 1 9
65 37 41 100 59 5 5 6 45 27 5 5 83 36 94 24 91 70 98 52 97 2 0 0 0 0 0 0 0 0 0 0 1 0 4 0 0 0 12 4 0 0 0 0 0 0 0 5 15
85 26 76 6 8 5 5 15 5 14 16 13 80 50 100 93 100 83 78 67 14 28 11 0 0 0 0 0 0 0 2 0 0 0 0 2 0 0 0 4 0 0 0 0 0 0 5 17 5
56 3 5 23 5 5 42 48 5 5 0 0 5 13 76 93 77 74 73 64 19 13 0 2 0 0 0 0 0 0 0 0 0 0 0 0 0 0 0 0 1 0 0 0 0 0 0 5 4
46 5 13 5 5 1 2 4 5 1 0 0 5 42 80 94 40 44 42 36 25 18 1 0 0 0 0 0 0 0 0 0 0 0 4 4 0 0 0 0 0 0 0 0 0 0 0 0 0
14 28 64 6 5 76 5 5 2 5 4 2 5 14 83 93 27 28 25 55 46 18 1 0 0 0 0 0 0 0 0 2 0 1 3 0 0 0 0 0 0 0 5 1 0 0 0 0 0
29 86 73 28 5 5 5 5 5 0 0 0 5 19 37 43 49 32 35 63 51 20 0 0 0 0 1 0 0 0 0 0 0 0 0 0 0 0 0 0 0 3 1 0 0 0 0 0 0
5 4 5 29 4 5 5 4 5 5 45 91 97 40 54 70 39 14 18 24 28 18 11 0 0 0 0 0 0 0 0 0 0 0 0 0 0 0 0 0 0 2 0 0 0 0 0 0 0
79 5 4 5 2 0 4 50 7 5 3 22 22 68 93 75 21 1 2 0 0 0 0 0 0 0 0 0 0 0 0 0 0 0 0 0 0 0 0 0 0 0 0 0 3 11 50 85 100
11 5 5 5 2 0 5 5 49 19 7 4 38 0 0 0 0 0 0 0 0 2 0 0 0 0 0 0 0 0 0 0 0 0 0 0 0 0 0 0 0 0 19 92 97 96 19 8 23
5 5 4 4 5 1 2 0 3 13 72 1 2 0 0 0 0 0 0 0 0 0 0 0 0 2 0 1 0 0 0 0 0 0 0 0 0 0 0 0 0 0 68 83 2 68 73 70 27
5 5 2 63 5 5 4 0 0 5 5 5 5 5 0 0 0 0 0 0 0 0 0 0 0 0 0 0 0 0 0 0 0 0 0 0 0 0 0 0 22 40 47 36 100 2 86 94 54
5 2 5 5 5 3 0 0 2 4 5 5 5 5 0 0 0 0 0 0 0 0 0 0 0 0 0 0 0 0 0 0 0 0 0 0 0 0 0 0 0 0 0 1 24 97 100 100 100
5 3 0 5 5 0 0 1 5 5 2 0 1 7 0 0 0 0 0 0 0 0 0 0 0 0 0 0 0 0 0 0 0 0 0 0 0 0 0 0 0 0 0 0 0 100 5 0 40
0 0 0 2 0 0 0 3 5 23 8 91 17 0 0 0 0 0 0 0 0 0 0 0 0 0 0 0 0 0 0 0 0 0 0 0 32 0 0 0 0 0 0 0 0 4 0 0 0
0 0 0 0 0 0 4 4 40 5 5 5 5 0 1 1 0 0 0 0 0 0 0 0 0 0 0 0 0 0 0 0 0 0 23 0 0 1 0 0 0 0 0 0 0 0 0 0 0
0 0 0 0 0 0 0 1 5 5 5 4 30 67 1 4 0 0 0 0 0 0 0 0 0 0 0 0 0 0 0 0 0 0 0 0 0 0 0 0 0 0 0 0 0 0 0 0 0
0 0 0 0 0 0 0 1 0 5 5 5 36 93 59 0 0 0 0 0 0 0 0 0 0 0 0 0 0 0 0 0 0 0 0 0 0 0 0 0 0 0 0 0 0 0 0 0 0
0 0 0 0 0 0 0 0 0 4 16 5 4 86 71 0 0 0 0 0 0 0 0 0 1 0 0 0 0 0 0 0 0 0 0 0 0 0 0 0 0 0 0 0 0 0 0 0 0
0 0 0 0 0 0 0 0 0 5 0 11 43 1 1 0 0 0 0 0 0 0 0 0 0 0 0 0 0 0 0 0 0 0 0 0 0 0 0 0 0 0 0 0 0 0 1 0 0
0 0 0 0 0 0 0 0 0 0 0 5 5 0 0 0 0 0 0 0 0 0 0 0 0 0 0 0 0 0 0 0 0 0 0 0 0 0 0 0 0 0 0 0 2 0 3 0 0
0 0 0 0 0 5 4 0 0 0 0 5 0 0 0 0 0 0 0 0 0 0 0 0 0 0 0 0 0 0 0 0 0 0 0 0 0 0 0 0 0 0 0 0 0 2 1 2 0
0 0 0 0 0 30 0 0 0 0 0 5 3 0 3 0 0 0 0 0 0 0 0 0 0 0 0 0 0 0 0 0 0 0 0 0 0 0 0 0 0 0 0 0 0 0 0 0 0
0 0 0 0 0 0 0 0 0 0 0 5 5 0 0 0 0 0 0 0 0 0 0 0 0 0 0 0 0 0 0 0 0 0 0 0 0 0 0 0 0 0 0 0 0 0 0 0 0
0 0 0 0 0 0 0 0 0 0 0 4 0 1 5 5 0 0 0 0 2 4 0 0 0 0 0 0 0 0 0 0 0 0 0 0 0 0 0 0 0 0 0 0 0 0 0 0 0
0 0 0 0 0 0 0 0 0 0 0 5 0 0 3 5 0 0 1 4 5 4 4 0 0 0 0 0 0 0 0 0 0 0 0 0 0 0 0 0 0 0 0 0 0 0 0 0 0
0 0 0 0 0 0 0 0 0 0 0 1 5 0 5 5 3 8 5 5 5 86 69 3 0 0 0 0 0 0 0 0 0 0 0 0 0 0 0 0 0 0 0 0 0 0 0 0 0
0 0 0 0 0 0 0 0 0 0 0 0 0 14 100 45 5 5 5 5 5 2 1 0 4 0 2 5 5 4 0 0 0 0 0 0 0 0 0 0 0 0 0 0 0 0 0 0 0

GFSSGP_prec_cloud_036.txt.gz
Cloud_Cover
36 48 98 89 91 87 100 100 100 100 100 100 72 60 39 96 92 100 100 100 72 100 100 100 49 50 6 6 5 0 0 5 0 8 0 0 2 0 3 0 0 0 2 5 2 5 9 7 5
99 100 84 37 49 95 47 100 100 96 100 100 100 28 85 88 40 78 100 94 92 100 70 44 4 5 0 4 0 0 0 0 0 0 0 5 0 0 0 0 8 0 0 2 0 2 5 5 5
98 84 100 74 50 73 72 58 100 63 18 91 16 40 69 94 65 83 78 73 96 78 100 32 0 0 0 0 0 0 0 0 0 5 5 1 0 0 0 0 0 0 0 0 0 5 5 5 5
82 80 43 99 98 7 64 4 5 40 28 81 61 54 36 97 44 34 68 95 100 100 100 4 0 3 0 0 0 0 0 5 2 3 0 0 1 1 0 0 0 0 0 0 2 5 5 58 13
34 15 99 96 40 52 12 5 35 50 27 32 59 100 80 89 82 80 83 98 86 100 81 1 0 0 0 0 0 1 4 0 3 0 2 1 1 5 0 0 7 0 0 0 0 0 4 4 6
94 5 88 100 21 70 67 13 46 7 3 9 10 59 100 87 49 88 100 100 100 97 37 0 0 0 0 0 1 0 0 0 0 0 9 0 0 0 0 0 0 0 0 0 0 0 0 0 0
11 4 36 61 6 5 7 5 45 5 0 0 0 37 69 98 97 92 100 100 100 62 14 0 0 0 0 2 0 0 0 3 2 5 5 0 0 0 0 0 0 0 0 0 0 0 0 0 0
6 3 4 5 94 3 5 5 5 4 0 0 5 4 79 100 67 78 100 100 100 54 3 0 0 0 0 0 0 0 0 0 5 3 0 0 0 0 0 0 0 0 0 0 0 0 0 0 0
14 5 58 66 98 58 5 1 0 0 0 0 2 1 5 53 81 86 100 100 100 38 1 0 0 0 0 0 0 0 0 2 0 0 0 2 65 83 85 4 0 0 0 0 0 0 0 0 0
6 16 71 52 31 35 5 1 0 0 2 3 4 5 2 16 43 70 84 88 72 31 0 0 0 0 0 0 0 0 0 0 0 41 12 96 24 19 24 2 0 0 0 0 0 0 2 100 89
5 70 3 0 72 60 17 5 5 4 5 4 4 4 91 14 33 45 49 34 13 3 0 0 0 0 0 0 0 0 0 0 0 14 14 44 33 24 81 92 81 87 5 100 76 91 75 76 0
4 5 2 0 0 0 95 59 59 5 0 5 5 2 0 0 7 2 10 1 10 3 0 0 0 0 0 0 0 0 0 0 0 0 0 13 34 11 19 92 53 23 82 1 14 3 2 100 26
5 5 5 0 0 0 0 4 3 4 1 0 0 0 0 0 0 5 1 0 0 0 0 0 3 2 0 0 0 0 0 0 0 0 0 7 34 33 51 19 80 35 2 1 42 9 12 44 76
5 5 4 0 3 3 0 0 0 3 0 3 0 0 0 0 0 0 0 0 0 0 0 0 0 0 0 0 0 0 0 0 0 0 0 0 4 5 30 38 82 53 100 93 0 4 69 52 61
5 5 5 4 5 5 0 3 5 4 3 5 5 0 0 0 0 0 0 0 0 0 0 0 0 0 0 0 0 0 0 0 0 0 0 0 0 1 0 1 45 34 0 0 8 0 10 11 41
4 4 1 84 86 6 0 49 5 7 2 0 2 0 0 0 0 0 0 0 0 0 0 0 0 0 0 0 0 0 0 0 0 0 0 0 0 0 0 76 56 90 1 0 10 6 96 34 12
5 0 1 5 37 3 0 68 5 5 3 12 10 0 0 0 0 0 0 0 0 0 0 0 0 0 0 0 0 0 0 0 0 0 0 0 0 0 0 28 49 0 51 15 19 35 2 0 2
5 0 1 2 0 0 0 4 5 9 4 5 12 4 0 0 0 0 0 0 0 0 0 0 0 0 0 0 1 0 0 0 0 0 0 0 0 0 0 17 2 1 55 66 96 2 0 0 0
0 1 0 0 2 0 0 4 5 5 0 0 0 0 0 0 0 0 0 0 0 0 0 0 0 0 0 0 0 0 0 0 0 0 0 0 0 0 0 6 4 0 7 12 13 1 0 2 0
0 0 0 2 0 0 0 4 5 5 5 0 56 3 14 0 0 0 0 0 0 0 0 0 0 0 3 0 0 0 0 0 0 0 0 0 0 0 0 1 26 12 16 1 5 0 0 0 0
0 0 0 0 0 0 0 0 5 1 5 4 5 6 19 5 0 0 0 0 0 0 0 0 0 0 2 0 0 0 0 0 0 0 0 0 0 0 0 3 14 12 0 42 11 6 0 2 0
0 0 0 0 0 0 0 0 5 5 3 5 3 0 5 1 0 0 0 0 0 0 0 0 0 0 6 0 0 0 0 0 0 0 0 0 0 0 0 0 0 3 17 22 3 6 0 0 0
0 0 0 0 0 0 0 0 0 5 0 2 5 5 0 0 0 0 0 0 0 0 0 0 0 0 0 0 0 0 0 0 0 0 0 0 0 0 0 0 0 0 0 1 0 9 0 0 0
0 0 0 0 0 0 0 0 0 0 0 0 5 5 1 0 0 0 0 0 0 0 0 0 0 0 0 0 0 0 0 0 0 0 0 0 0 0 0 0 0 0 0 1 8 17 6 0 0
0 0 0 0 0 2 3 1 0 0 0 2 4 0 0 0 0 0 0 0 0 0 0 0 0 0 0 0 0 0 0 0 0 0 0 0 0 0 0 0 0 0 0 0 8 23 0 0 0
0 0 0 0 0 0 0 1 0 0 0 5 1 0 0 0 0 0 0 0 0 0 0 0 0 0 0 0 0 0 0 0 0 0 0 0 0 0 0 0 0 0 0 0 8 2 0 0 0
0 0 0 0 0 0 0 0 0 0 0 5 0 0 0 0 0 0 0 0 0 0 0 0 0 0 0 0 0 0 0 0 0 0 0 0 0 0 0 0 0 0 0 0 4 0 0 0 0
0 0 0 0 0 0 0 0 0 0 0 1 0 0 0 0 0 0 0 0 0 0 0 0 0 5 5 0 0 0 0 0 0 0 0 0 0 0 0 0 0 0 0 0 0 0 0 0 0
0 0 0 0 0 0 0 0 0 0 0 0 0 0 0 0 0 0 0 0 0 1 0 0 0 1 1 0 0 0 0 0 0 0 0 0 0 0 0 0 0 0 0 0 0 0 0 0 0
0 0 0 0 0 0 0 0 0 0 0 0 0 0 2 0 2 5 0 2 5 5 0 0 4 0 0 0 0 0 0 0 0 0 0 0 0 0 0 0 0 0 0 0 3 0 0 0 0

GFSSGP_prec_cloud_039.txt.gz
Cloud_Cover
56 93 93 100 100 48 100 98 100 100 100 100 87 100 100 14 98 100 100 100 100 98 100 96 18 4 5 4 0 0 0 0 2 1 0 0 0 0 0 0 0 5 6 3 5 3 5 5 5
43 96 95 82 79 89 100 99 100 100 100 100 100 100 100 100 76 70 94 99 100 86 71 86 5 2 4 13 1 0 0 0 1 0 0 0 0 0 0 0 4 0 8 1 4 3 5 5 5
100 26 96 51 100 100 100 64 100 100 93 100 90 100 62 94 46 84 86 100 100 61 100 13 11 6 4 7 1 0 0 0 0 0 0 0 0 0 0 0 0 0 0 5 20 4 5 9 11
63 74 87 100 100 100 99 100 47 92 100 100 100 30 78 99 91 38 40 98 87 100 95 0 7 0 1 2 0 0 0 0 0 0 1 0 3 4 0 0 0 0 0 0 1 5 5 3 85
100 73 100 60 96 100 90 100 99 31 97 100 25 97 59 100 88 77 47 41 100 92 46 0 5 0 0 0 0 1 0 0 0 5 1 3 4 1 7 2 0 0 0 0 0 0 0 2 3
59 37 100 100 56 59 82 100 100 88 48 17 17 63 56 100 85 93 82 100 100 93 43 15 6 0 0 0 0 0 0 0 4 0 0 2 0 0 0 3 0 0 0 0 0 0 0 0 0
40 100 100 100 99 50 96 91 100 84 5 34 10 58 86 100 100 97 96 100 99 62 75 5 0 0 0 0 0 0 0 0 7 1 0 0 0 0 0 0 0 0 0 0 0 0 0 0 0
34 30 86 52 49 70 52 95 20 88 27 19 3 26 97 100 79 100 100 60 85 100 7 0 0 0 0 0 0 0 0 0 1 0 0 0 0 0 0 0 0 0 0 0 0 0 0 0 0
5 74 63 98 78 69 34 18 28 4 2 0 41 4 18 99 89 100 88 80 100 100 0 0 0 0 0 0 0 0 0 0 0 0 0 0 100 30 34 0 0 0 0 0 0 0 39 40 46
0 91 100 100 93 100 73 31 2 4 12 16 5 3 16 48 100 100 98 100 90 100 19 8 0 0 0 0 0 0 0 0 11 35 0 100 93 56 93 0 0 5 4 2 0 8 0 7 1
0 92 100 52 3 53 86 82 53 65 24 4 2 2 7 36 88 84 100 99 100 85 13 6 1 0 0 25 0 0 0 32 98 81 35 89 95 7 67 7 90 10 58 72 97 87 96 88 27
1 80 100 73 6 46 23 97 95 86 38 5 2 4 0 16 41 85 67 95 78 18 4 0 0 0 0 34 0 8 46 78 83 29 0 41 72 51 94 99 34 80 95 34 21 100 14 40 0
5 47 10 12 1 8 14 63 100 67 5 4 0 0 0 10 36 47 66 39 29 10 3 0 0 0 6 11 2 65 40 7 72 13 0 99 86 73 94 55 96 75 33 67 72 98 7 100 36
12 19 74 1 4 5 7 69 5 86 0 0 0 0 0 1 1 12 18 17 2 0 0 0 0 0 0 0 24 9 0 17 4 18 7 0 73 33 100 91 99 100 91 89 0 6 2 15 77
92 60 6 5 0 4 5 29 5 90 0 0 0 0 0 0 0 0 0 0 0 0 0 0 0 0 0 0 0 0 0 0 0 0 0 4 0 1 6 33 98 99 4 14 72 3 80 100 55
1 15 3 4 4 27 7 77 22 21 1 2 0 0 0 0 0 0 0 0 0 0 0 0 0 0 0 0 0 0 0 0 0 0 1 0 0 8 0 70 84 70 10 67 75 72 90 23 40
0 6 3 73 6 33 10 39 98 5 39 0 0 0 0 0 0 0 0 0 0 0 0 0 0 0 0 0 0 0 0 0 0 0 0 0 0 0 35 100 100 12 46 69 55 27 28 8 34
0 1 5 70 63 56 67 8 100 88 85 5 5 3 0 0 0 0 0 0 0 0 0 0 0 0 0 0 0 0 0 0 0 3 0 0 0 0 0 48 18 3 100 98 39 44 0 0 0
0 5 5 58 100 100 41 81 5 98 85 5 5 0 0 0 0 0 0 0 0 0 0 0 0 0 0 0 0 0 0 0 0 0 0 0 0 0 0 32 92 0 53 35 2 57 2 62 0
0 5 5 7 90 28 100 64 75 98 74 24 0 0 0 0 0 0 0 0 0 0 0 0 0 0 0 0 0 0 0 0 0 0 0 0 2 1 90 0 100 32 99 1 1 0 77 9 0
0 0 2 5 42 20 5 22 99 94 44 97 4 5 3 0 0 0 0 0 0 0 0 0 0 0 0 0 0 0 0 0 0 0 0 0 0 12 100 4 2 99 0 14 6 5 0 99 0
0 0 0 0 7 5 3 5 5 14 31 39 3 3 4 0 4 0 0 0 0 0 0 0 0 0 0 0 0 0 0 0 0 0 0 0 0 0 17 1 0 3 0 90 0 1 12 0 4
0 0 0 0 4 8 24 32 5 99 41 5 6 5 0 0 0 0 0 0 0 0 0 0 0 0 0 0 0 0 0 0 0 0 0 0 4 0 0 19 14 0 0 0 1 6 0 2 5
0 0 0 0 0 0 0 1 4 43 76 97 5 5 5 0 0 0 0 0 0 0 0 0 0 0 0 0 0 0 0 0 0 0 0 0 0 0 0 0 1 0 0 0 0 0 5 0 0
0 0 0 0 0 0 0 0 0 5 5 5 10 31 5 0 0 0 0 0 0 0 0 0 0 0 0 0 0 0 0 0 0 0 0 0 0 0 0 0 0 0 0 0 0 0 0 2 0
0 0 0 0 0 0 0 0 2 0 5 5 5 67 5 4 0 0 0 0 0 0 0 0 0 0 5 0 0 0 0 0 0 0 0 0 0 0 7 0 0 0 2 0 0 0 0 0 1
0 0 0 0 0 0 0 0 0 0 0 0 1 5 5 5 0 0 0 0 0 0 0 0 0 0 2 1 0 0 0 0 0 0 0 0 0 0 0 0 0 0 0 0 0 0 0 0 0
0 0 0 0 0 0 0 0 0 0 0 0 0 0 0 5 0 0 0 0 0 0 0 0 0 0 2 5 0 0 0 0 0 0 0 0 0 0 4 0 0 0 0 0 0 0 0 0 0
0 0 0 0 0 0 0 0 0 0 0 0 1 1 0 0 0 0 0 0 0 0 0 0 0 0 4 5 4 0 0 0 0 0 0 0 0 0 0 0 0 0 0 0 0 0 0 0 0
0 0 0 0 0 0 0 0 0 0 0 0 5 5 1 0 4 0 0 0 0 0 0 0 0 0 2 5 5 0 0 0 0 0 0 0 0 0 0 0 0 0 0 0 0 0 0 0 0

GFSSGP_prec_cloud_042.txt.gz
Cloud_Cover
97 4 89 86 100 72 100 98 100 99 100 100 94 100 100 100 100 100 87 98 100 46 48 6 5 5 5 0 0 0 0 0 0 0 0 0 0 0 0 0 0 5 5 5 5 0 5 5 8
67 64 88 72 100 100 100 67 100 100 94 48 75 81 38 22 96 83 73 66 5 5 5 7 1 4 5 0 0 0 0 0 0 0 0 0 2 1 11 10 9 14 2 5 2 5 5 5 6
98 99 98 100 100 100 83 80 100 100 64 100 89 77 17 52 22 86 88 78 72 21 5 5 39 6 9 0 0 0 0 0 0 0 0 0 2 2 0 6 2 3 4 0 0 0 4 3 9
11 14 67 98 100 82 100 81 100 51 82 69 42 75 12 9 83 29 97 100 92 77 13 16 16 7 1 0 0 0 0 0 0 0 0 0 2 0 0 0 0 0 0 4 2 4 4 83 92
98 88 100 100 100 100 100 22 95 36 55 100 47 65 24 32 10 38 51 74 66 100 23 5 5 5 0 0 0 0 0 0 1 0 0 0 0 4 0 0 0 0 0 0 0 0 1 4 0
70 97 99 100 100 100 100 76 100 100 20 90 40 24 100 91 43 12 37 8 100 100 5 12 4 2 0 0 0 0 0 3 13 0 0 0 0 0 2 0 0 0 0 0 0 0 0 0 0
41 100 100 100 100 100 80 50 100 9 96 73 32 45 100 98 60 4 11 5 18 78 1 7 12 0 0 0 0 0 0 0 10 0 0 0 0 0 0 0 0 0 0 0 0 0 0 0 0
90 100 100 100 100 100 21 55 98 19 11 0 0 16 100 21 23 5 46 5 28 100 5 1 0 4 0 0 0 0 0 0 0 0 4 0 0 0 0 0 0 0 0 0 40 31 6 71 0
36 96 64 100 100 100 64 60 100 34 10 97 9 4 33 89 92 41 40 97 98 89 0 0 0 0 0 0 0 0 0 0 1 100 100 5 0 0 3 0 5 1 0 5 0 0 2 0 14
36 100 100 80 84 100 100 48 0 5 30 84 58 81 72 98 94 99 86 20 9 100 0 0 0 0 0 0 0 0 0 0 52 100 100 0 46 39 8 39 100 100 1 9 97 1 58 18 1
37 56 78 100 100 100 91 18 50 3 18 11 5 38 78 100 100 100 4 97 100 93 0 0 0 0 0 0 0 0 0 3 100 100 93 100 76 79 100 96 100 100 19 32 60 47 95 54 98
37 95 56 100 95 100 100 100 92 74 94 50 5 6 5 32 100 92 12 96 0 26 10 1 0 0 29 0 0 0 0 98 3 31 33 58 23 100 94 60 100 95 68 40 69 17 1 0 43
70 57 100 100 96 22 76 97 100 100 100 4 0 4 29 19 59 32 74 42 0 16 60 35 0 0 40 99 0 12 56 11 96 0 0 26 28 90 76 100 58 38 31 97 48 73 24 100 30
65 13 58 96 57 74 7 16 17 56 40 0 0 0 9 24 0 0 11 0 38 63 77 3 0 0 0 0 12 100 11 27 95 56 0 0 84 43 99 69 82 51 16 15 5 23 59 42 53
46 100 33 82 56 93 9 99 5 70 100 5 0 0 0 2 43 20 0 0 22 20 0 51 0 0 0 0 0 7 4 94 0 96 0 0 1 11 0 84 71 100 0 0 98 0 36 70 34
49 91 14 44 26 5 6 47 100 14 39 0 0 0 0 0 0 14 30 0 55 4 0 0 0 0 0 0 0 0 0 11 99 16 0 0 0 92 100 92 67 91 50 12 10 100 36 29 4
2 10 45 95 38 30 4 25 10 87 97 0 0 3 0 0 0 0 0 28 0 0 0 0 0 0 0 0 0 0 0 0 1 13 11 0 0 6 99 100 100 5 45 95 40 59 99 9 82
41 4 40 5 42 6 74 5 74 44 94 96 0 0 0 0 0 0 0 0 0 0 0 0 0 0 0 0 0 0 0 0 0 1 4 0 0 0 5 76 29 56 100 21 38 33 0 0 27
10 5 5 28 38 99 55 36 15 16 44 99 2 72 0 0 0 0 0 0 0 0 0 0 0 0 0 0 0 0 0 0 0 0 0 0 0 0 0 3 89 1 0 4 0 64 30 0 0
5 4 5 7 98 82 79 39 60 68 74 82 4 59 0 28 0 0 0 0 0 0 0 0 0 0 0 0 0 0 0 0 0 0 0 0 6 5 0 77 1 93 53 3 0 0 4 25 0
3 3 1 14 100 100 100 55 100 68 56 100 82 3 0 0 0 0 0 0 0 0 0 0 0 0 0 0 0 0 0 0 0 0 0 0 1 95 0 53 3 35 2 4 1 0 29 61 0
0 0 0 76 100 95 56 96 30 2 92 9 16 32 18 0 0 1 0 0 0 0 0 0 0 0 0 0 0 0 0 0 0 0 0 0 0 1 0 0 1 0 10 0 0 0 0 0 0
0 0 0 23 100 100 100 77 54 16 26 32 5 0 89 1 0 0 0 0 0 0 0 0 0 0 0 0 0 0 0 0 0 0 0 0 3 0 0 0 2 0 0 4 0 0 0 0 0
0 0 0 0 5 4 5 98 60 12 11 73 70 55 6 7 0 0 0 0 0 0 0 0 0 0 0 0 0 0 0 0 0 0 0 0 0 0 0 0 18 0 0 0 0 0 0 0 0
0 0 0 0 0 0 0 9 2 85 100 85 46 5 36 17 0 0 0 0 0 0 0 0 0 0 0 0 0 0 0 0 0 0 0 0 0 0 0 0 0 0 0 0 0 0 0 0 0
0 0 0 0 0 0 0 0 0 0 56 100 100 26 5 5 5 0 0 0 0 0 0 0 0 0 0 0 0 0 0 0 0 0 0 0 0 0 0 0 0 0 0 0 0 0 0 0 0
0 0 0 0 0 0 0 0 0 0 0 39 100 100 87 5 5 0 0 0 0 0 0 0 0 0 0 0 0 0 0 0 0 0 0 0 0 0 0 0 0 0 0 0 0 0 0 0 0
0 0 0 0 0 0 0 0 0 0 0 2 6 100 98 7 7 2 0 0 0 0 0 0 0 0 0 0 0 0 0 0 0 0 0 0 0 0 0 0 0 0 0 0 0 0 0 0 0
0 0 0 0 0 0 0 5 0 0 0 0 0 0 4 82 14 5 0 0 0 0 0 0 0 0 0 0 0 0 0 0 0 0 0 0 0 0 0 0 0 0 0 0 0 0 0 0 0
0 0 0 0 0 0 0 84 9 0 0 0 0 0 0 90 75 5 0 0 0 0 0 0 0 0 0 0 0 0 1 0 0 0 0 0 0 0 0 0 0 0 0 0 0 0 0 0 0

GFSSGP_prec_cloud_045.txt.gz
Cloud_Cover
76 58 35 100 91 98 70 95 99 88 100 90 42 84 78 97 83 98 86 53 100 45 2 1 0 3 69 5 0 0 8 0 0 0 0 0 0 0 0 0 6 1 3 5 1 1 0 1 1
50 19 96 58 100 100 73 96 100 57 96 30 75 33 100 91 93 98 22 93 5 4 4 0 0 4 32 4 0 6 0 0 0 0 0 0 0 0 0 10 8 1 5 5 0 0 4 20 9
5 74 80 100 100 100 98 100 100 100 97 47 13 5 58 100 100 64 32 67 5 17 0 5 5 3 5 0 0 0 0 0 0 0 1 3 0 0 0 0 0 0 3 6 0 0 5 5 11
7 92 100 100 100 100 100 100 100 100 98 30 5 5 22 42 100 52 97 68 20 0 2 5 4 4 5 0 0 0 0 0 0 0 4 5 3 0 0 2 0 0 0 0 0 0 5 99 100
27 100 94 98 100 100 100 78 100 100 92 5 6 10 70 98 97 100 75 67 0 5 5 5 3 4 1 0 0 0 0 0 0 0 10 0 6 0 11 0 0 0 0 0 0 0 2 0 0
76 99 100 100 100 100 100 100 100 100 98 36 5 7 54 5 8 5 83 5 4 0 1 4 11 2 0 0 0 0 0 0 0 0 0 0 0 0 0 0 0 0 0 0 0 0 0 0 0
100 99 100 100 100 100 100 100 100 100 72 6 3 33 58 2 5 11 3 16 0 5 0 0 2 0 0 0 0 0 0 6 4 0 0 0 0 0 0 0 0 0 0 2 2 0 1 0 0
96 100 100 100 100 100 100 100 100 74 2 0 4 14 63 2 4 5 5 100 0 0 0 0 0 0 0 0 1 0 0 17 85 4 0 0 1 33 4 0 5 13 1 0 2 0 0 0 0
88 99 100 100 100 100 100 86 40 91 0 0 0 2 4 4 5 1 0 10 26 0 0 0 0 0 0 0 0 0 1 100 77 1 23 19 96 50 39 1 54 98 5 0 0 0 4 0 0
99 42 80 100 77 100 100 100 0 0 0 0 0 15 4 5 5 0 0 0 0 0 0 0 0 0 0 0 0 0 5 98 100 100 60 100 100 100 100 74 0 0 1 3 0 14 19 85 0
27 54 94 88 100 100 100 100 100 14 1 0 0 0 1 5 4 0 0 0 0 0 0 0 0 0 0 0 0 0 5 6 77 97 100 100 100 100 16 39 2 0 3 58 2 58 21 1 2
65 100 100 100 94 99 44 28 100 55 3 5 2 3 4 60 0 0 0 1 69 0 0 0 0 0 0 0 0 0 0 5 100 100 100 100 83 91 1 100 14 70 7 5 5 0 1 45 6
16 100 100 99 100 100 78 14 61 95 30 6 3 0 2 32 0 0 75 0 2 0 0 0 0 0 0 0 0 0 0 1 72 23 5 12 14 2 19 52 4 8 63 0 49 37 47 16 30
0 17 91 94 100 47 60 8 5 80 22 46 44 35 9 0 47 15 17 10 5 0 0 0 0 0 0 0 0 0 0 99 24 49 100 94 31 10 11 4 7 68 0 0 0 37 82 97 22
2 98 99 57 92 100 100 11 5 1 24 35 100 9 0 0 0 1 0 0 0 0 0 0 0 0 0 25 0 0 0 11 100 78 13 2 4 4 1 6 33 16 9 0 1 23 1 0 0
0 84 98 92 100 84 32 45 17 10 23 24 3 0 0 0 0 0 0 0 0 0 0 0 0 0 0 0 0 1 0 46 39 0 28 3 47 90 13 1 19 5 0 41 36 2 68 29 42
0 10 76 96 97 87 31 74 57 84 7 3 1 1 0 0 0 0 0 0 0 2 0 0 0 0 0 0 0 0 0 1 65 99 27 71 72 92 44 10 3 0 36 42 0 23 7 13 93
0 5 39 3 22 98 12 3 5 93 14 4 6 86 4 0 0 0 0 0 0 3 0 0 0 0 0 0 0 0 0 0 0 17 5 27 100 72 9 0 0 12 6 52 56 50 13 32 29
0 0 4 0 82 22 0 4 63 10 23 78 100 100 23 4 0 0 0 0 0 0 0 0 0 0 0 0 0 0 0 0 0 0 0 0 10 73 2 0 6 3 0 0 0 14 0 0 0
0 4 23 2 5 100 98 6 100 53 0 72 100 100 100 8 0 0 0 0 0 0 0 0 0 0 0 0 0 0 0 0 0 0 0 5 4 46 98 8 1 2 2 0 0 0 0 0 0
0 0 1 0 9 100 56 73 84 99 100 98 100 100 76 38 1 0 0 0 0 0 0 0 0 0 0 0 0 0 0 0 0 0 0 5 22 22 39 20 0 0 1 0 8 0 0 11 0
0 0 0 0 71 97 43 37 68 82 69 94 75 29 100 11 0 0 0 0 0 0 0 0 0 0 0 0 0 0 0 0 0 0 0 0 97 1 0 1 0 0 0 0 0 0 0 0 0
0 0 0 0 75 100 82 61 84 65 17 29 0 52 5 40 4 0 0 0 0 0 0 0 0 0 0 0 0 0 0 0 0 0 0 0 0 0 0 0 0 0 0 0 0 0 0 0 0
0 0 0 0 87 78 6 100 5 72 3 0 0 4 1 79 100 33 0 0 0 0 0 0 0 0 0 0 0 0 0 0 0 0 0 0 0 0 0 0 5 0 0 0 0 0 0 0 0
0 0 1 0 15 10 9 98 5 48 2 78 20 5 1 83 100 88 0 0 0 0 0 0 0 0 0 0 0 0 0 0 0 0 0 0 0 0 0 0 0 0 0 0 0 0 0 0 0
0 0 0 0 0 0 0 2 0 1 45 99 99 6 29 5 6 3 0 0 0 0 0 0 0 0 0 0 0 0 0 0 0 0 0 0 0 0 0 0 0 0 0 0 0 0 0 0 0
0 0 0 0 0 0 0 0 0 0 1 47 93 100 7 4 0 0 0 0 0 0 0 0 0 0 0 0 0 0 0 0 0 0 0 0 0 0 0 0 0 0 0 0 0 0 0 0 0
0 0 0 0 0 0 0 0 0 0 0 2 1 18 53 26 0 0 0 0 0 0 0 0 0 0 0 0 0 0 0 0 0 0 0 0 0 0 0 0 0 0 0 0 0 0 0 0 0
0 0 0 0 0 0 0 0 0 0 0 0 0 4 67 70 1 0 0 0 0 0 0 0 0 0 0 0 0 0 0 0 0 0 0 0 0 0 0 0 0 0 0 0 0 0 0 0 0
0 0 0 0 0 0 0 0 0 0 0 0 0 0 2 7 5 0 0 0 0 0 0 0 0 0 0 0 0 0 0 0 0 0 0 0 0 0 0 0 0 0 0 0 0 0 0 0 0

GFSSGP_prec_cloud_051.txt.gz
Cloud_Cover
25 51 33 97 94 86 70 100 100 100 100 100 100 100 100 100 100 98 100 72 29 4 3 5 4 12 1 5 0 0 0 1 0 0 0 0 0 0 0 11 7 5 2 0 2 0 0 3 0
11 52 78 71 100 87 92 100 100 100 100 100 100 100 100 100 100 100 94 97 5 4 6 2 8 5 2 0 0 0 0 0 3 5 0 0 3 2 2 0 3 5 0 0 5 8 21 3 5
5 70 86 100 95 100 100 100 100 100 100 100 100 100 100 100 100 100 43 60 14 5 5 5 10 2 0 0 0 0 1 0 0 0 0 0 2 2 1 1 0 1 3 2 50 81 13 1 2
14 68 100 99 100 100 82 100 100 100 100 100 100 100 100 100 100 47 28 26 69 31 0 5 3 0 1 0 0 4 1 0 1 0 0 0 0 0 0 0 0 0 2 4 0 1 1 0 0
91 74 94 100 100 100 100 100 100 100 100 84 100 100 100 100 100 44 22 48 36 7 1 5 2 0 6 0 0 1 0 0 10 4 0 2 18 69 1 16 0 0 1 4 1 0 0 0 4
91 9 21 100 100 100 99 100 100 100 100 100 100 100 100 100 55 54 70 42 13 20 4 0 0 0 0 41 0 0 0 3 6 33 1 0 6 11 1 0 1 0 0 0 0 1 4 0 1
61 8 47 99 98 84 95 100 100 100 100 100 100 100 100 46 5 12 21 35 0 6 0 0 0 0 0 0 4 2 0 5 100 100 100 5 5 9 0 0 0 0 0 0 19 5 0 0 0
10 60 44 95 99 97 96 100 100 100 100 100 100 100 100 18 8 1 26 45 30 8 1 3 0 0 0 3 8 5 0 5 100 100 100 81 9 48 0 0 0 0 0 0 18 8 5 2 0
30 9 20 89 100 89 98 87 100 100 98 6 100 9 41 58 6 20 63 76 96 67 31 3 0 0 0 0 23 6 30 100 100 100 100 82 1 16 0 0 0 0 0 0 0 0 0 1 8
28 26 21 69 66 100 100 100 95 99 23 76 28 4 1 5 53 72 100 100 100 100 64 12 13 8 0 9 95 21 100 100 90 81 86 89 12 0 0 0 0 1 0 0 0 0 0 0 0
6 5 6 33 94 100 100 98 100 63 52 4 6 0 0 23 37 79 100 82 57 87 75 12 13 8 1 21 94 54 15 42 25 2 5 3 5 1 0 0 0 0 0 0 0 34 8 0 57
5 5 6 5 14 39 100 100 97 43 14 0 0 0 0 10 22 5 61 40 34 52 32 0 0 4 0 6 21 13 6 40 5 1 0 24 5 4 0 0 0 0 0 0 0 0 0 0 0
5 11 26 6 5 31 5 44 32 4 0 0 0 0 0 0 9 14 0 0 0 0 0 0 0 0 0 5 11 5 2 5 0 1 0 0 0 0 0 0 0 0 0 0 0 0 0 0 0
45 86 100 7 18 95 12 16 5 2 0 2 2 0 0 0 0 0 0 0 0 0 0 0 0 0 0 0 12 51 5 2 0 2 0 0 0 0 2 4 0 0 0 0 0 18 2 54 7
3 4 4 4 15 96 45 7 9 5 5 5 5 0 0 0 0 0 0 0 0 0 0 0 0 0 0 0 5 6 5 4 0 0 0 0 0 0 5 0 0 0 0 0 0 19 94 6 4
5 2 0 0 4 84 59 12 5 4 5 5 5 0 0 0 0 0 0 0 0 0 0 0 0 0 0 0 5 2 5 0 0 0 0 0 0 0 0 0 0 0 0 0 0 0 0 0 0
0 0 0 2 3 77 45 64 0 1 5 2 0 3 0 0 0 0 0 0 0 0 0 0 0 0 0 0 0 5 0 2 1 1 0 0 0 0 0 0 0 0 0 0 0 0 0 21 8
0 0 0 0 1 5 19 7 41 5 5 1 5 3 5 0 0 0 0 0 0 0 0 0 0 0 0 0 0 0 0 5 5 2 5 0 0 0 0 0 0 0 0 8 44 5 0 35 89
0 0 0 0 0 3 0 5 5 34 0 0 5 5 5 1 0 0 0 0 0 0 0 0 0 0 0 0 0 0 5 11 8 5 5 24 0 1 5 5 10 0 0 0 0 0 0 3 0
0 0 0 0 5 3 54 4 4 0 0 2 2 65 56 5 5 4 0 0 0 0 0 0 0 0 0 0 0 0 6 45 42 40 93 5 2 3 5 8 43 1 0 0 0 0 0 0 9
0 0 0 0 3 5 15 95 4 0 2 32 5 76 72 52 5 0 0 0 0 0 0 0 0 0 0 0 0 0 2 1 5 28 100 7 5 11 16 4 4 0 0 0 0 0 0 0 0
0 0 0 0 2 69 4 7 2 2 3 0 2 5 70 94 21 41 5 0 0 0 0 0 0 0 0 0 0 0 0 0 0 3 1 9 61 49 14 7 4 4 0 0 0 0 0 0 0
0 0 0 0 0 5 61 47 5 2 0 0 5 1 5 42 93 5 5 5 0 0 0 0 0 0 0 0 0 0 0 0 0 0 0 75 39 5 0 0 0 2 0 0 0 0 0 0 0
0 0 0 0 0 5 25 100 2 4 0 0 3 0 2 15 91 49 45 67 1 0 0 0 0 0 0 0 0 0 0 0 0 0 0 5 4 2 0 0 0 0 0 0 0 0 0 0 0
0 0 0 0 2 0 2 77 0 2 0 0 0 0 75 5 83 100 89 29 5 1 0 0 0 0 0 0 0 0 0 0 0 0 0 1 1 0 0 0 0 0 0 0 0 0 0 0 0
0 0 0 0 0 0 0 2 3 0 0 0 2 0 5 43 96 50 100 96 5 2 0 0 0 0 0 0 0 0 0 0 0 0 0 0 0 0 0 0 0 0 0 0 0 0 0 0 0
0 0 0 0 0 4 0 0 0 0 0 3 0 0 1 78 63 46 94 39 5 5 2 0 0 0 0 0 0 0 0 0 0 0 0 0 0 0 0 0 0 0 0 0 0 1 0 0 0
0 0 0 0 0 0 0 0 0 0 0 0 0 0 1 89 94 32 47 58 50 10 55 0 0 0 0 0 0 0 0 0 0 0 0 0 0 0 0 0 0 0 0 0 0 2 0 0 0
0 0 0 0 0 0 0 0 0 0 5 0 0 0 0 6 99 11 97 4 54 96 5 5 0 0 0 0 0 0 0 0 0 0 0 0 0 0 0 0 0 0 0 0 0 0 0 0 0
0 0 1 0 0 0 0 0 0 0 8 5 0 0 0 0 4 59 30 94 8 92 24 4 0 0 0 0 0 0 0 0 0 0 0 0 0 0 0 0 0 0 0 0 0 0 0 0 3

GFSSGP_prec_cloud_054.txt.gz
Cloud_Cover
100 100 100 100 100 98 78 96 100 100 100 100 100 100 100 100 100 100 100 100 10 6 0 0 5 5 0 0 0 6 0 0 0 1 2 4 4 1 70 4 80 5 1 1 5 5 10 4 5
36 9 94 92 100 39 55 94 100 100 100 100 100 100 100 100 100 100 100 100 5 6 0 0 5 3 0 0 0 5 1 2 3 0 0 1 3 2 30 2 7 0 27 23 62 100 91 5 28
5 86 90 99 100 73 100 96 82 87 100 100 100 100 100 100 100 100 100 16 14 17 0 1 5 3 0 1 0 0 0 4 2 0 0 0 6 9 0 0 0 8 88 51 58 91 100 17 82
24 100 82 60 74 100 100 100 100 90 96 96 96 100 100 100 100 100 47 28 35 13 0 11 5 0 0 0 9 0 5 22 2 11 0 3 1 13 0 30 6 6 100 98 10 5 4 0 1
53 58 53 98 98 92 92 100 100 100 100 100 100 100 100 100 100 44 46 32 54 12 2 2 0 18 0 0 27 0 5 9 50 0 2 18 100 99 94 100 69 7 13 4 2 5 5 1 4
97 33 58 80 90 75 64 96 100 100 100 100 100 100 100 100 65 50 38 40 32 2 0 6 0 10 0 0 6 0 3 17 96 4 3 0 2 0 0 2 0 0 0 2 5 2 0 2 2
61 18 25 23 98 100 100 100 100 99 100 100 72 100 100 99 25 35 37 35 15 0 5 0 0 0 32 2 8 0 4 5 32 83 1 0 0 0 0 0 0 4 2 5 5 2 0 0 0
39 9 68 37 37 80 77 56 100 100 100 56 60 81 100 83 42 16 36 38 24 15 13 0 0 0 0 0 4 0 4 8 11 8 0 7 7 1 0 5 0 0 0 0 0 0 0 0 3
99 10 21 60 80 99 99 99 100 100 96 99 98 100 6 7 75 56 50 9 15 31 29 9 1 0 0 0 4 5 85 100 100 55 0 0 0 0 0 5 0 0 0 0 1 0 0 0 0
97 8 9 90 72 99 100 100 100 100 99 100 93 27 32 44 83 85 99 92 36 39 70 22 14 12 1 5 6 44 5 71 90 5 5 3 0 0 4 1 0 0 1 0 0 0 0 0 0
48 19 5 12 81 91 68 88 38 10 18 85 38 93 100 45 75 94 100 100 100 99 53 27 24 15 6 5 2 10 4 4 16 7 0 0 0 0 0 0 0 0 0 0 0 0 0 0 0
7 5 17 7 52 98 100 22 92 29 52 52 21 98 14 25 63 88 100 100 100 100 90 30 21 27 12 5 14 5 3 1 0 0 0 0 3 6 2 0 0 0 0 1 0 0 0 0 0
5 5 12 10 73 61 100 100 100 76 83 5 62 33 9 0 55 96 98 47 98 100 85 31 18 21 18 2 22 11 4 5 5 0 4 0 0 0 0 0 0 0 0 0 0 0 0 0 74
5 22 5 5 12 6 7 22 67 9 24 2 0 7 13 0 9 93 99 39 59 57 32 8 4 5 5 7 7 9 0 0 0 0 0 0 0 4 5 1 0 0 0 0 0 0 0 0 0
5 6 5 5 10 5 5 69 3 13 1 0 0 6 7 1 5 15 20 1 0 0 0 0 0 0 0 4 4 0 0 0 0 0 0 0 0 0 0 0 0 0 0 2 0 12 84 45 12
5 5 79 10 4 60 84 55 5 23 5 0 0 0 5 0 0 0 0 0 0 0 0 0 0 0 0 5 1 0 0 0 0 0 0 0 0 0 0 0 0 0 0 0 0 33 0 0 0
4 0 4 16 4 1 5 68 0 4 5 0 0 0 0 0 0 0 0 0 0 0 0 0 0 0 0 5 4 0 0 0 0 0 0 0 0 0 0 0 0 0 0 0 0 0 0 2 0
0 0 0 3 2 5 17 21 0 5 5 4 0 1 4 0 0 0 0 0 0 0 0 0 0 0 0 0 0 0 0 0 0 0 0 0 0 0 0 1 0 0 0 0 0 0 0 73 99
0 0 0 0 4 5 35 82 7 3 0 5 0 5 5 5 0 0 0 0 0 0 0 0 0 0 0 0 0 0 0 0 0 0 0 0 0 5 3 0 0 0 0 0 0 0 0 0 0
0 0 0 0 5 4 0 28 6 13 2 5 5 5 5 2 4 5 0 0 0 0 0 0 0 0 0 0 0 0 0 0 5 5 1 0 0 2 0 2 0 0 0 0 0 0 0 0 0
0 0 0 0 3 5 0 1 5 3 0 2 0 5 4 5 1 0 0 0 0 0 0 0 0 0 0 0 0 1 5 5 5 13 68 0 0 2 0 0 0 0 0 0 0 0 0 0 0
0 0 0 0 0 1 2 0 5 3 3 0 0 1 5 5 5 5 4 0 0 0 0 0 0 0 0 0 0 0 3 12 12 35 40 0 0 2 5 0 0 0 0 0 0 0 0 0 0
0 0 0 0 0 0 16 11 5 5 24 0 0 0 3 5 5 36 21 4 0 0 0 0 0 0 0 0 0 0 0 2 4 5 3 0 0 2 0 0 0 0 0 0 0 0 0 0 0
0 0 0 0 0 68 1 93 0 0 0 0 0 0 5 5 5 92 6 3 5 5 0 0 0 0 0 0 0 0 0 0 0 0 0 1 3 0 0 0 0 0 0 0 1 0 0 0 0
0 0 0 0 0 2 0 45 0 0 0 0 0 1 8 35 34 76 6 5 2 3 4 0 0 0 0 0 0 0 0 0 0 0 0 0 0 0 0 0 0 0 0 0 0 0 0 0 0
0 0 0 0 0 0 0 1 0 0 0 3 5 0 54 75 46 34 5 5 0 2 5 2 0 0 0 0 0 0 0 0 0 0 0 0 0 0 0 0 0 0 0 0 0 0 0 0 0
0 0 0 0 0 0 0 0 0 0 0 5 95 2 2 5 57 43 71 12 4 60 10 1 0 0 0 0 0 0 0 0 0 0 0 0 0 0 0 0 0 0 0 0 0 0 0 0 0
0 0 0 0 0 0 0 0 0 0 0 0 2 0 0 5 5 85 32 98 4 28 100 69 5 0 0 0 0 0 0 0 0 0 0 0 0 0 0 0 0 0 0 0 0 0 0 0 0
0 1 0 0 0 0 0 0 0 0 0 2 100 48 1 0 4 55 5 74 2 1 3 5 14 59 0 0 0 0 0 0 0 0 0 0 0 0 0 0 0 0 0 0 0 0 0 0 0
5 4 0 0 0 0 0 0 0 0 0 0 0 100 79 0 5 35 2 78 5 1 10 93 56 100 21 0 0 0 0 0 0 0 0 0 0 0 0 0 0 0 0 0 0 0 0 0 5

GFSSGP_prec_cloud_057.txt.gz
Cloud_Cover
100 53 100 97 100 83 21 67 60 98 100 100 100 100 100 100 100 100 100 100 49 22 19 0 0 5 3 0 0 0 5 5 11 5 2 12 31 100 8 4 4 0 2 7 9 12 18 8 6
97 72 92 97 92 34 58 93 100 100 99 99 100 92 84 100 100 100 100 19 35 5 26 0 2 10 0 5 2 4 0 0 1 11 1 10 58 7 3 1 6 65 67 73 93 100 94 26 5
55 70 100 76 65 53 98 50 74 67 100 100 56 100 98 99 100 100 100 5 30 9 19 4 27 0 0 6 9 1 3 2 7 2 1 4 3 6 2 11 100 100 100 63 12 5 5 1 5
59 74 76 92 100 90 100 69 100 97 69 100 100 97 43 78 85 100 52 4 4 9 5 0 1 0 4 9 0 12 5 4 0 0 0 0 1 7 5 100 98 100 34 6 6 10 5 5 22
67 35 56 76 100 100 72 100 77 45 100 70 95 100 100 100 100 96 30 5 0 0 4 0 0 0 1 16 0 4 11 9 4 0 0 0 14 0 66 35 4 0 0 5 5 0 0 11 63
93 23 36 100 93 100 42 98 99 97 81 98 100 100 98 97 91 76 18 5 0 0 0 0 13 0 0 10 0 15 6 12 10 0 0 8 0 0 45 3 6 0 0 0 1 1 1 0 0
100 8 5 50 34 34 86 94 100 99 100 100 99 63 96 66 75 66 22 11 0 0 0 0 39 0 0 18 0 8 9 5 0 0 0 0 0 2 52 1 0 0 0 0 0 0 0 2 5
35 5 29 74 64 68 71 100 98 93 96 94 22 42 80 73 87 62 52 28 0 0 0 0 22 0 0 0 6 3 1 8 9 4 0 0 0 0 5 2 5 0 0 0 0 1 0 23 52
99 18 5 52 45 47 87 78 93 67 100 73 50 5 5 82 100 54 86 63 0 0 0 0 5 4 4 5 1 15 2 2 5 0 0 0 0 0 0 5 4 0 0 0 0 0 0 0 0
54 26 5 40 34 70 98 72 51 100 59 54 16 26 27 99 83 25 26 10 0 0 0 0 0 0 2 0 9 32 26 2 4 1 0 0 0 0 2 1 0 0 0 0 0 0 0 0 0
34 13 6 7 11 66 50 93 100 42 5 40 75 94 84 54 75 4 0 0 0 0 0 0 0 1 1 8 22 17 12 0 0 0 0 0 0 0 0 0 0 0 0 0 0 0 0 0 0
19 5 42 5 5 41 85 90 99 75 85 80 30 70 9 34 15 8 0 0 0 0 0 0 0 0 0 2 0 0 0 0 0 0 0 0 0 0 0 0 0 0 0 0 0 0 0 0 0
5 5 29 5 8 30 15 98 85 100 84 100 24 26 13 27 21 30 0 0 1 4 67 0 0 5 1 9 0 0 0 0 0 0 0 0 0 0 0 0 0 0 0 0 0 0 0 47 2
5 5 5 30 41 5 5 25 64 100 87 92 1 1 6 12 69 10 0 0 8 73 1 0 0 0 0 0 1 0 0 0 0 0 0 0 3 3 0 0 0 0 0 0 0 0 0 0 10
5 4 1 5 5 12 30 5 8 100 23 22 28 21 5 17 0 0 0 0 1 12 0 0 0 0 0 0 0 0 0 0 0 0 0 0 0 0 0 0 0 0 0 0 0 0 0 0 0
0 3 4 5 5 5 7 43 5 5 32 8 31 40 3 1 0 0 0 0 0 0 0 0 0 0 0 0 0 0 0 0 0 0 0 0 0 0 0 0 0 0 0 0 2 84 0 0 0
0 0 3 0 5 5 87 86 5 5 6 1 9 17 0 0 0 0 0 0 0 0 0 0 0 0 0 0 0 0 0 0 0 0 0 0 0 0 0 0 0 0 0 0 0 0 0 0 0
0 0 0 3 3 2 5 15 5 4 2 1 0 2 0 0 0 0 0 0 0 0 0 0 0 0 0 0 0 0 0 0 0 0 0 0 0 0 0 0 0 0 4 2 0 0 0 27 73
0 0 0 20 32 4 2 5 5 5 92 8 0 5 5 0 0 0 0 0 0 0 0 0 0 0 0 0 0 0 0 0 0 0 0 0 0 0 0 0 0 0 0 0 0 0 0 8 98
0 0 0 4 25 4 2 5 5 9 73 6 5 5 5 0 0 0 0 0 0 0 0 0 0 0 0 0 0 0 0 0 0 0 0 0 0 0 0 0 0 0 0 0 0 0 0 0 0
0 0 0 0 4 5 0 29 5 64 53 5 2 3 3 5 4 1 0 0 0 0 0 0 0 0 0 0 0 0 0 0 3 0 0 0 0 4 0 0 0 0 2 0 0 0 0 0 0
0 0 0 0 1 5 5 0 5 68 100 7 3 0 1 0 0 0 0 0 0 0 0 0 0 0 0 0 0 0 0 0 2 5 68 0 0 4 1 0 0 0 2 0 0 0 0 0 0
0 0 0 0 0 2 5 16 0 0 4 13 3 0 0 2 0 1 0 0 0 0 0 0 0 0 0 0 0 0 0 0 0 4 15 5 0 2 1 0 0 0 0 0 0 0 0 0 0
0 0 0 0 0 0 0 2 0 0 0 5 5 0 0 5 5 5 0 0 4 0 0 0 0 0 0 0 0 0 0 0 0 5 5 3 0 4 5 0 0 0 0 0 0 0 0 0 0
0 0 0 0 0 0 0 0 0 0 0 3 4 4 4 5 7 5 2 0 0 0 2 1 0 0 0 0 0 0 0 0 0 0 0 0 0 1 0 0 0 0 0 0 0 0 0 0 0
0 0 0 0 0 0 0 0 0 0 0 0 0 69 68 5 8 5 5 10 0 2 0 0 0 0 0 0 0 0 0 0 0 0 0 0 0 0 0 0 0 0 0 0 0 0 0 0 0
0 0 0 0 0 0 0 0 0 0 0 0 3 63 20 16 5 2 0 4 5 3 0 0 0 0 0 0 0 0 0 0 0 0 0 0 0 0 0 0 0 0 0 0 0 0 0 0 0
0 0 0 0 0 0 0 0 0 0 0 0 2 5 16 99 33 5 0 0 0 0 0 4 0 0 0 0 0 0 0 0 0 0 0 0 0 0 0 0 0 0 0 0 0 0 0 0 0
0 3 0 0 0 0 0 0 0 0 0 0 1 5 5 99 92 5 5 0 0 0 0 4 5 3 5 0 0 0 0 0 0 0 0 0 0 0 0 0 0 0 0 0 0 0 0 0 0
0 10 1 0 0 0 0 0 0 0 0 0 2 5 29 19 96 5 5 5 4 0 0 0 97 53 3 4 0 0 0 0 0 0 0 0 0 0 0 0 0 0 0 0 5 0 0 0 1

GFSSGP_prec_cloud_060.txt.gz
Cloud_Cover
1 9 58 100 100 87 82 52 65 63 93 100 100 100 78 68 79 100 100 99 97 97 38 33 5 0 0 0 0 0 0 0 1 4 9 100 23 14 3 4 1 2 3 5 12 5 5 3 4
32 62 86 97 89 85 94 80 100 28 82 96 100 100 100 58 89 100 100 100 99 67 32 9 2 1 0 11 1 6 5 5 12 21 4 5 23 10 4 55 97 60 97 9 6 5 5 7 3
49 98 83 92 55 98 89 96 100 63 47 100 100 66 58 63 59 75 100 90 100 45 6 4 0 0 2 0 7 7 1 3 7 2 3 5 26 16 100 98 74 21 58 5 1 0 0 12 44
68 44 45 82 53 38 100 76 76 59 99 100 52 27 82 100 100 83 93 52 99 12 0 0 0 0 10 9 4 6 1 7 0 9 0 1 7 91 6 5 6 5 4 5 8 5 17 79 99
95 78 61 42 93 95 90 100 96 96 64 100 94 98 95 100 100 85 100 68 28 4 0 6 0 7 1 0 14 5 4 3 0 0 0 0 1 3 0 0 0 7 6 5 0 2 2 6 0
97 46 94 67 93 70 95 100 78 100 72 94 82 100 100 96 100 93 71 40 2 0 0 9 0 0 3 0 8 4 0 0 0 0 2 0 0 0 0 0 5 3 0 1 0 46 71 13 5
93 94 67 64 99 84 56 8 90 100 99 100 96 73 64 94 100 98 46 6 0 0 0 6 0 0 13 0 11 6 2 4 1 0 0 0 1 4 0 0 7 4 4 1 4 82 34 3 1
92 10 50 65 19 86 16 31 100 100 100 100 69 81 86 92 100 93 39 0 12 1 0 17 0 0 36 0 13 6 5 4 0 0 0 0 0 0 0 0 0 0 0 5 5 25 0 0 5
48 47 28 88 41 87 15 23 40 86 58 60 41 36 23 100 99 85 45 11 12 0 0 6 0 0 11 10 13 2 4 13 0 0 0 2 28 7 22 0 0 0 0 0 1 4 0 0 0
28 44 98 20 59 8 25 73 18 95 70 25 24 50 36 78 92 60 15 5 0 0 0 1 0 0 11 4 17 16 3 1 0 7 12 45 39 45 4 0 0 0 0 0 0 0 1 100 54
40 35 7 86 78 82 68 61 37 84 78 40 10 31 59 87 40 32 2 0 0 0 0 0 0 0 13 6 24 36 43 1 2 10 11 10 43 13 92 0 15 4 0 22 18 13 100 97 100
5 65 55 94 20 78 65 89 58 34 50 6 25 9 44 13 21 12 0 0 0 0 0 0 0 1 32 12 32 35 3 0 0 0 0 10 68 31 79 63 0 2 86 1 65 56 0 18 44
5 27 14 22 81 55 82 27 79 97 55 22 19 36 49 29 21 18 6 0 0 0 0 0 0 0 33 14 43 14 3 2 8 1 0 58 93 68 42 1 68 26 65 16 7 0 0 0 36
5 5 6 21 94 51 21 7 19 21 96 85 41 83 38 44 5 5 2 0 0 0 0 0 0 0 16 30 23 8 20 35 27 14 0 1 39 35 6 2 54 35 100 100 87 4 6 0 52
0 4 4 5 18 99 5 3 0 3 98 87 35 57 47 39 2 0 0 0 0 0 0 0 0 0 2 21 19 7 10 5 9 20 0 0 15 0 6 50 72 50 6 0 2 6 0 0 38
0 0 2 3 5 32 5 98 1 1 0 4 20 24 28 18 3 0 0 0 0 0 0 0 0 0 0 0 1 0 2 10 18 22 0 0 0 4 0 4 65 25 51 84 33 98 44 13 52
0 0 0 99 6 17 60 97 5 5 2 1 2 5 8 38 11 0 0 0 0 0 0 0 0 0 0 0 0 0 0 8 38 50 33 0 0 0 23 1 83 1 54 87 88 67 100 6 88
0 0 0 26 8 6 95 88 5 5 5 5 0 1 30 23 3 0 0 0 0 0 0 0 0 0 0 0 0 0 0 0 3 11 32 0 0 0 0 33 98 0 0 37 96 23 38 63 56
0 0 0 2 98 21 95 99 5 5 2 0 0 0 0 0 10 16 0 0 0 0 0 0 0 0 0 0 0 0 0 0 0 0 0 0 0 0 0 31 4 0 0 17 0 0 0 84 100
0 0 0 0 55 6 100 92 79 5 5 1 0 0 0 2 0 0 2 0 0 0 0 0 0 0 0 0 0 0 0 0 0 0 0 0 0 0 0 12 22 45 38 0 0 0 35 91 13
0 0 0 0 4 5 72 96 100 5 5 0 5 0 0 0 0 0 0 0 0 0 0 0 0 0 0 0 0 0 0 3 0 0 0 0 4 2 0 0 17 29 5 27 1 0 3 75 0
0 0 0 0 0 5 12 31 15 5 5 3 5 0 0 0 0 0 0 0 0 0 0 0 0 0 0 0 0 0 0 0 0 0 0 0 0 0 0 0 0 100 0 7 2 0 0 14 18
0 0 0 0 0 1 60 96 99 31 5 2 0 2 0 0 0 0 0 0 0 0 0 0 0 0 0 0 0 0 0 0 0 0 5 4 0 5 0 0 0 16 1 3 1 0 0 0 15
0 0 0 0 0 0 0 5 5 96 5 14 5 5 5 0 0 0 0 0 0 0 0 0 0 0 0 0 0 0 0 0 0 0 5 0 0 5 0 0 0 0 0 0 2 0 3 0 0
0 0 0 0 0 0 0 0 0 20 65 71 67 5 6 5 0 0 2 0 0 0 0 0 0 0 0 0 0 0 0 0 0 0 3 0 0 0 0 0 0 0 0 0 0 8 11 0 0
0 0 0 0 0 0 0 0 0 2 12 5 0 5 72 5 5 3 4 0 0 0 0 0 0 0 0 0 0 0 0 0 0 0 0 0 0 0 0 0 0 0 0 0 0 0 0 12 0
0 0 0 0 0 0 0 0 0 0 0 0 0 5 5 5 5 5 2 0 0 0 0 0 0 0 0 0 0 0 0 0 0 0 0 0 0 0 0 0 0 0 0 0 1 0 2 5 0
9 0 0 0 1 0 0 0 0 0 0 0 0 5 0 8 5 5 0 1 4 0 0 0 0 0 0 0 0 0 0 0 0 0 0 0 0 0 0 0 0 0 0 0 0 2 6 16 1
0 0 91 4 2 0 0 0 0 0 0 0 0 0 1 5 5 5 5 0 2 6 0 0 0 0 0 0 0 0 0 0 0 0 0 0 0 0 0 0 0 0 0 0 0 0 2 14 21
0 50 6 100 23 0 2 1 0 0 0 0 0 0 0 5 5 5 46 5 0 0 0 0 0 0 0 0 0 0 0 0 0 0 0 0 0 0 0 0 0 0 0 0 0 0 0 0 3

GFSSGP_prec_cloud_063.txt.gz
Cloud_Cover
4 5 97 91 63 92 100 90 100 72 89 100 58 100 100 76 46 61 47 100 98 87 13 16 5 0 0 0 1 5 0 1 12 3 100 5 5 5 4 0 4 1 1 5 8 7 4 2 7
58 61 39 77 97 100 95 86 100 99 99 31 100 89 92 34 31 96 100 83 93 57 9 5 1 0 0 5 5 2 0 0 2 4 5 37 4 65 100 83 100 100 39 5 3 3 61 2 28
96 75 55 76 55 99 93 100 99 80 80 80 86 100 57 34 98 81 81 98 47 25 6 0 0 0 6 5 5 14 2 0 0 11 4 3 98 100 100 6 13 25 10 1 0 4 5 7 5
79 88 27 77 75 99 93 100 44 89 100 96 100 48 6 100 100 100 79 46 98 62 0 0 0 3 1 83 50 3 4 1 11 10 5 100 59 7 5 6 2 2 3 0 1 2 5 1 0
100 61 88 92 46 38 41 100 100 98 100 99 100 66 49 96 100 97 100 85 90 56 0 0 0 19 4 75 4 1 6 0 0 0 0 7 6 0 0 1 2 0 1 3 2 29 5 5 2
98 58 30 40 98 99 63 93 100 82 100 100 91 66 100 21 100 100 100 100 63 4 0 0 2 6 0 59 2 6 1 1 0 1 1 3 1 1 0 0 1 2 10 76 72 6 4 0 0
76 54 100 100 54 96 99 69 100 94 100 100 100 99 55 67 100 100 93 84 70 7 0 0 3 3 1 11 17 6 1 3 0 0 0 0 0 0 1 9 17 5 3 4 5 1 0 0 0
48 88 100 100 93 100 57 96 5 88 99 100 64 98 55 64 99 100 100 100 33 39 0 0 3 26 1 4 10 0 3 5 0 0 0 0 0 0 0 0 0 5 0 0 0 0 0 0 0
54 42 90 77 96 98 54 94 100 53 92 62 47 63 12 31 98 99 82 99 61 16 19 0 12 69 2 30 8 1 0 0 0 0 0 8 40 12 0 0 0 0 0 0 3 1 0 0 0
32 90 45 94 100 100 9 53 98 48 91 99 100 97 40 75 66 100 44 90 30 14 22 27 20 19 7 2 1 34 2 0 19 14 34 48 95 18 0 0 0 0 0 0 2 51 98 71 40
86 69 100 97 48 12 15 56 89 88 100 59 100 76 55 66 39 84 35 72 8 0 38 16 3 0 13 0 7 26 7 22 48 9 92 35 14 17 9 0 2 0 0 0 0 91 63 23 30
28 99 86 98 14 43 60 100 100 58 66 22 74 79 98 67 8 96 57 29 0 0 2 0 0 6 78 0 82 99 86 10 20 14 81 8 95 95 100 100 24 69 61 45 2 90 97 100 100
5 100 86 45 70 99 82 100 91 96 42 5 5 86 92 99 28 94 76 13 0 0 0 0 0 0 24 79 92 98 26 21 81 1 41 100 85 91 96 14 77 98 22 67 58 6 58 0 41
2 6 100 100 96 91 64 99 31 100 46 73 50 68 100 78 78 50 35 5 3 0 0 0 0 0 0 100 89 35 3 49 59 100 4 14 95 90 65 81 0 95 63 45 56 71 86 97 93
0 0 0 21 85 96 96 100 8 100 94 70 55 89 100 100 100 51 36 3 1 0 0 0 0 0 1 100 3 8 47 92 100 100 0 81 65 24 61 63 100 26 13 5 51 0 1 72 100
0 0 0 9 7 88 90 100 94 2 0 5 5 37 88 100 83 48 40 10 7 0 0 0 0 0 3 92 44 69 29 77 88 100 12 1 59 26 90 24 75 6 100 88 77 26 82 54 32
0 0 0 5 4 40 96 81 100 100 41 0 1 37 86 100 79 33 6 3 0 0 0 0 0 0 0 10 20 78 82 100 99 74 47 6 94 74 86 75 91 80 14 70 21 99 40 7 29
0 0 0 2 49 59 100 100 99 97 18 0 0 12 36 100 46 11 3 2 0 0 0 0 0 3 0 18 9 14 28 100 100 100 100 0 79 59 100 86 2 22 74 99 83 40 77 16 100
0 0 0 4 4 100 28 100 100 100 86 1 0 0 5 33 45 27 2 0 0 0 0 0 0 0 0 0 0 0 32 64 100 100 59 0 57 30 12 62 2 2 43 98 0 0 0 32 18
0 0 0 0 14 28 23 96 99 56 2 0 0 0 0 33 96 10 8 0 0 0 0 0 0 0 0 0 0 1 12 47 83 67 1 3 0 1 0 79 58 75 46 0 38 87 100 100 68
0 0 0 0 3 73 100 30 100 100 2 0 0 0 0 0 1 16 5 0 0 2 0 0 0 0 0 0 0 0 0 91 22 82 0 1 5 0 12 87 86 2 26 53 0 0 77 84 13
0 0 0 0 0 5 14 89 68 80 56 0 0 0 0 0 0 11 4 0 0 0 0 0 0 0 0 0 0 0 0 4 8 20 18 5 3 14 1 1 100 4 48 80 15 5 65 25 73
0 0 0 0 0 2 4 17 100 36 65 37 0 0 0 0 0 0 0 0 0 0 0 0 0 0 0 0 0 0 0 0 3 7 65 10 0 0 0 2 89 2 1 18 10 1 3 24 91
0 0 0 0 0 0 0 5 13 100 100 74 6 4 0 0 0 0 0 0 2 2 0 0 0 0 0 0 0 0 0 0 0 2 17 0 15 0 0 3 28 0 4 26 1 86 0 1 3
0 0 0 0 0 0 0 0 2 91 72 100 10 5 1 0 0 0 0 0 0 0 0 0 0 0 0 0 0 0 0 0 0 4 0 1 1 0 0 0 0 0 1 12 17 2 8 0 0
0 0 0 0 0 0 0 0 0 10 99 6 100 53 1 5 0 0 0 0 0 0 0 0 0 0 0 0 0 0 0 0 0 0 0 0 0 0 48 0 0 0 24 0 2 0 1 2 0
0 1 0 0 3 0 0 0 0 0 3 61 100 76 95 15 0 0 0 5 0 0 0 0 0 0 0 0 0 0 0 0 0 0 0 0 0 0 0 0 0 0 0 27 20 4 1 45 0
5 22 0 0 3 0 0 0 0 0 0 2 52 89 33 100 2 0 0 3 0 0 0 0 0 0 0 0 0 0 0 0 0 0 3 0 0 0 24 0 0 0 0 0 2 5 2 1 1
0 0 66 77 2 4 1 0 0 0 0 0 0 3 4 12 5 22 5 5 0 0 0 0 0 0 1 0 0 0 0 0 0 0 0 0 0 0 0 0 0 0 0 0 0 0 45 0 0
0 2 0 90 83 5 1 13 5 36 0 0 0 5 4 5 65 47 24 5 4 0 0 0 0 0 0 0 0 0 0 0 0 0 0 0 0 0 0 0 0 0 0 0 0 0 0 7 0

GFSSGP_prec_cloud_066.txt.gz
Cloud_Cover
5 5 19 92 66 75 99 98 100 92 60 100 99 100 98 99 59 14 100 38 19 64 57 5 1 3 0 5 3 0 0 1 2 5 6 10 5 16 4 10 4 16 0 4 3 3 1 4 2
0 56 89 90 99 96 100 100 100 94 58 25 5 27 77 22 11 83 25 34 100 78 13 16 0 1 2 4 0 4 0 0 4 7 4 73 100 29 7 42 90 100 27 0 4 1 1 15 5
14 100 99 99 99 100 97 100 100 79 27 21 20 96 29 93 62 10 11 41 82 2 14 1 0 0 5 96 2 5 1 0 2 0 96 100 83 85 20 10 6 2 0 0 2 4 10 13 16
90 65 55 77 100 100 29 100 100 44 84 64 57 97 24 100 76 13 9 50 7 4 0 0 0 12 5 1 0 1 10 3 82 5 100 100 93 1 0 0 0 8 2 5 4 5 5 4 3
100 95 83 35 98 99 5 82 100 100 92 95 81 75 72 98 28 17 44 10 8 0 0 0 0 0 5 0 0 2 2 4 8 0 2 4 0 0 5 2 3 5 23 28 5 5 0 0 0
95 23 100 76 100 96 69 67 99 100 99 100 89 99 68 100 18 96 22 62 10 0 0 4 2 0 5 2 16 1 0 1 0 0 0 0 2 0 4 2 1 2 0 0 0 0 0 0 0
41 90 100 93 31 100 100 99 86 43 99 100 34 61 83 100 13 5 42 100 0 0 0 0 11 0 0 0 3 0 4 0 0 0 0 0 5 4 1 0 0 0 0 0 0 0 0 0 0
77 98 60 82 100 100 100 100 18 55 100 75 53 3 52 90 93 5 71 100 0 0 0 0 0 0 1 8 6 6 8 3 0 0 0 0 0 0 0 0 0 0 100 64 1 0 0 0 0
50 79 62 100 100 100 100 100 100 100 99 84 33 4 5 5 5 11 100 60 1 9 0 0 0 0 5 0 2 3 0 0 0 0 1 36 8 0 11 0 0 68 100 100 100 3 0 0 0
5 33 100 43 18 95 100 100 40 49 88 72 77 4 9 9 5 26 100 98 13 9 0 2 25 8 1 0 0 0 0 0 0 0 16 89 67 2 0 0 0 67 100 66 33 7 74 0 46
6 20 82 98 77 61 98 100 59 80 72 90 0 5 24 17 5 14 52 7 2 20 20 7 0 40 24 0 0 0 0 6 26 9 91 93 70 0 16 1 0 0 5 2 78 100 25 53 96
21 92 100 100 66 97 100 14 100 14 100 100 98 5 34 7 5 31 22 39 25 56 47 3 0 5 30 0 0 18 18 91 0 7 10 16 69 18 18 66 11 42 45 91 96 7 94 97 58
12 70 100 70 64 73 68 94 100 2 100 100 68 4 88 85 4 54 30 88 0 74 100 0 0 47 12 7 12 100 51 14 1 54 31 21 10 44 66 60 88 95 66 84 98 97 0 99 29
43 22 100 74 94 66 3 100 100 85 99 98 0 9 100 100 10 60 35 70 0 2 89 0 0 47 73 100 67 94 3 92 51 56 56 92 0 47 94 33 65 71 37 100 14 47 92 100 100
0 5 5 15 21 98 99 40 96 85 100 10 5 62 100 100 93 48 20 11 0 1 8 0 0 0 0 0 46 28 75 73 72 31 0 61 44 18 91 52 10 1 4 25 34 0 94 100 3
0 0 0 3 19 20 30 100 99 95 90 94 58 32 100 90 71 51 96 0 0 4 0 0 0 0 0 82 10 11 40 24 2 92 0 0 12 7 11 96 92 63 40 30 41 13 100 100 90
0 0 0 0 11 16 68 86 100 94 100 100 86 99 88 99 1 15 80 0 0 0 0 0 0 0 0 47 1 76 100 95 98 25 47 4 0 0 2 87 3 8 0 0 96 50 5 77 39
0 0 0 0 3 72 65 64 97 100 100 100 100 100 48 66 94 23 100 0 0 0 0 0 48 0 0 28 0 29 3 59 2 5 49 5 61 93 100 22 1 0 72 36 92 92 98 89 32
0 0 0 0 1 21 100 9 62 50 46 100 100 100 34 0 100 10 100 0 0 0 0 0 38 0 0 0 0 85 0 78 98 50 70 0 55 100 79 0 0 0 82 2 0 1 0 100 98
0 0 0 0 2 4 17 98 71 100 100 100 75 100 16 6 42 27 51 4 5 0 0 0 0 0 0 0 0 6 76 82 4 77 18 0 22 6 18 70 3 60 0 0 41 68 100 48 24
0 0 0 0 1 7 13 2 99 84 100 100 100 71 22 0 3 2 0 0 0 0 0 0 0 0 0 0 0 0 100 20 60 49 5 0 0 2 100 23 6 9 86 0 0 6 93 47 41
0 0 0 0 0 2 36 68 7 99 100 100 100 80 6 38 0 0 0 0 0 0 0 0 0 0 0 0 0 0 0 100 64 0 8 0 0 0 5 50 3 5 0 0 0 0 96 94 28
0 0 0 0 0 0 1 71 22 32 17 100 100 100 26 13 4 0 0 0 0 0 0 0 0 0 0 0 0 0 0 6 100 27 73 0 0 0 11 64 2 0 0 1 5 2 0 0 2
0 0 0 0 0 0 0 0 21 56 54 100 100 100 4 0 2 0 0 0 0 0 0 0 0 0 0 0 0 0 0 0 18 32 75 34 0 0 7 70 68 4 1 7 5 0 0 0 0
0 0 0 0 0 0 0 0 0 29 18 100 100 100 74 0 0 0 0 0 0 0 0 0 0 0 0 0 0 0 0 0 0 4 93 39 0 43 0 0 7 0 28 0 2 0 0 0 0
0 0 0 0 0 0 0 0 0 0 35 65 100 100 99 9 0 0 0 0 0 0 0 0 0 0 0 0 0 0 0 0 0 0 0 62 4 22 31 5 0 0 0 0 0 0 3 0 0
0 13 0 0 0 0 0 0 0 0 0 72 100 97 100 100 70 1 0 0 0 0 0 0 0 0 0 0 0 0 0 0 0 0 0 0 0 9 7 0 0 0 0 0 0 0 0 4 0
0 0 38 1 0 0 0 0 0 0 0 3 64 99 100 100 43 98 11 0 0 0 0 0 0 0 0 0 0 0 0 0 0 0 0 0 5 1 50 0 0 0 0 0 0 0 0 0 0
6 0 5 87 60 0 0 0 0 0 0 0 1 46 52 100 100 100 99 44 0 0 0 0 0 0 0 0 0 0 0 0 0 0 0 0 1 2 0 2 0 0 0 0 0 0 89 26 1
1 6 5 95 5 6 0 0 0 1 47 0 0 0 100 100 100 100 100 100 100 0 0 0 0 0 0 0 0 0 0 0 0 0 0 0 0 0 0 0 0 0 0 0 0 0 0 5 0

GFSSGP_prec_cloud_069.txt.gz
Cloud_Cover
5 37 50 98 100 100 100 100 84 99 99 48 91 46 99 100 94 29 52 1 0 0 0 0 0 3 0 4 0 0 1 4 1 12 76 7 5 4 2 0 13 0 5 1 6 6 0 1 5
4 67 95 82 100 100 100 100 100 84 92 36 99 98 62 100 75 4 8 4 0 0 0 0 0 0 4 0 0 0 0 0 5 24 100 100 18 15 38 22 10 5 4 2 3 4 5 5 5
0 85 100 97 100 100 100 97 100 99 86 55 76 98 59 93 34 2 0 0 0 0 0 0 0 5 1 0 4 0 5 56 1 96 100 100 6 5 4 5 0 4 2 5 5 5 5 5 5
75 87 75 87 100 100 100 100 100 100 42 15 27 100 68 96 5 2 0 0 0 0 0 0 0 5 0 0 0 0 0 3 5 97 23 5 1 3 0 0 5 1 5 4 2 1 5 4 2
43 68 81 96 100 100 89 99 100 95 44 30 52 64 48 5 3 5 0 0 0 0 0 0 0 1 0 3 0 9 3 0 1 0 0 0 0 1 1 1 2 1 2 1 0 0 0 0 0
94 8 49 98 100 75 100 100 100 100 8 52 29 11 30 5 5 5 2 0 0 0 0 0 0 0 3 0 0 0 2 0 0 0 0 0 0 4 0 0 0 0 0 0 0 0 0 0 0
90 90 100 100 100 100 100 100 100 100 94 27 5 30 81 5 5 8 38 0 0 0 0 0 0 0 0 3 0 1 0 0 0 0 2 2 2 7 1 0 5 29 31 0 0 0 0 0 0
82 68 60 99 100 100 100 100 89 100 93 53 64 5 67 5 5 87 1 0 0 0 0 0 0 0 0 0 0 0 0 0 0 3 0 0 0 0 4 7 5 5 6 47 0 0 0 0 0
88 13 50 100 100 100 100 100 100 100 100 99 94 2 5 5 17 100 100 42 0 0 0 0 0 0 0 0 0 0 0 2 0 0 0 0 0 0 1 9 7 2 0 5 0 0 0 0 25
69 4 98 100 100 100 100 100 100 75 93 100 90 36 5 5 5 71 3 0 0 0 0 0 0 0 0 0 0 0 0 0 0 0 5 0 0 5 4 1 4 4 0 3 41 2 0 0 55
100 14 22 84 94 92 100 100 100 56 100 100 99 99 11 5 20 97 41 0 0 0 0 0 0 0 0 0 0 0 0 10 7 24 1 1 0 0 0 2 0 0 1 62 97 93 21 9 0
4 71 100 100 88 98 100 100 100 100 100 96 77 100 13 5 14 69 10 8 0 0 0 0 0 0 0 0 0 0 0 0 0 0 0 2 0 1 16 1 50 5 1 44 4 8 0 0 2
5 100 88 100 100 31 97 100 100 100 100 100 58 54 9 5 5 12 2 1 0 0 0 0 0 0 15 0 0 0 0 2 23 0 1 0 16 16 72 95 81 38 30 53 0 2 42 0 39
4 95 96 100 96 54 37 99 100 100 100 100 81 5 54 5 23 91 4 61 0 80 47 0 0 0 1 0 20 67 0 65 16 5 21 0 1 9 90 3 26 52 8 19 0 92 20 100 28
4 6 91 86 6 59 65 58 100 100 100 100 100 100 44 5 14 39 1 53 0 96 0 0 0 0 0 4 37 3 0 86 0 0 0 0 0 3 36 18 52 0 1 49 1 49 63 2 1
0 0 2 3 95 31 5 68 86 100 89 98 100 100 58 98 5 92 28 39 0 5 6 0 0 0 0 0 78 32 0 1 0 0 0 2 0 0 2 0 67 34 1 41 19 4 98 64 0
0 0 0 0 2 84 18 5 92 100 100 100 100 100 94 37 72 58 57 0 0 0 0 0 0 0 0 0 0 0 0 0 0 4 9 15 10 2 5 0 1 0 0 4 58 54 84 3 65
0 0 0 0 2 88 98 20 22 45 82 100 100 22 13 87 88 79 28 29 0 0 0 0 0 0 0 0 0 0 40 23 9 0 42 31 88 17 0 0 0 94 80 0 3 65 38 16 100
0 0 0 0 0 2 80 31 5 19 100 100 100 90 98 93 97 100 100 62 0 0 0 0 0 0 0 0 0 0 0 0 0 2 2 57 100 22 0 0 0 23 15 0 0 10 22 1 100
0 0 0 0 0 53 5 4 0 69 100 58 100 100 99 100 100 2 99 37 0 0 0 0 0 0 0 0 0 0 0 0 46 39 0 2 22 35 4 0 0 0 0 0 2 3 3 0 14
0 0 0 0 0 4 30 63 5 27 99 90 100 100 95 100 100 92 91 99 2 0 0 0 0 0 0 0 0 0 0 0 0 0 0 0 0 90 9 3 0 0 0 1 0 33 99 31 0
0 0 0 0 0 0 9 100 65 10 11 43 81 100 100 100 100 6 64 46 15 0 0 0 0 0 0 0 0 0 0 40 0 0 0 0 0 60 5 5 3 3 1 1 0 1 0 0 4
0 0 0 0 0 0 1 4 5 13 5 97 100 100 100 89 36 2 85 3 0 0 0 0 0 0 0 0 0 0 0 0 0 0 0 0 0 0 0 15 5 0 23 5 2 0 0 0 0
0 0 0 0 0 0 0 0 55 0 2 96 100 100 100 84 51 0 0 0 0 0 0 0 0 0 0 0 0 0 0 0 2 12 14 0 0 0 0 80 68 2 0 0 1 0 0 0 0
0 0 0 0 0 0 0 0 0 0 0 61 100 100 100 100 18 0 0 0 0 0 0 0 0 0 0 0 0 0 0 0 0 17 0 6 1 0 0 0 3 2 46 0 1 2 0 0 0
0 0 0 0 0 0 0 0 0 0 0 0 100 100 100 100 94 35 0 0 0 0 0 0 0 0 0 0 0 0 0 0 0 2 0 3 10 0 0 0 0 0 0 0 0 0 0 0 0
0 0 0 0 0 0 0 0 0 0 0 0 62 100 100 100 100 100 80 0 0 0 0 0 0 0 0 0 0 0 0 0 0 0 0 0 0 0 0 0 0 0 0 0 0 0 0 0 0
0 0 0 0 0 0 0 0 0 0 0 2 0 56 100 100 100 100 100 25 5 0 0 0 0 0 0 0 0 0 0 0 0 0 0 0 0 0 0 2 0 0 0 0 0 0 0 0 0
0 0 5 3 0 0 0 0 0 48 0 99 6 97 100 100 100 100 100 100 70 0 2 0 0 0 0 0 0 0 0 0 0 0 0 0 0 0 5 5 0 0 0 0 0 0 0 0 0
0 0 0 5 0 0 0 0 0 0 72 12 2 100 100 100 100 100 100 100 100 65 13 0 0 0 0 0 0 0 0 0 0 0 0 0 0 0 0 0 0 0 0 0 0 0 0 0 0

GFSSGP_prec_cloud_072.txt.gz
Cloud_Cover
5 6 58 98 93 100 100 100 100 100 81 38 50 78 98 43 76 7 16 0 0 0 0 0 0 5 1 0 0 0 0 0 3 89 18 2 5 0 5 3 9 0 6 6 5 5 5 54 73
5 96 92 99 100 100 100 100 100 100 94 99 50 83 76 98 10 58 16 0 0 0 0 0 0 2 0 0 2 2 1 5 52 100 57 5 6 5 11 5 3 3 2 2 7 8 5 1 1
2 5 100 100 100 100 100 100 100 100 84 28 17 60 66 54 7 12 4 0 0 0 0 0 1 4 0 0 0 4 1 1 33 7 7 4 5 2 5 0 4 1 2 5 5 5 4 0 0
64 34 100 100 100 100 100 100 100 100 100 100 57 95 70 5 5 4 0 0 0 0 0 0 0 0 0 6 4 7 1 4 5 5 3 0 0 11 21 2 2 0 0 0 0 0 0 0 0
100 70 100 100 100 100 100 100 100 100 100 61 34 35 76 20 5 1 2 0 0 0 0 1 0 0 0 0 1 1 0 0 0 2 1 13 3 0 3 2 0 0 0 0 0 0 0 0 0
96 71 100 100 100 100 100 100 63 100 100 100 100 60 21 5 5 5 2 0 0 3 0 0 0 0 0 0 8 1 0 0 3 0 0 0 5 2 3 5 86 8 0 0 0 0 0 0 0
99 100 92 100 100 100 100 90 96 97 100 100 100 85 6 5 5 3 0 0 0 0 0 0 0 0 0 0 0 3 0 0 1 0 1 5 3 17 2 1 7 3 2 0 0 0 0 0 0
99 87 100 100 100 100 100 97 99 100 100 100 100 44 80 40 5 5 0 0 0 0 0 0 0 0 0 0 0 1 4 0 0 1 32 5 5 5 5 0 0 3 0 0 0 5 0 4 5
91 91 100 100 100 100 100 100 100 100 100 100 100 72 69 94 5 2 0 0 0 8 0 0 0 0 0 0 7 2 0 5 0 0 0 1 0 1 3 0 0 1 61 100 6 2 3 0 0
36 54 100 72 100 100 100 100 100 100 100 100 100 100 93 72 5 2 0 0 0 0 0 0 0 0 0 0 3 0 0 2 0 1 3 0 5 1 0 0 0 1 54 5 1 0 0 0 0
14 5 8 100 55 99 100 100 100 100 100 100 98 100 65 44 18 4 2 0 0 0 0 0 0 0 0 0 12 7 0 0 0 0 0 0 0 0 5 0 0 0 1 4 2 0 17 9 0
5 5 20 66 100 69 100 100 100 100 100 100 100 100 100 24 82 96 1 0 0 0 0 0 0 0 0 0 0 0 0 0 0 0 0 0 4 4 0 2 0 0 4 0 4 56 0 0 2
5 5 7 100 97 100 100 100 100 100 100 100 100 100 100 26 30 2 24 0 0 0 0 0 0 0 0 0 0 1 0 0 0 0 0 0 1 8 2 2 1 2 1 0 0 0 0 0 1
5 5 3 22 14 91 100 100 100 100 100 100 95 100 100 61 40 85 12 0 0 0 0 0 0 0 0 0 0 4 0 0 0 1 0 0 0 0 0 0 0 0 0 0 0 4 6 11 1
0 0 3 5 5 26 41 100 100 100 100 100 99 100 100 76 66 100 47 0 0 0 0 0 0 0 0 0 0 0 5 0 2 0 0 0 0 0 0 0 0 0 0 0 0 0 0 0 0
0 0 0 5 5 5 9 38 100 100 100 100 100 100 100 27 64 99 97 0 0 0 0 0 0 0 0 0 55 0 0 2 16 0 0 0 0 0 0 0 0 0 0 0 0 5 2 0 0
0 0 0 5 11 2 3 72 91 99 100 100 100 100 100 96 100 98 91 1 0 0 0 0 0 0 0 0 0 0 0 0 0 5 4 0 0 1 0 0 0 1 0 4 0 99 41 0 10
0 0 0 0 78 98 57 2 5 37 97 99 100 84 92 100 94 88 100 93 0 0 0 0 0 0 0 0 0 2 0 0 1 2 5 4 0 0 0 0 0 0 0 0 47 20 0 0 0
0 0 0 0 12 56 21 15 9 74 30 35 100 100 84 84 67 100 100 90 27 0 0 0 0 0 0 0 0 0 0 0 0 2 5 5 1 1 5 0 36 7 0 0 10 0 0 0 13
0 0 0 0 0 1 4 67 68 57 30 70 62 91 82 100 100 100 98 96 0 0 0 0 0 0 0 0 0 0 0 0 0 2 5 5 5 1 0 0 0 0 0 0 0 0 0 0 1
0 0 0 0 0 0 0 94 84 78 37 4 81 100 100 100 100 100 66 63 73 9 0 0 0 0 0 0 0 0 0 0 0 0 0 0 8 55 0 0 0 0 0 0 2 0 0 0 0
0 0 0 0 0 0 0 5 72 53 16 13 76 100 100 100 100 100 99 16 25 0 0 0 0 0 0 0 0 0 0 0 0 0 0 0 46 59 4 1 0 0 0 0 0 10 0 0 0
0 0 0 0 0 0 0 0 55 22 5 18 100 98 100 100 100 94 100 6 0 0 0 0 0 0 0 0 0 0 0 0 0 0 0 0 2 0 10 2 2 0 0 0 0 0 0 0 0
0 0 0 0 0 0 0 0 0 0 2 39 24 100 100 100 100 86 95 9 0 0 0 0 0 0 0 0 0 0 0 0 0 0 0 0 0 0 24 100 42 1 0 0 0 0 0 0 0
0 0 0 0 0 0 0 0 0 0 0 0 1 55 81 100 87 67 6 0 17 0 0 0 0 0 0 0 0 0 0 0 0 0 0 0 0 0 0 0 2 0 1 0 0 0 0 0 0
0 0 0 0 0 0 0 0 0 0 0 0 0 30 100 94 71 76 46 0 0 0 0 0 0 0 0 0 0 0 0 0 0 0 0 0 0 0 0 0 0 0 0 0 0 0 0 0 0
0 0 0 0 0 0 0 0 0 0 0 0 0 0 68 100 98 99 47 0 0 0 0 0 0 0 0 0 0 0 0 0 0 0 0 0 0 3 0 0 0 0 0 0 0 0 0 0 0
0 0 0 0 0 0 0 0 0 0 0 0 0 0 45 97 45 98 18 5 42 12 0 0 0 0 0 0 0 0 0 0 0 0 1 0 0 0 0 0 2 0 0 0 0 0 0 0 0
0 0 0 0 0 0 0 0 0 0 0 0 0 0 23 100 63 71 100 5 50 55 42 0 0 0 0 0 0 0 0 0 0 0 0 0 0 0 0 0 4 1 0 0 0 0 0 0 0
0 0 0 0 0 0 0 0 0 2 2 0 0 0 0 93 91 88 96 100 100 94 53 5 0 0 0 0 0 0 0 0 0 0 0 0 0 0 0 0 0 0 0 0 0 0 0 0 0

GFSSGP_prec_cloud_075.txt.gz
Cloud_Cover
46 70 71 100 100 100 100 100 100 100 100 100 33 81 91 80 6 8 17 0 0 0 0 0 0 0 4 0 1 0 5 12 78 8 5 5 15 13 36 18 1 1 13 4 4 5 71 5 5
5 91 100 100 100 100 100 100 100 100 100 100 100 100 87 16 28 81 34 0 0 0 0 0 0 0 1 0 5 1 5 64 100 91 12 83 43 14 100 13 13 2 7 13 6 4 2 1 5
18 68 94 100 100 100 100 100 100 100 100 100 100 100 33 76 71 6 0 0 0 0 0 0 0 0 0 0 0 5 12 100 79 5 1 20 4 2 5 0 0 2 4 2 8 5 4 5 27
27 100 100 100 100 100 100 100 100 100 100 100 100 88 23 22 18 5 0 0 0 0 0 0 0 0 0 0 0 9 1 2 1 9 1 0 0 5 0 1 1 0 8 0 0 10 0 0 5
8 100 100 100 100 99 100 100 100 100 97 100 100 96 51 21 70 2 0 0 0 0 0 0 0 0 3 4 2 2 1 0 0 0 3 9 8 2 6 0 6 0 0 0 0 0 2 20 5
79 87 100 100 100 100 100 100 100 100 100 100 100 100 27 6 94 1 0 0 0 0 0 1 0 3 1 0 2 6 1 0 1 9 6 12 8 1 1 0 8 6 0 0 1 4 4 11 7
99 100 100 100 100 100 100 100 100 100 100 100 100 100 100 80 59 0 0 0 0 1 0 4 0 0 4 0 2 0 0 0 3 0 10 8 40 4 2 4 3 99 17 0 0 0 0 0 4
98 71 100 100 100 100 100 100 100 100 100 64 100 100 100 97 31 0 0 19 44 15 0 1 1 13 0 0 0 1 6 3 5 5 3 5 0 7 0 4 6 5 0 0 0 0 0 0 0
96 98 100 100 100 100 100 100 100 100 100 100 100 100 100 100 31 15 61 90 91 48 18 3 7 0 0 1 76 1 0 0 1 3 3 0 0 0 0 0 13 0 0 0 0 0 0 0 0
75 100 93 92 78 91 100 100 100 100 100 76 100 96 98 100 95 44 74 97 100 96 46 14 14 6 0 0 0 0 0 0 1 0 1 5 4 0 0 1 12 4 0 0 0 0 0 0 3
72 100 57 100 100 100 100 100 100 100 100 100 41 100 100 100 99 4 1 1 9 62 52 13 13 6 0 2 13 12 13 0 2 0 5 0 0 0 0 0 0 0 1 0 0 0 0 0 0
79 95 86 19 99 100 100 100 100 100 100 100 98 55 100 100 92 10 5 0 2 4 12 0 0 2 0 20 21 4 0 0 2 0 3 5 1 1 26 2 0 0 0 0 0 0 0 0 0
90 32 5 5 40 64 99 100 100 100 100 100 100 92 100 99 81 3 5 0 0 0 0 0 0 0 0 10 17 2 0 0 0 0 0 0 0 2 2 1 2 4 0 0 0 0 0 0 0
91 37 5 5 1 5 88 100 100 100 100 100 100 94 97 91 100 76 5 1 0 0 0 0 0 0 0 8 0 1 2 3 1 0 0 0 0 0 0 0 0 0 0 0 0 0 0 0 0
0 3 5 3 4 3 41 100 100 100 100 100 100 98 70 100 99 96 98 2 0 0 0 0 0 0 0 0 2 0 0 0 0 0 0 0 0 1 0 0 0 0 0 0 0 0 0 0 0
0 0 2 0 0 5 4 75 100 100 100 99 99 92 45 90 29 13 100 3 0 2 0 0 0 0 0 0 0 0 0 0 0 0 0 0 5 67 0 0 0 0 0 0 0 0 0 0 0
0 0 3 0 1 5 5 17 100 100 100 100 90 100 100 97 98 95 97 100 0 0 0 0 0 0 0 0 0 0 2 1 1 5 1 0 0 0 0 0 0 0 0 0 0 1 0 0 0
0 0 0 4 3 5 4 3 98 100 100 100 99 100 100 92 73 69 65 97 80 0 0 0 0 0 0 0 1 0 0 4 4 1 3 0 1 0 0 0 0 0 0 0 0 0 7 0 0
0 0 0 80 7 0 0 0 5 8 87 96 100 90 73 99 100 36 34 5 1 20 0 0 0 0 0 0 0 0 0 0 5 14 21 5 5 1 0 0 0 0 0 0 0 0 0 0 0
0 0 0 0 73 4 3 3 3 20 35 26 74 55 96 79 97 100 100 32 0 3 0 0 0 0 0 0 0 0 0 0 24 44 6 73 1 2 0 0 27 0 0 0 0 0 0 0 0
0 0 0 34 74 4 0 54 96 97 95 5 6 53 77 10 96 74 100 75 2 0 0 0 0 0 0 0 0 0 0 12 1 3 5 5 9 5 0 3 3 0 0 0 0 0 0 0 0
0 0 0 6 4 0 0 22 97 2 4 32 2 11 80 99 97 89 83 42 100 1 0 0 37 0 0 0 0 0 0 0 0 0 0 1 5 6 5 1 4 0 0 0 0 0 0 0 0
0 0 0 5 0 0 0 0 0 5 4 4 6 100 86 62 100 78 78 49 100 83 0 0 4 24 0 0 0 0 0 0 0 0 0 1 0 4 6 5 0 0 0 0 0 0 0 0 0
0 0 0 0 0 0 0 0 0 12 61 6 1 84 71 99 87 99 100 100 97 22 0 0 0 19 0 0 0 0 0 0 0 0 0 0 0 1 28 12 10 0 0 0 0 0 0 0 0
0 0 0 0 0 0 0 0 0 0 16 3 0 5 89 80 72 90 4 10 5 2 0 0 0 1 0 0 0 0 0 0 0 0 0 0 0 0 0 0 0 0 0 0 0 0 0 0 0
0 0 0 0 0 0 0 0 0 0 0 0 0 0 52 68 94 100 29 6 85 1 0 0 0 0 0 0 0 0 0 0 0 0 0 0 0 0 0 0 0 0 0 0 0 0 0 0 0
0 0 0 0 0 0 0 0 0 0 0 0 0 0 0 43 97 6 2 13 5 1 0 0 0 0 0 0 0 0 0 0 0 0 0 0 0 0 0 0 0 0 0 0 0 0 0 0 0
0 0 0 0 0 0 0 0 0 0 0 0 0 0 0 1 72 99 5 22 4 4 0 0 0 0 0 0 0 0 0 0 0 0 0 0 0 0 5 0 0 0 0 0 0 0 0 0 0
0 0 0 0 0 0 0 0 0 0 0 0 0 0 0 0 9 100 30 5 5 19 4 0 0 0 0 0 0 0 0 0 0 0 0 0 0 0 8 0 0 0 0 0 0 0 0 0 0
0 0 0 0 0 0 0 0 0 0 0 0 0 0 0 0 0 100 100 90 88 93 5 60 2 0 0 0 0 0 0 0 0 0 0 0 0 0 0 0 0 0 0 0 0 0 0 0 0

GFSSGP_prec_cloud_078.txt.gz
Cloud_Cover
100 100 100 99 100 100 100 100 100 100 100 100 98 100 22 5 1 3 28 0 0 0 0 0 0 4 3 3 11 5 57 94 5 4 6 6 63 73 30 29 4 6 45 41 5 5 7 5 5
99 86 100 100 100 100 100 100 100 100 100 84 62 99 5 7 52 61 12 0 0 0 0 0 0 7 10 12 10 8 5 6 2 29 15 4 6 72 10 6 5 5 5 5 4 4 6 0 40
56 56 74 100 100 100 100 100 100 100 100 69 100 100 5 70 94 2 0 0 0 0 0 0 0 2 0 4 5 7 48 16 13 0 4 3 11 5 5 0 0 1 8 5 3 5 0 14 95
48 13 84 100 100 100 100 100 100 100 100 96 100 100 93 88 2 2 0 0 0 3 0 0 0 0 4 3 7 4 0 3 3 0 10 0 0 10 16 0 0 1 0 6 3 1 5 5 67
32 99 100 100 94 99 100 100 100 100 82 96 100 100 100 100 24 0 0 0 8 12 0 1 0 1 1 1 2 4 6 2 4 1 4 0 9 2 5 83 1 3 1 9 4 6 69 100 100
95 100 100 100 100 100 100 100 100 100 99 100 100 100 100 96 100 0 0 0 0 0 0 0 0 0 16 13 1 2 6 1 0 0 4 12 10 7 6 11 0 0 41 1 0 1 13 94 41
95 100 100 100 100 100 94 92 100 100 98 100 100 100 100 90 100 0 0 0 0 0 0 0 0 4 2 10 9 6 1 2 19 14 9 2 10 2 71 2 1 0 90 13 0 0 4 11 21
100 69 72 95 100 100 100 100 100 100 100 100 100 94 100 100 100 2 1 15 29 21 10 8 0 0 4 4 1 0 4 1 4 6 0 11 1 2 0 0 0 0 0 0 0 0 2 5 5
98 58 90 100 100 100 100 100 100 100 100 100 100 54 75 100 100 49 66 64 79 52 29 11 25 15 0 0 0 0 1 0 3 0 2 0 0 0 0 0 0 0 0 0 0 0 0 4 4
84 100 31 51 100 100 100 100 100 100 100 100 94 49 57 100 100 98 100 100 81 97 72 24 17 9 0 0 0 0 0 0 0 0 0 0 0 0 0 0 0 0 0 0 0 0 0 0 0
96 17 84 96 97 88 100 100 100 100 100 100 100 59 81 98 67 100 100 52 5 100 76 35 23 13 0 2 10 7 8 4 15 2 0 0 5 1 0 10 0 0 0 0 0 0 0 0 0
58 100 100 100 98 96 100 100 100 100 100 100 100 100 84 95 88 99 81 32 44 100 93 30 18 23 1 22 19 10 0 4 2 0 0 0 1 1 0 0 0 0 0 0 0 0 0 0 0
50 5 58 82 58 63 91 100 100 100 100 100 100 100 47 96 75 16 5 14 48 90 43 22 21 23 9 24 26 14 1 0 0 0 0 0 0 4 2 0 3 0 3 0 0 0 0 0 0
5 21 5 39 55 83 62 100 100 100 100 100 100 100 30 32 52 36 5 1 4 2 0 0 14 3 5 24 5 5 0 0 0 0 0 0 0 0 0 0 0 0 0 0 0 0 0 6 0
0 0 5 31 51 9 7 72 100 100 100 100 56 96 39 82 5 100 7 3 5 0 0 0 7 0 0 5 0 0 0 0 0 0 0 0 0 0 0 0 0 0 0 0 0 0 0 0 0
0 0 54 5 5 5 18 98 100 100 100 100 97 100 100 45 96 14 49 3 4 0 0 0 0 0 0 0 0 0 0 0 0 0 0 0 0 0 0 0 4 0 0 0 0 0 0 0 0
0 10 40 5 5 0 5 5 95 100 100 100 100 100 96 58 36 5 31 0 0 0 0 0 0 0 0 0 0 0 0 6 0 0 0 0 0 0 0 0 1 0 0 0 1 0 0 0 0
0 1 5 3 2 0 3 9 5 83 100 100 100 94 54 13 19 8 5 1 0 0 0 0 0 0 0 0 0 0 0 0 0 0 0 0 0 0 0 0 0 3 0 0 0 0 0 0 0
0 0 16 6 3 0 0 5 5 66 11 100 100 100 32 19 69 5 90 55 19 0 0 0 0 0 0 0 0 0 0 0 0 0 0 0 0 0 0 0 1 0 0 0 2 0 0 0 0
0 0 10 21 5 0 0 8 0 30 4 91 100 100 76 98 15 6 48 100 76 1 0 0 0 0 0 0 0 0 0 0 38 5 2 0 0 0 0 0 0 0 0 0 0 0 0 0 0
0 0 7 68 6 2 0 48 60 85 0 31 36 68 97 33 41 8 35 23 100 91 22 0 0 0 0 0 0 0 0 0 58 8 1 0 3 0 0 0 2 10 0 0 0 2 0 0 0
0 0 0 47 5 0 0 0 1 58 100 35 5 71 37 5 6 16 36 5 14 86 100 100 9 10 0 0 0 0 0 0 3 0 0 0 3 3 3 0 0 0 0 0 0 0 0 0 0
0 0 0 0 5 0 0 0 0 0 3 5 49 98 100 74 50 66 50 5 5 5 10 100 4 82 8 0 0 0 0 0 0 0 0 5 1 19 2 0 0 0 0 0 0 0 0 0 0
0 0 0 0 5 5 0 0 0 50 38 5 7 5 95 94 51 5 97 96 5 4 66 13 0 0 96 0 0 0 0 0 0 0 0 4 0 0 1 3 3 0 1 0 0 0 0 0 0
0 0 0 0 1 0 0 0 0 0 1 0 5 5 7 100 21 13 56 58 39 4 5 1 0 0 24 40 0 0 0 0 0 0 0 0 0 0 0 0 0 0 1 0 0 0 0 0 0
0 0 0 0 0 0 0 0 0 0 5 5 0 0 1 51 5 42 7 3 3 0 0 4 0 0 0 37 0 0 0 0 0 0 0 0 0 0 0 0 0 3 0 0 0 0 0 0 0
0 0 0 0 0 0 0 0 0 0 0 4 0 0 0 100 5 5 69 6 0 5 1 0 0 0 0 0 0 0 0 0 0 0 0 0 0 0 0 0 0 22 36 4 0 0 0 0 0
0 0 0 0 0 0 0 0 0 0 0 0 0 0 0 88 96 77 5 48 5 18 4 7 3 0 0 0 0 0 0 0 0 0 0 0 0 0 0 0 0 1 15 16 2 0 0 0 0
0 0 0 0 0 0 0 0 0 0 0 0 39 37 22 3 100 100 90 5 38 39 100 5 6 0 0 0 1 18 0 0 0 0 0 0 0 0 0 0 0 0 0 2 2 3 0 0 0
0 0 0 0 0 0 0 0 0 0 0 68 100 94 54 0 0 24 82 5 79 99 99 50 75 4 6 9 0 23 36 0 0 0 0 0 0 0 0 0 0 5 0 0 0 0 0 0 0

GFSSGP_prec_cloud_081.txt.gz
Cloud_Cover
100 100 100 100 100 100 96 91 53 100 100 99 100 100 94 94 0 2 13 0 0 0 21 0 0 6 0 10 4 100 51 5 6 2 4 3 4 6 43 2 5 0 4 4 7 32 15 5 23
100 100 100 100 100 100 100 41 100 100 100 97 100 100 100 94 34 13 0 0 0 0 0 0 0 1 1 5 84 22 6 9 3 8 2 6 20 46 9 4 5 5 5 5 4 15 13 5 62
100 100 87 53 100 100 92 59 79 100 96 67 93 100 96 98 69 0 0 0 0 0 0 0 0 1 2 6 8 1 11 1 0 0 0 1 5 4 1 2 5 5 5 5 5 4 1 84 100
5 16 100 84 94 93 41 53 65 100 92 78 100 100 100 100 0 0 0 0 0 0 0 0 3 13 11 4 7 1 0 0 0 0 0 3 23 42 0 0 5 0 10 7 60 89 76 100 93
5 29 92 51 100 44 91 98 100 100 20 98 100 83 100 100 0 0 0 0 0 0 0 0 0 6 2 17 0 9 0 0 0 0 3 5 5 6 1 1 1 2 1 6 87 100 100 100 100
48 78 100 71 91 86 100 99 100 31 56 87 100 39 90 100 15 0 0 0 0 0 0 4 0 0 0 0 15 0 8 0 12 4 2 8 20 17 2 0 0 2 0 0 3 54 88 96 100
50 100 100 100 100 93 100 100 68 68 89 100 100 99 100 100 25 16 0 0 0 0 13 34 2 8 5 0 0 0 0 2 1 8 1 2 2 0 0 0 8 24 0 0 98 80 81 37 100
59 100 99 100 99 93 100 100 100 96 92 100 100 80 100 80 96 18 0 0 0 9 23 1 37 32 28 16 4 0 0 0 3 0 3 7 0 0 0 0 0 0 0 0 2 4 6 100 60
58 100 93 90 95 89 100 100 100 100 100 100 100 100 56 11 97 80 4 27 42 34 28 26 20 32 23 27 6 6 0 2 0 0 0 0 0 0 1 0 0 0 0 0 0 0 5 100 74
59 68 49 18 100 96 100 100 100 100 100 100 100 89 82 27 86 67 29 100 23 12 37 26 33 26 32 27 11 13 18 17 5 0 4 0 0 0 11 0 1 0 0 0 0 0 1 1 44
36 38 27 55 100 84 96 100 100 100 100 100 100 100 96 16 96 45 66 10 0 5 14 26 36 14 26 28 1 11 8 7 5 0 0 0 0 0 10 0 0 0 0 0 0 0 0 0 0
43 6 5 7 62 67 68 100 100 100 100 100 100 95 11 27 7 97 99 0 0 80 22 16 12 11 47 1 0 0 1 0 0 0 0 0 0 0 0 0 0 0 0 0 0 0 0 0 0
11 5 49 5 42 60 97 84 98 100 100 100 100 30 61 5 0 21 100 3 0 0 43 14 12 6 46 23 0 2 2 0 0 0 0 0 0 0 0 2 0 0 0 0 0 0 0 0 0
29 4 26 30 75 71 100 98 99 100 100 100 68 10 30 36 0 38 7 1 0 0 0 0 0 1 13 0 0 0 0 0 0 0 0 0 0 0 0 1 0 0 0 0 0 0 0 0 0
24 5 5 46 51 56 100 100 100 100 100 100 100 19 18 5 0 34 2 0 0 0 0 0 0 0 13 0 0 0 0 0 0 0 0 0 0 0 0 0 0 0 0 0 0 0 0 0 0
1 12 93 5 19 100 100 100 100 100 100 100 100 38 13 5 2 4 0 0 0 0 0 0 0 0 0 0 0 0 0 0 0 0 0 0 0 0 0 0 1 0 0 0 0 0 0 0 0
0 29 22 29 10 14 100 100 100 100 100 100 100 100 96 10 5 2 0 2 11 4 0 0 0 0 0 0 0 0 0 0 0 0 0 0 0 0 0 0 0 0 0 0 0 0 0 0 0
0 21 2 7 4 5 4 11 31 100 100 100 100 100 18 39 19 11 5 2 95 20 0 0 0 0 0 0 0 0 0 0 0 0 0 0 0 0 0 0 2 0 0 0 0 0 0 0 0
0 31 78 24 5 5 5 5 5 75 100 100 100 100 92 8 27 8 5 5 6 43 1 0 0 0 0 0 0 0 0 0 0 0 0 0 0 0 0 0 0 1 4 0 0 0 0 0 0
0 3 46 12 5 5 2 5 5 27 100 99 100 100 57 46 37 26 21 32 9 78 85 5 7 0 0 0 0 0 0 0 5 13 2 0 0 0 0 0 0 0 0 0 0 0 0 0 0
0 0 1 4 5 5 0 3 13 72 28 58 61 100 37 14 73 93 59 8 5 22 5 17 75 40 0 0 0 0 0 0 2 6 3 0 0 0 0 0 0 0 0 0 0 0 0 0 0
0 0 3 5 5 2 0 0 2 98 99 33 75 79 89 17 8 5 5 3 5 5 5 5 38 28 0 0 0 0 0 0 0 0 0 0 0 58 8 0 0 0 0 0 0 0 0 0 0
0 0 0 4 5 5 0 0 0 55 99 17 75 91 100 77 19 3 4 3 0 1 64 5 34 44 2 0 0 0 0 0 0 0 0 0 1 80 92 5 0 0 0 0 0 0 0 0 0
0 0 0 2 3 3 0 0 0 0 0 0 5 5 22 99 93 24 5 5 1 1 1 5 22 0 4 0 0 0 0 0 0 0 0 0 0 0 30 4 0 3 0 0 0 0 0 0 0
0 0 0 2 0 0 0 0 0 0 0 11 5 5 5 31 11 86 5 5 22 1 5 2 2 5 0 0 0 0 0 0 0 0 0 0 0 0 0 0 0 0 1 1 0 1 0 0 0
0 0 0 0 0 0 0 0 0 0 0 5 4 1 5 5 100 10 56 6 24 0 0 0 0 4 18 4 7 0 0 0 0 0 0 0 0 0 0 0 2 5 37 49 2 0 0 0 0
0 0 0 0 0 0 0 0 0 0 0 3 5 2 3 2 100 94 100 98 84 5 1 0 0 1 5 0 5 0 0 0 0 0 0 0 0 0 0 0 2 100 100 94 7 4 0 0 0
0 0 0 0 0 0 0 0 0 0 0 8 97 100 100 2 97 100 100 80 19 5 5 32 4 0 75 4 0 19 0 0 0 0 0 0 0 0 0 0 2 5 99 37 21 5 5 4 0
0 0 0 0 0 0 0 0 0 3 93 100 100 100 100 61 100 81 71 14 87 5 95 55 5 3 95 64 0 3 42 0 0 0 0 0 0 0 0 0 0 0 1 0 12 1 5 0 0
0 0 0 0 0 0 0 0 0 12 100 100 100 100 100 100 96 100 100 96 76 17 85 100 23 100 98 100 88 44 100 100 19 0 0 0 0 0 0 0 0 0 0 0 0 0 0 0 0

GFSSGP_prec_cloud_084.txt.gz
Cloud_Cover
100 100 100 94 100 100 92 59 100 100 100 100 87 100 73 0 26 37 0 0 1 27 2 0 0 0 0 7 4 0 1 0 0 0 0 1 7 5 0 0 1 1 3 5 14 57 82 31 60
100 100 69 100 100 100 77 81 100 100 77 100 100 100 91 15 8 0 0 1 2 35 0 0 0 1 1 4 0 1 0 0 3 3 3 5 14 9 0 3 5 6 5 6 6 5 22 100 100
100 100 95 91 100 84 100 50 70 100 60 100 80 98 93 41 2 0 0 0 37 51 57 0 0 0 3 7 1 0 1 2 0 3 4 5 7 2 1 0 5 8 5 5 4 5 10 100 100
100 100 52 99 97 100 85 80 100 100 79 100 96 100 24 66 5 0 0 0 15 40 61 0 0 0 0 0 5 2 0 4 12 5 5 5 5 0 0 5 5 5 38 100 100 100 100 100 100
86 74 97 72 69 96 64 99 61 71 78 100 100 49 54 36 5 0 0 4 8 30 24 0 0 0 0 4 2 8 3 1 0 4 3 7 6 3 0 0 0 1 18 99 100 100 100 100 100
96 35 42 100 75 88 96 100 44 70 79 100 100 42 78 26 5 0 0 20 16 15 24 2 0 2 5 14 4 6 0 0 3 1 5 0 0 0 0 0 1 0 4 65 65 68 100 100 100
97 65 97 88 98 45 96 100 100 98 67 100 99 100 23 5 5 2 0 28 50 44 27 26 18 0 2 13 3 4 0 3 0 0 1 0 0 0 0 0 0 0 20 90 100 98 100 100 100
98 58 100 100 100 96 91 98 100 95 100 100 92 100 83 10 5 6 22 25 82 52 37 30 24 45 73 9 0 6 2 0 1 0 0 0 0 0 0 0 0 0 0 98 100 100 100 86 100
36 60 100 100 99 88 68 100 100 100 100 100 77 85 98 6 5 38 22 26 43 58 22 9 84 67 59 77 1 0 8 0 0 0 0 42 73 20 56 0 0 0 0 3 98 100 99 78 52
91 73 100 100 92 95 52 100 100 100 100 100 100 100 9 2 4 100 6 0 16 15 18 56 44 47 65 38 58 17 56 100 27 6 24 100 39 48 4 0 2 0 0 0 3 7 77 100 16
22 66 99 76 50 100 79 100 100 100 100 100 100 100 4 0 1 100 49 0 0 0 21 35 35 34 20 0 38 32 26 40 6 38 82 38 56 50 5 0 5 8 30 28 25 53 58 11 31
40 10 33 36 48 100 100 87 100 100 100 99 100 100 4 0 0 0 2 3 0 0 2 21 24 22 1 4 26 10 1 0 6 14 31 31 34 18 8 2 0 43 75 3 82 18 0 5 54
52 15 5 5 26 56 47 100 100 93 100 100 100 100 11 0 0 0 6 0 0 0 0 1 24 51 0 39 36 75 4 0 0 0 5 28 5 0 0 1 5 20 30 7 20 9 16 0 34
18 18 8 5 25 100 92 70 99 100 100 100 100 16 3 0 0 0 4 0 0 0 0 0 19 11 0 24 30 1 30 0 0 0 0 13 1 4 1 1 4 16 44 45 56 7 48 49 45
0 4 10 5 38 75 15 98 68 100 100 100 99 8 0 4 0 0 0 0 0 3 0 0 0 0 0 7 29 14 0 22 41 3 0 0 8 0 1 7 0 0 0 0 0 12 19 32 24
1 2 14 25 25 5 33 79 100 100 100 100 100 27 15 5 0 2 2 5 0 0 0 0 0 0 0 0 10 69 22 43 75 59 5 0 0 0 0 32 9 0 0 8 45 98 79 88 89
0 50 50 5 18 26 31 38 100 100 100 100 100 94 60 21 5 1 0 2 2 3 0 0 0 0 0 0 6 52 27 70 63 74 54 4 21 1 17 80 22 0 0 0 58 77 82 63 77
2 86 61 40 2 5 16 5 99 100 100 100 100 100 96 88 5 4 4 0 5 6 2 0 0 0 0 0 11 54 55 53 82 70 79 0 1 0 0 48 4 13 28 23 68 5 10 64 17
5 73 40 100 5 5 5 5 80 100 100 90 100 99 82 8 52 3 1 4 18 21 92 5 5 0 0 0 0 30 49 73 82 73 5 5 10 0 0 36 0 16 67 24 0 0 0 11 0
0 3 2 11 3 5 4 74 31 100 100 100 100 100 98 17 82 74 8 0 6 92 55 41 25 0 0 0 0 20 82 84 9 5 3 5 5 0 0 0 3 11 50 0 0 0 15 13 0
0 3 2 4 2 5 3 55 85 49 100 94 100 95 100 78 94 100 94 11 61 34 79 13 18 4 0 0 1 3 0 2 1 13 19 8 1 5 5 0 60 0 23 32 0 0 2 62 0
0 6 4 2 0 14 1 77 15 64 100 100 89 100 100 100 100 100 93 54 2 4 6 4 47 14 0 0 1 4 3 46 48 32 76 13 5 34 5 0 0 0 12 2 0 0 0 8 1
24 0 0 5 0 0 0 85 17 88 100 99 100 99 99 91 100 100 86 32 5 0 0 5 84 26 7 0 0 0 0 39 5 33 18 10 4 79 0 0 0 0 1 0 0 0 0 0 0
0 0 2 5 0 0 3 27 0 9 56 20 76 58 41 86 98 100 100 82 5 0 0 5 4 100 33 0 0 0 0 19 96 13 48 28 12 1 0 3 15 18 0 1 0 0 0 0 0
0 0 0 2 0 0 1 4 19 1 0 1 4 6 31 76 68 26 86 91 5 0 0 0 2 14 63 11 0 0 0 0 1 1 14 26 32 36 3 1 90 5 0 3 1 0 0 0 0
0 0 0 2 0 1 0 4 0 0 0 10 10 2 53 9 94 94 60 42 91 30 5 1 3 0 0 0 8 0 0 0 0 1 8 0 61 44 2 3 55 65 11 5 3 0 1 6 0
0 0 2 2 3 4 0 0 0 0 0 1 85 98 15 67 48 89 100 57 97 76 67 0 0 2 0 0 34 22 0 0 0 7 0 0 0 70 0 0 81 86 85 5 0 5 2 6 0
0 0 0 0 0 1 0 0 0 0 0 48 100 100 99 14 6 100 84 77 95 60 42 5 35 14 0 1 2 24 2 0 0 0 0 1 2 0 28 0 74 32 5 0 2 5 4 0 0
0 0 0 0 0 0 3 2 0 0 37 100 100 100 100 100 33 96 100 100 96 97 91 10 5 2 0 0 1 4 1 0 0 0 0 0 0 0 0 0 7 6 9 0 0 0 1 5 0
0 0 0 0 0 0 4 2 0 0 9 58 100 100 100 100 100 100 100 100 100 96 91 94 14 5 4 0 9 27 3 24 8 0 0 0 0 0 0 0 25 5 62 19 0 0 2 0 0

GFSSGP_prec_cloud_087.txt.gz
Cloud_Cover
100 57 82 100 96 100 100 91 100 98 100 65 82 98 29 45 44 38 1 60 37 21 0 0 0 0 0 0 8 7 0 9 0 0 0 4 5 5 0 3 1 0 4 2 15 5 5 5 5
100 24 47 94 100 100 73 100 100 100 83 44 100 66 67 23 7 4 21 74 100 21 6 3 0 0 3 0 0 0 0 0 7 11 5 8 57 2 9 6 17 5 4 5 5 4 7 99 91
100 94 100 100 27 95 96 100 100 100 27 96 100 97 27 29 19 5 13 61 100 47 58 1 0 0 0 0 10 0 1 4 28 5 40 8 5 4 5 96 100 12 5 5 5 5 7 100 100
100 100 99 100 90 66 58 100 93 100 96 100 100 84 5 5 4 18 7 80 94 97 20 0 0 0 2 0 0 0 5 5 5 7 5 11 6 0 3 4 22 82 48 19 57 36 83 100 100
100 100 77 100 99 95 100 94 100 99 100 100 100 100 23 11 3 5 25 100 100 25 17 0 0 0 0 0 0 1 0 0 4 11 1 12 0 0 0 1 100 61 99 100 100 100 100 100 100
100 100 100 99 76 82 87 100 100 33 100 99 99 100 79 56 9 13 62 97 100 83 41 6 0 0 3 7 4 5 0 2 2 1 0 0 0 0 0 1 5 54 100 96 41 73 79 100 100
69 100 100 66 100 87 97 100 100 80 100 100 100 59 97 90 97 20 80 75 98 83 15 30 11 0 1 0 0 1 0 0 0 0 1 0 0 0 0 1 8 100 100 100 99 34 24 84 97
78 55 98 84 100 99 76 95 100 94 100 100 64 99 100 99 100 11 94 100 100 100 67 100 5 22 63 24 0 0 0 0 0 0 0 0 0 0 0 0 54 100 100 100 83 97 88 100 97
100 82 66 100 100 93 96 99 100 100 100 100 57 100 2 4 27 25 92 28 51 88 100 78 86 99 57 10 1 0 0 0 0 0 12 3 85 29 72 0 13 88 100 36 40 15 10 54 100
49 42 75 100 100 68 93 99 100 100 100 100 100 85 1 5 2 31 75 80 95 92 100 100 68 80 81 24 0 20 97 28 38 21 66 100 11 41 0 0 0 0 6 5 66 97 100 100 44
95 100 100 100 100 99 88 89 100 100 100 94 23 97 69 3 5 12 66 52 74 70 100 71 99 59 32 9 56 43 87 13 9 98 100 29 8 0 0 0 0 0 0 0 12 94 100 100 99
79 90 97 93 100 99 100 88 100 100 100 100 87 100 30 5 5 1 35 62 56 70 96 100 20 41 35 21 96 78 39 27 100 95 51 46 90 77 100 100 12 100 88 66 52 22 95 43 5
100 87 16 23 90 100 87 87 99 100 100 98 89 100 84 16 1 0 15 59 20 46 48 54 33 20 0 100 96 64 51 95 4 95 100 100 99 23 28 14 99 81 10 45 78 72 62 2 70
96 100 16 4 47 46 100 93 95 89 98 100 50 100 100 9 2 5 1 13 2 6 17 24 40 2 0 51 70 61 100 10 64 33 20 84 100 99 54 77 94 100 86 77 39 100 33 99 35
25 28 9 5 5 70 75 89 100 100 100 100 100 100 96 5 2 4 2 1 0 0 8 3 24 4 16 0 0 36 25 100 86 6 32 40 46 87 32 32 100 100 0 1 2 19 24 32 9
5 22 100 6 9 4 99 76 48 100 100 100 100 100 4 22 2 3 0 3 3 1 0 0 6 0 5 94 4 99 100 88 99 9 27 74 12 16 84 93 88 13 100 97 50 41 3 40 58
0 62 58 99 69 5 89 79 100 82 100 100 100 98 52 74 45 0 0 3 4 4 5 8 0 0 4 0 84 55 95 81 53 99 100 23 86 1 100 100 27 2 73 50 61 27 98 50 72
5 50 91 26 85 21 100 26 81 100 100 100 100 100 100 100 98 4 4 0 4 24 53 28 1 0 7 1 100 100 87 83 100 100 100 4 29 0 89 100 0 67 97 50 45 85 82 100 92
80 48 65 50 54 80 100 1 72 93 100 100 100 100 100 100 91 19 8 0 1 28 98 5 5 5 5 9 13 100 93 100 100 41 26 5 88 8 0 99 0 98 9 53 0 0 19 49 19
4 99 100 23 15 93 76 96 63 73 100 100 100 100 100 100 62 92 100 19 0 1 78 5 7 3 6 39 34 88 100 100 36 6 44 87 98 16 3 87 2 32 48 0 0 95 46 49 86
5 99 96 17 1 12 29 100 4 19 96 100 100 100 100 100 99 66 55 100 38 3 12 0 4 5 0 34 41 4 79 98 20 32 9 10 100 32 32 0 100 2 70 8 0 0 100 100 0
5 11 58 60 6 28 22 87 95 4 27 75 100 100 100 100 100 37 100 100 88 5 0 0 42 17 4 2 100 15 19 66 96 46 86 87 100 88 45 0 34 0 85 95 6 0 27 20 3
5 67 96 5 5 100 48 57 100 97 24 45 100 100 100 100 99 100 61 100 100 1 0 0 0 2 5 0 91 20 26 92 96 100 97 1 5 58 56 81 100 3 50 2 100 2 1 73 11
10 80 8 4 5 31 44 64 100 35 9 24 57 99 100 100 100 100 100 100 40 12 0 1 0 1 4 5 0 1 35 60 30 83 29 11 5 7 19 100 53 7 14 7 0 0 0 8 2
93 8 5 10 5 10 5 71 41 56 34 95 76 100 99 100 100 99 89 92 82 83 4 0 0 0 2 2 0 0 0 1 82 19 25 50 100 80 6 58 11 5 5 12 1 0 44 0 0
5 5 4 4 5 6 99 94 4 20 31 99 99 100 22 69 77 97 18 100 15 74 13 0 0 0 3 1 2 1 0 1 0 0 16 17 81 97 1 65 95 19 7 19 5 0 1 0 0
14 4 11 82 19 74 52 3 25 9 4 59 100 59 14 5 49 7 82 100 83 90 16 0 0 0 0 0 12 5 0 0 24 51 30 99 38 92 100 12 100 94 22 5 11 9 0 59 0
3 3 64 5 100 100 85 2 2 7 12 99 100 100 82 5 26 100 47 10 100 50 80 20 0 0 0 29 8 32 2 1 0 0 0 0 14 0 81 51 98 96 9 0 0 66 39 2 0
0 0 30 80 90 100 100 84 3 2 37 100 100 100 100 100 52 33 36 81 100 98 41 100 48 5 1 1 11 12 32 13 5 0 2 0 0 0 5 85 86 70 44 18 6 5 93 1 0
0 7 5 6 4 22 100 89 96 0 0 99 100 100 100 74 100 92 69 100 100 100 100 93 96 79 27 1 2 4 11 6 3 1 1 3 0 0 0 0 18 100 74 71 100 70 0 5 2

GFSSGP_prec_cloud_090.txt.gz
Cloud_Cover
27 17 62 100 98 72 95 100 100 98 90 100 99 10 0 51 94 38 6 4 19 7 4 0 0 0 1 5 1 5 8 5 0 0 0 5 4 1 10 2 9 9 0 0 3 8 5 5 2
89 53 87 90 100 100 89 100 100 37 45 100 100 48 0 5 19 57 93 16 16 0 0 0 0 0 0 9 15 0 6 8 4 8 7 4 3 5 5 6 5 2 1 3 0 0 3 5 5
78 95 100 100 100 100 93 100 78 100 100 100 100 51 5 10 34 42 16 0 0 53 0 0 0 0 0 7 5 7 1 6 1 1 12 4 2 5 9 94 86 11 4 1 1 3 5 5 44
100 100 100 100 100 99 95 100 100 69 23 100 96 29 38 15 30 7 12 57 40 23 0 0 0 0 0 2 1 0 0 1 2 0 5 0 2 1 3 7 5 5 9 5 17 72 5 59 73
100 100 100 100 100 95 100 100 81 100 60 100 93 100 98 91 0 31 0 37 0 15 0 0 0 0 0 7 4 2 2 3 1 0 0 4 1 8 4 31 23 94 83 10 12 100 42 59 89
100 100 100 100 62 100 97 90 100 100 81 100 100 100 85 7 0 80 56 0 0 7 4 1 0 1 7 15 0 3 4 2 0 0 0 0 1 1 0 3 56 5 65 100 77 86 85 86 42
100 100 100 100 80 92 88 100 100 100 100 100 100 100 8 52 10 98 64 80 53 0 0 3 5 2 2 13 2 1 2 1 0 4 0 0 0 1 39 63 45 74 94 93 49 30 46 89 10
100 100 100 100 100 100 100 100 100 100 100 99 100 40 1 11 36 100 7 99 84 12 2 0 3 1 0 1 2 0 0 0 0 12 91 4 0 0 1 16 90 78 76 16 49 100 100 100 89
98 88 100 84 99 100 100 100 100 100 100 100 100 4 4 99 73 50 38 36 84 27 68 81 54 60 2 0 1 0 0 0 0 1 26 3 2 0 17 0 4 5 5 30 100 100 100 100 100
91 82 100 100 100 100 100 100 100 100 100 100 100 74 100 96 95 4 100 23 100 50 90 45 0 0 0 0 0 26 0 0 71 8 66 8 3 0 0 0 0 5 0 100 88 100 100 100 96
100 90 100 87 100 56 30 86 100 100 100 100 100 96 100 100 86 2 3 1 24 65 24 80 9 2 78 10 1 65 14 0 91 0 4 0 0 81 99 9 100 100 98 100 100 92 100 100 75
100 57 100 100 68 94 13 43 100 86 100 100 100 97 66 89 51 81 26 100 82 12 70 32 21 27 26 83 100 1 0 66 24 52 92 0 66 100 100 95 100 100 99 100 64 62 0 20 62
69 81 99 100 100 41 41 97 97 100 100 100 92 28 14 32 21 88 49 93 9 12 48 90 9 67 16 76 4 100 36 4 0 65 40 0 51 100 21 100 83 100 100 100 100 98 2 8 100
29 10 100 98 73 96 80 97 79 100 100 100 100 62 79 94 64 93 68 67 72 62 19 2 0 0 61 10 23 80 60 12 3 100 48 78 8 16 0 35 100 100 93 100 33 56 37 13 16
100 100 82 58 73 21 91 100 100 100 100 100 100 99 100 100 27 4 99 64 0 62 60 0 0 2 92 6 32 33 33 91 0 2 100 100 16 15 98 39 3 3 1 41 91 14 39 6 36
93 76 62 100 83 66 51 62 100 96 86 99 100 97 34 28 17 3 34 0 0 99 4 1 9 0 0 0 0 100 96 11 2 0 0 16 0 80 43 53 98 10 54 3 4 30 75 87 0
30 50 15 99 26 92 1 64 20 79 94 93 100 100 100 96 43 26 30 4 9 84 3 76 48 0 80 0 2 20 90 33 34 15 18 9 2 57 4 28 6 35 20 83 49 61 6 74 73
2 20 94 37 100 83 75 34 38 89 99 68 100 100 88 76 28 18 7 14 8 0 49 95 25 0 92 6 75 1 80 98 11 3 87 0 0 78 100 14 0 98 19 50 36 0 84 57 6
4 6 18 57 100 100 14 29 100 30 100 100 100 100 100 82 83 23 18 6 0 0 6 24 32 0 12 4 46 1 91 33 29 100 57 0 14 18 13 0 0 8 87 11 0 0 1 59 67
7 99 66 56 100 37 50 42 100 8 100 100 100 100 90 100 86 32 38 0 3 0 0 0 3 0 0 0 3 27 92 99 9 77 72 5 5 2 35 35 51 0 19 0 0 2 81 2 11
5 9 48 2 59 100 70 100 98 4 55 100 100 100 100 100 100 35 88 35 0 0 0 0 0 0 0 0 100 100 100 100 91 3 17 91 12 0 0 38 2 72 25 0 0 38 2 0 0
0 8 72 50 51 88 77 23 100 18 35 99 100 100 100 100 100 46 5 3 11 2 0 1 0 0 1 1 1 5 1 1 37 42 69 20 13 0 0 4 8 40 22 7 0 46 100 9 0
0 100 90 100 88 100 99 2 74 96 47 74 85 100 100 100 100 96 2 7 15 21 0 0 0 0 0 0 0 0 2 68 66 28 90 75 0 0 14 22 0 5 3 5 0 0 0 0 77
0 30 42 74 100 1 82 61 73 83 100 100 7 31 100 100 100 100 81 58 84 71 0 0 0 0 0 0 32 13 0 100 60 38 33 0 0 0 9 38 4 5 44 0 34 1 0 0 59
5 2 91 88 5 5 36 100 97 98 100 100 100 19 68 99 100 100 100 100 89 98 16 1 0 0 0 0 0 3 2 30 77 2 47 100 71 52 0 2 4 5 5 14 0 0 0 0 0
5 4 30 38 5 4 94 100 9 99 100 100 100 30 86 100 100 100 100 38 0 52 98 0 0 0 0 0 0 0 0 0 12 15 100 60 98 95 96 100 12 1 0 0 0 4 0 0 0
6 5 44 100 29 95 79 4 9 100 100 100 100 100 99 100 100 100 99 8 7 42 100 27 0 0 0 0 0 0 0 0 0 3 0 0 45 79 4 82 92 21 2 5 0 1 0 0 0
78 8 0 29 100 100 93 4 15 94 100 100 100 98 87 89 58 100 93 100 96 100 74 100 100 99 100 49 0 0 0 0 0 0 19 0 76 60 98 100 100 100 1 0 0 43 74 5 0
3 0 1 81 100 100 100 100 100 85 55 99 68 67 100 100 100 89 100 100 100 90 100 100 100 100 100 100 60 0 0 0 0 0 0 0 2 0 98 100 100 100 12 4 17 99 34 5 0
89 21 0 5 9 100 45 91 100 32 96 100 100 98 100 100 100 100 80 100 100 100 100 100 100 100 100 100 88 0 0 0 0 0 0 0 0 0 0 50 100 100 6 21 100 100 100 35 0

GFSSGP_prec_cloud_093.txt.gz
Cloud_Cover
69 25 64 100 100 100 100 100 15 100 100 100 100 0 42 25 0 35 0 0 0 0 0 0 0 0 2 1 16 0 0 0 0 5 0 0 1 0 0 0 0 0 0 9 3 5 5 5 5
65 62 92 100 100 100 100 100 10 85 96 100 100 2 0 40 4 31 8 0 0 0 0 0 0 0 6 0 0 1 10 1 9 0 0 0 2 2 0 0 5 0 1 0 0 0 5 5 5
100 100 100 100 100 100 100 85 56 92 100 100 100 22 0 0 3 2 0 0 0 0 0 0 0 0 0 0 1 7 0 0 0 4 4 4 0 1 5 1 2 1 4 0 1 2 5 5 4
100 100 100 100 100 100 100 100 100 19 99 100 100 11 1 0 0 0 0 0 0 0 0 0 0 0 0 5 0 1 1 0 7 0 6 0 0 0 0 1 5 5 5 5 5 3 5 2 5
100 100 100 100 100 100 100 99 98 100 93 90 100 55 58 3 0 0 0 0 0 0 0 0 0 0 11 0 3 2 7 5 0 1 13 0 0 0 5 20 100 100 13 5 33 10 13 5 11
100 100 100 100 100 100 100 100 100 100 100 98 87 40 53 0 0 0 0 0 0 0 0 0 0 0 3 3 1 3 2 1 14 3 5 0 0 0 5 51 37 33 61 92 76 25 7 6 23
100 100 100 100 100 100 100 74 100 100 99 100 66 69 98 5 81 0 0 0 0 0 0 0 0 0 1 0 6 1 0 0 6 5 0 1 0 3 5 73 66 45 51 7 12 5 4 5 5
100 100 100 100 100 100 100 96 100 100 100 96 99 100 100 93 38 0 3 0 0 0 0 0 0 0 0 0 0 0 0 0 0 0 0 0 0 4 99 31 5 5 58 5 5 53 5 10 5
100 100 100 100 100 99 80 99 100 100 100 100 100 100 100 33 2 0 13 50 15 0 0 0 0 0 0 0 0 0 0 0 0 71 5 1 0 4 18 14 100 73 5 83 54 25 11 9 5
100 100 93 100 90 100 90 61 100 100 100 100 100 100 100 100 32 4 3 14 3 0 0 0 0 0 0 0 0 0 0 0 17 2 5 5 5 8 10 90 100 100 92 71 98 52 98 64 98
100 100 100 100 62 99 87 72 77 99 91 92 95 100 99 100 36 25 7 3 1 7 0 0 0 0 0 16 0 0 0 1 0 0 5 4 4 9 26 100 100 100 67 40 54 87 45 13 29
100 100 100 48 6 40 43 26 70 91 100 95 98 90 48 6 32 86 22 5 5 3 50 0 16 2 0 92 0 0 0 0 2 3 0 0 0 38 100 100 100 100 73 67 96 46 0 0 42
100 100 100 83 99 77 13 5 62 91 100 100 100 79 63 100 100 4 5 65 4 2 0 0 16 99 92 33 0 0 0 0 16 0 0 25 100 22 100 100 100 100 94 100 100 60 4 42 13
100 82 86 52 47 100 37 18 100 100 100 100 100 82 4 93 100 50 94 92 87 0 0 0 11 23 22 0 37 38 36 0 51 10 0 1 2 0 27 96 89 81 95 100 100 55 0 3 3
76 100 57 100 41 8 88 93 67 100 91 100 100 100 86 100 100 59 16 51 44 1 0 0 0 2 56 34 88 0 100 1 22 32 0 5 1 6 2 2 6 11 24 47 72 18 98 61 1
100 20 46 100 98 11 61 93 90 44 100 100 100 100 100 63 100 84 64 85 0 0 0 0 0 4 0 0 5 5 0 2 68 0 29 100 18 55 0 83 48 16 1 0 28 52 0 0 27
5 92 49 9 30 64 28 100 88 36 48 80 100 100 28 100 100 63 1 60 0 0 0 0 0 0 0 0 3 2 0 0 0 8 23 44 5 0 2 15 0 5 0 25 2 0 5 0 46
0 6 62 52 99 12 12 42 34 61 96 82 74 76 90 100 82 15 32 3 0 0 0 34 0 0 0 0 1 52 94 5 0 84 0 0 2 0 0 0 1 6 24 0 0 0 36 1 1
5 6 6 100 54 93 100 68 18 4 68 97 19 100 100 100 34 23 90 3 0 0 0 76 0 0 10 16 6 84 82 75 5 37 0 0 0 3 0 0 3 21 5 0 0 6 24 1 0
5 76 100 93 27 97 100 100 28 7 44 86 82 74 86 19 36 16 5 5 0 1 0 0 0 0 1 7 6 100 9 3 0 9 0 0 2 5 20 0 0 0 0 0 0 0 0 0 0
3 54 76 69 89 100 100 79 99 17 100 100 100 98 99 100 100 100 51 5 29 34 1 0 0 0 0 0 0 87 76 0 13 5 4 38 31 0 1 0 0 0 0 0 0 0 0 0 0
5 40 87 91 46 100 97 99 100 88 24 73 100 100 73 100 100 100 100 42 12 25 0 0 0 0 0 0 0 5 6 5 43 5 8 0 0 16 0 0 0 0 2 0 0 0 0 0 0
0 21 97 57 35 80 92 100 100 100 100 52 48 100 100 100 100 100 77 5 4 4 5 2 0 0 0 0 0 0 0 96 6 5 1 4 0 1 5 4 0 2 0 0 0 9 0 0 0
4 91 100 79 94 32 55 100 100 100 100 100 96 90 100 100 100 100 100 63 5 5 5 5 0 0 0 0 0 0 0 67 48 24 91 0 0 4 9 26 5 1 2 0 0 0 0 0 0
2 93 21 7 30 68 53 86 98 100 100 92 100 100 82 94 100 100 100 93 40 70 100 1 5 1 0 0 0 0 0 52 0 0 46 0 6 5 5 19 46 13 0 0 0 0 0 0 0
44 100 72 15 95 100 100 64 82 46 81 82 65 100 88 62 88 100 98 90 99 28 46 0 5 5 82 60 8 96 18 0 19 16 36 17 65 47 14 98 78 65 46 2 0 4 0 0 0
8 65 9 100 91 100 79 7 5 93 74 98 100 100 100 100 100 92 73 100 100 85 100 100 92 2 97 100 100 100 100 36 0 0 74 0 94 91 80 72 74 75 93 98 5 5 5 0 0
7 2 13 60 5 96 1 5 8 64 88 97 99 100 100 100 94 99 100 100 99 100 96 100 99 99 100 100 100 100 100 91 0 0 0 2 0 2 4 95 92 93 100 91 10 7 23 0 0
0 0 3 12 14 90 3 5 27 100 100 100 100 100 100 100 100 100 100 100 92 100 100 100 100 100 100 100 100 100 100 94 0 0 0 0 0 0 4 14 98 85 100 59 5 3 25 9 24
9 0 0 5 96 79 12 54 100 100 41 86 100 100 100 100 100 100 100 100 100 100 100 100 100 100 100 100 100 100 100 100 70 8 0 0 0 0 0 0 2 99 100 51 5 5 5 9 5

GFSSGP_prec_cloud_096.txt.gz
Cloud_Cover
26 92 100 100 100 100 100 100 100 89 100 100 0 0 0 0 0 3 0 0 0 0 0 0 0 0 0 12 0 4 1 0 0 3 0 0 0 0 0 0 0 0 1 22 5 90 100 91 60
94 99 100 100 100 100 100 98 100 99 100 100 1 0 64 31 0 35 24 0 0 0 0 0 0 0 6 11 0 7 7 1 0 2 0 13 1 4 5 5 2 5 3 4 6 15 6 3 36
75 100 100 100 100 100 100 98 100 68 50 97 39 72 0 54 4 15 0 0 0 0 0 0 4 1 1 0 0 4 0 0 0 2 0 6 0 4 4 5 5 16 3 0 3 0 5 5 12
100 100 100 100 100 100 100 96 100 5 36 81 99 57 0 0 0 0 0 0 0 0 0 0 0 0 0 0 1 16 0 10 0 0 0 0 1 8 5 5 3 5 5 5 4 3 4 2 10
97 100 100 100 100 100 100 100 100 98 6 100 100 100 1 0 0 0 0 0 0 0 0 0 0 0 0 0 0 0 0 0 0 0 0 0 20 6 64 74 79 15 5 5 5 5 5 5 86
100 100 100 100 100 100 100 97 100 58 8 100 100 100 30 0 0 0 0 0 0 0 0 0 0 0 0 0 0 0 1 0 4 0 0 22 6 8 16 9 65 21 38 44 5 5 5 5 13
100 100 100 100 100 100 99 92 100 100 91 100 100 100 74 2 0 0 0 0 0 0 0 0 0 0 0 0 2 0 1 0 2 0 2 5 11 58 100 13 13 92 92 77 5 59 81 99 42
100 100 100 100 100 100 100 100 100 100 100 100 100 100 74 13 53 1 0 0 0 0 0 0 0 0 0 17 1 0 0 0 0 0 2 100 74 95 18 5 5 5 5 8 54 4 5 41 45
100 100 100 100 100 100 92 100 100 88 100 89 100 100 64 47 6 50 0 0 0 0 0 0 0 0 0 3 3 0 0 3 5 1 37 67 23 67 6 5 12 7 2 46 5 2 5 99 51
100 100 100 100 100 100 100 100 100 48 88 100 70 100 45 98 99 60 6 0 0 0 0 0 0 0 0 20 0 0 0 4 4 22 90 16 77 31 100 69 5 6 5 35 76 37 82 98 98
100 100 100 100 85 100 100 100 100 100 70 100 30 100 100 100 100 47 66 0 0 0 0 0 0 0 0 0 0 0 0 0 0 2 1 30 22 70 95 13 22 41 56 62 7 1 42 5 97
100 100 100 100 100 58 100 100 100 86 100 90 9 98 98 100 100 48 39 0 0 0 0 0 0 0 0 0 0 0 0 0 0 0 0 50 88 45 78 94 100 100 99 24 15 0 14 62 4
8 100 100 100 91 27 99 98 100 99 100 99 26 100 97 26 100 94 2 0 1 0 0 0 1 0 0 0 0 0 0 1 2 0 0 1 97 96 100 100 100 100 100 88 96 0 0 6 0
98 100 100 100 100 47 88 47 74 100 100 98 97 100 100 88 100 73 9 0 3 0 0 0 8 65 0 16 0 0 0 0 17 3 0 0 1 19 6 38 88 88 88 63 28 3 7 0 0
49 100 100 100 100 67 100 99 96 100 64 100 79 32 100 100 60 97 28 0 0 0 0 0 0 0 0 0 4 1 0 0 41 10 0 0 0 0 5 100 100 100 86 5 2 0 0 0 2
100 100 98 100 100 100 100 100 100 95 100 85 100 97 100 95 99 100 5 1 5 4 0 0 0 6 0 7 5 1 0 5 27 4 1 0 0 0 0 68 37 92 98 0 0 0 0 0 1
43 100 88 100 100 100 100 83 13 79 98 100 100 100 97 89 43 99 19 18 10 4 0 0 0 0 0 22 99 34 5 33 0 0 4 0 0 3 0 0 0 33 1 4 0 0 0 34 0
3 6 78 79 100 100 100 79 74 16 100 100 100 86 88 95 64 52 4 4 72 1 7 0 0 0 5 28 33 6 13 74 72 91 1 0 0 0 0 0 0 0 0 0 0 0 24 6 0
47 10 100 51 66 100 100 53 86 69 83 100 100 72 100 100 96 5 5 5 0 2 43 0 0 0 0 3 98 1 12 4 5 5 0 100 1 0 0 0 0 0 0 0 0 0 0 0 0
80 83 100 100 100 100 100 100 100 76 100 94 100 95 100 100 100 44 6 15 0 2 1 0 0 0 0 1 70 2 2 30 5 5 2 1 5 1 0 0 0 2 1 0 0 0 0 0 0
5 43 84 96 100 94 100 100 100 92 54 84 100 100 98 100 72 16 95 30 8 17 2 0 0 0 0 0 5 55 7 75 100 96 22 0 1 2 1 0 0 0 0 0 0 0 0 0 0
5 29 99 100 96 98 100 100 100 100 51 100 100 97 98 100 100 97 100 79 7 62 1 0 0 0 0 0 0 30 63 100 95 92 71 0 4 2 6 5 3 0 0 0 0 0 0 0 0
0 100 96 98 43 12 89 100 100 100 100 98 100 100 100 100 100 62 86 76 0 12 2 2 0 0 0 0 0 0 4 95 5 96 91 0 4 4 78 21 5 37 2 3 3 0 0 0 0
10 100 98 35 64 10 29 100 100 100 100 100 100 100 100 100 100 88 69 74 27 5 8 10 6 2 1 73 0 70 100 48 8 35 98 0 4 45 6 5 22 23 45 98 98 41 2 0 0
76 99 24 77 66 3 35 94 100 100 100 100 100 93 78 100 100 100 100 92 63 32 32 100 100 38 5 78 100 100 100 100 98 12 30 0 1 5 6 3 5 5 42 93 100 74 83 16 0
41 71 5 21 34 22 76 100 100 100 100 100 100 100 62 80 100 100 100 79 6 19 31 100 100 100 51 100 100 100 100 100 99 3 4 0 0 1 5 35 7 5 7 5 5 9 82 70 86
54 62 5 5 52 46 33 100 100 100 100 100 100 100 100 100 100 100 98 89 100 46 100 100 100 100 99 41 100 100 100 100 100 12 5 1 63 0 98 70 50 5 5 14 36 3 5 23 97
1 14 5 5 19 100 5 59 100 100 100 100 83 100 100 89 85 100 100 100 100 100 69 100 98 100 100 100 100 82 100 100 100 64 2 7 31 6 73 48 100 90 8 98 63 5 5 30 36
0 0 3 85 81 68 90 72 100 100 100 100 100 100 100 100 100 100 100 100 100 100 100 96 100 67 100 100 100 100 100 100 100 100 100 100 100 99 73 12 15 100 70 98 60 5 5 24 51
0 0 40 98 98 100 97 96 100 100 100 100 100 100 100 100 100 100 100 100 100 99 100 100 98 100 100 100 100 100 100 100 100 100 100 100 100 100 100 11 5 5 53 72 27 2 5 11 82

GFSSGP_prec_cloud_099.txt.gz
Cloud_Cover
81 100 100 100 100 100 100 100 90 28 86 90 99 4 5 0 0 3 1 0 0 0 0 0 0 4 0 5 0 1 0 6 0 0 0 2 2 1 1 5 5 5 5 5 5 8 5 5 14
100 100 99 100 100 100 100 100 100 28 100 100 100 13 41 0 18 72 41 0 0 0 0 0 0 0 14 0 0 1 1 0 2 0 5 7 4 10 18 3 4 0 1 0 5 5 5 8 6
100 90 100 100 100 100 100 100 93 99 99 100 100 39 15 92 65 22 0 0 0 7 0 0 0 19 3 6 6 11 2 0 1 1 15 2 5 5 46 5 5 0 0 2 5 15 5 30 32
100 78 79 100 100 100 100 100 60 98 94 100 100 74 12 2 1 0 0 0 0 0 0 0 2 0 0 0 0 0 0 0 0 0 5 6 4 5 5 7 5 3 0 1 5 5 5 5 24
100 100 100 100 100 91 96 100 100 100 100 100 100 81 14 0 0 0 0 0 1 3 1 2 1 1 2 0 18 3 13 0 2 24 85 90 5 5 88 99 20 5 5 3 3 5 21 5 94
100 97 100 100 100 100 100 100 100 100 100 100 100 100 14 18 0 0 0 0 0 0 0 4 0 0 0 3 5 0 2 7 2 5 3 5 7 27 94 53 37 9 5 44 14 54 5 88 100
100 100 100 100 100 100 97 100 100 100 80 100 100 94 73 99 4 0 0 0 0 0 0 0 0 0 0 0 0 3 10 0 0 11 6 8 8 44 29 6 17 46 96 66 82 100 100 72 97
100 100 100 100 100 100 100 100 100 100 55 65 98 100 100 100 28 0 0 0 4 9 2 0 0 3 0 0 0 4 0 0 5 5 5 5 17 30 6 24 25 6 81 100 100 92 99 100 100
100 100 100 100 100 100 100 98 100 100 29 95 26 100 100 100 1 1 9 35 32 28 0 1 3 0 0 0 0 4 0 0 5 3 36 27 63 34 5 5 9 5 5 9 5 44 100 100 100
100 100 100 100 100 100 100 100 100 100 90 17 55 83 100 100 86 5 22 38 34 31 36 2 5 0 0 0 0 2 0 0 1 5 17 5 30 62 8 77 5 24 36 94 100 100 100 100 97
100 100 99 100 100 100 100 100 100 100 78 70 99 6 100 100 100 0 0 0 1 0 5 0 0 0 0 0 2 3 0 0 0 3 17 20 9 51 98 47 74 94 77 55 3 5 81 100 22
100 100 100 100 100 100 93 100 100 100 100 40 10 54 95 8 100 0 0 0 0 0 0 0 0 0 0 0 1 5 0 0 0 0 4 80 48 100 100 100 100 100 100 3 0 2 0 28 52
100 100 100 100 100 100 100 100 100 100 100 99 96 100 79 70 81 2 86 0 0 0 0 0 0 0 0 0 0 2 4 0 0 0 2 5 24 91 97 99 100 100 68 0 0 18 10 3 5
89 100 100 100 100 100 100 100 100 100 100 98 100 93 8 89 5 80 0 1 0 0 0 0 0 5 0 0 0 0 0 1 0 0 0 1 4 45 75 100 100 77 0 0 0 0 0 2 58
100 100 100 100 100 100 100 100 100 100 100 100 63 5 35 72 1 3 49 4 0 0 0 0 0 5 5 0 0 0 0 0 0 0 0 0 4 68 91 100 53 2 0 0 0 0 0 0 0
96 100 100 100 100 94 100 100 100 100 100 100 49 41 47 20 69 52 5 0 0 0 0 0 2 5 5 2 0 5 0 0 0 0 0 0 0 0 4 5 4 0 0 0 0 0 0 0 0
58 85 94 100 100 100 100 100 100 94 97 99 42 5 27 90 100 30 2 0 2 0 0 0 0 5 6 5 5 5 8 4 2 5 1 0 0 0 0 1 0 0 0 0 0 0 0 0 0
90 87 100 71 100 100 100 100 100 100 100 100 86 27 16 96 84 6 74 2 26 19 0 0 0 3 6 24 11 12 5 5 5 28 5 1 0 0 0 0 0 4 0 0 0 0 0 0 0
5 29 91 100 100 100 100 100 100 77 99 100 100 42 81 30 92 100 33 2 0 0 0 0 0 0 1 5 1 97 5 55 91 64 1 5 14 6 0 0 0 0 0 0 0 0 0 0 0
90 100 62 100 100 100 100 100 100 77 58 100 100 86 50 79 7 3 5 2 4 0 0 0 0 0 2 5 4 5 39 96 18 5 2 5 5 15 5 3 4 3 0 0 0 0 0 0 2
95 48 90 100 100 100 100 100 100 100 100 100 100 86 41 98 100 39 3 22 2 1 4 0 0 0 0 0 10 24 87 44 74 61 5 5 5 5 5 27 18 22 5 0 0 0 0 0 0
97 92 100 100 100 100 100 100 100 100 84 96 100 100 99 76 17 96 66 100 29 3 1 0 0 0 0 0 36 76 29 5 32 100 8 5 38 5 5 5 51 62 95 85 9 4 0 0 0
5 96 100 100 77 100 100 100 100 88 76 47 99 100 85 100 96 68 34 75 100 72 0 0 0 0 0 99 13 100 99 5 0 45 45 5 96 24 4 26 83 68 27 92 99 5 3 0 0
65 89 58 53 66 100 100 100 100 88 40 81 89 98 99 100 98 100 97 100 100 25 0 0 5 4 5 100 100 100 100 31 11 0 74 12 5 10 5 5 10 11 20 5 5 5 33 0 0
48 9 85 5 43 100 58 91 72 100 100 100 76 100 100 100 100 100 100 79 100 94 27 26 33 90 13 100 100 100 100 98 6 0 3 3 60 1 4 5 2 3 36 31 6 5 5 5 5
0 3 9 51 27 96 6 12 99 100 100 79 100 100 100 100 100 100 82 84 99 100 72 100 89 99 48 100 100 100 100 100 97 2 5 43 54 32 0 5 24 5 20 40 16 5 3 4 5
0 0 2 12 8 25 94 91 100 100 100 100 100 100 96 87 54 100 84 100 98 100 100 100 100 78 61 46 100 100 100 100 100 46 3 50 100 92 52 6 94 6 5 88 100 6 6 1 0
0 0 5 5 4 4 93 100 100 100 100 100 100 100 99 100 49 96 96 100 100 82 100 100 100 100 40 74 96 100 98 99 100 100 100 100 100 100 37 71 74 47 95 77 91 13 75 78 5
0 0 0 4 5 0 17 8 2 100 100 100 100 100 100 100 100 100 100 64 100 100 100 100 100 100 89 100 100 100 100 100 100 100 100 100 100 100 100 79 80 90 58 100 91 6 8 100 66
0 0 3 5 4 0 0 51 71 45 100 100 100 100 100 100 100 100 100 100 100 100 100 100 100 100 97 97 37 94 100 99 95 99 100 100 100 100 100 100 100 100 100 56 51 97 5 17 99

GFSSGP_prec_cloud_102.txt.gz
Cloud_Cover
100 100 73 100 100 100 100 93 96 100 100 77 2 5 4 0 2 2 6 0 0 0 4 0 0 15 1 0 0 8 4 0 0 4 2 5 20 6 10 14 36 5 46 99 100 100 100 100 100
100 100 96 100 100 100 100 100 100 100 100 100 17 2 0 32 22 76 29 0 0 0 0 0 0 0 0 0 0 0 4 0 0 2 36 24 67 95 8 17 5 5 5 5 5 60 57 13 6
99 92 100 100 100 100 100 100 100 100 97 100 100 10 2 82 97 42 12 0 0 8 0 0 0 7 0 12 10 3 0 0 5 100 12 36 78 16 98 32 33 5 4 5 5 8 73 23 49
100 64 100 100 100 100 100 100 100 100 92 100 100 72 9 24 0 32 33 1 9 5 0 0 15 8 16 23 1 3 55 39 76 96 6 8 30 100 100 99 5 16 6 5 36 7 5 5 88
97 100 100 100 100 100 100 100 100 100 100 94 22 79 74 36 3 29 19 1 6 2 6 1 0 5 15 13 12 4 99 22 4 6 4 6 99 100 100 88 9 89 5 5 41 8 5 40 99
100 100 100 100 100 100 100 100 100 100 13 6 36 78 72 61 26 49 0 0 0 1 9 0 0 0 2 2 3 7 100 5 0 2 5 14 92 99 84 100 100 85 5 3 24 29 95 100 100
99 100 100 100 100 100 100 59 100 100 96 6 37 86 100 58 32 1 0 4 0 0 5 1 1 0 9 0 0 7 12 5 5 9 5 92 100 38 100 98 99 76 5 33 100 100 100 80 85
100 99 100 100 100 100 100 100 100 100 100 68 10 100 99 50 6 0 10 20 14 2 12 0 1 1 0 4 5 1 0 3 11 5 98 94 96 26 100 100 100 100 6 59 64 100 100 100 100
100 100 100 100 100 100 100 100 97 100 95 45 24 80 24 48 0 10 40 64 62 46 8 10 34 0 0 5 4 2 0 4 25 26 24 66 5 8 91 12 8 48 99 82 100 100 100 100 100
99 100 100 100 100 100 100 100 100 100 100 91 80 46 14 95 0 10 41 76 100 66 40 18 4 0 0 0 2 1 0 0 3 5 5 30 5 9 5 11 5 5 18 99 88 100 55 100 96
100 100 100 100 100 100 100 100 100 100 100 69 38 49 48 6 0 0 0 42 70 24 33 24 10 0 0 10 24 16 0 0 5 33 5 5 30 18 55 28 69 4 0 5 37 100 67 12 7
100 100 100 100 100 90 100 100 100 100 100 58 5 38 11 4 4 0 0 0 4 17 16 3 1 2 0 27 20 0 0 0 5 4 5 5 5 21 5 97 50 1 0 0 3 70 90 4 4
100 100 100 100 100 100 100 100 100 100 100 55 75 15 4 4 27 3 0 0 0 0 0 0 0 0 0 1 0 0 0 0 0 3 5 5 5 16 20 89 2 0 0 0 5 5 5 0 4
100 100 100 100 100 100 99 100 100 100 91 73 16 6 4 0 1 0 0 0 0 0 0 0 0 0 0 2 0 0 0 0 0 0 5 0 5 6 14 4 0 0 0 0 0 5 6 5 22
100 100 100 100 100 100 100 100 100 100 100 54 72 5 4 1 2 0 0 2 0 0 0 0 0 0 0 0 2 2 0 0 0 0 0 1 2 5 4 0 0 0 0 0 0 0 5 2 5
100 100 100 100 100 100 100 100 100 100 100 57 59 5 5 0 0 0 4 0 0 0 0 0 0 5 0 0 5 0 4 3 0 0 0 0 0 0 0 0 0 0 0 0 0 0 0 0 0
100 100 100 100 100 100 100 100 100 100 100 82 86 72 40 1 0 0 0 0 1 1 0 0 0 4 0 2 0 2 0 3 5 5 3 0 0 3 0 0 0 0 0 0 0 0 1 0 0
31 100 100 100 100 100 98 100 100 100 100 76 100 100 5 5 4 2 1 82 0 0 0 0 0 1 0 0 0 5 5 3 5 5 5 6 4 5 1 0 0 0 0 0 0 4 5 5 0
5 100 100 100 100 100 100 100 100 100 100 98 66 96 4 77 99 10 16 2 0 0 0 0 0 0 0 0 0 5 5 86 5 90 8 25 5 5 5 5 5 0 0 0 0 1 5 4 0
5 100 100 100 100 100 100 100 100 100 100 100 97 71 19 97 6 31 99 0 0 0 0 0 0 0 0 2 1 3 4 36 12 5 6 5 47 24 5 5 5 3 0 0 0 0 2 4 0
90 25 100 100 100 100 100 100 100 100 100 99 100 97 51 19 87 8 0 0 0 0 0 0 0 0 0 0 5 5 0 5 5 2 7 40 17 18 5 5 5 2 0 0 0 0 1 4 0
95 96 52 100 100 100 100 100 100 100 100 100 100 96 98 8 15 59 4 5 1 4 0 0 0 0 2 5 45 16 5 0 2 5 2 6 5 34 32 7 5 5 1 0 0 0 0 0 0
74 83 71 98 100 100 100 100 99 99 100 99 97 100 68 12 14 64 6 56 6 5 1 0 0 0 4 82 15 42 0 0 0 5 0 0 2 5 75 66 23 4 5 1 2 4 0 5 0
21 39 88 70 100 100 100 90 97 84 99 100 88 100 98 86 29 53 15 78 100 6 5 0 0 6 5 100 100 99 96 2 6 12 5 0 0 4 5 69 44 95 11 5 5 3 0 5 1
5 88 52 59 93 100 100 100 13 48 94 95 100 100 67 100 95 94 48 100 100 62 7 3 3 83 2 100 54 31 100 95 19 21 100 11 2 4 11 22 6 97 100 50 38 8 4 2 3
0 5 5 5 10 85 100 100 100 100 90 100 90 100 92 91 92 97 100 100 100 65 97 1 5 98 5 100 20 18 100 100 96 6 100 100 69 14 95 37 4 8 100 90 95 72 5 5 5
0 0 2 7 33 35 94 100 100 91 100 99 100 100 100 84 94 100 100 100 27 100 97 85 68 77 4 100 84 100 100 99 96 100 99 100 100 100 86 65 100 62 52 94 64 99 49 3 5
0 0 0 2 5 5 29 95 100 100 100 100 100 100 100 100 75 75 100 100 100 81 85 50 56 90 60 9 52 82 100 99 91 98 99 100 97 86 100 84 72 94 11 5 36 53 61 91 10
0 0 0 0 0 0 6 1 86 100 100 100 100 100 100 100 100 81 56 90 100 100 99 84 42 58 100 4 82 100 58 99 100 94 100 97 100 100 100 100 100 90 34 96 24 5 5 35 69
0 0 0 0 0 0 0 0 15 100 100 100 100 100 99 100 100 100 51 65 100 100 98 93 83 70 84 70 54 43 99 100 99 98 98 91 100 100 100 100 100 100 100 73 86 86 5 93 31

GFSSGP_prec_cloud_105.txt.gz
Cloud_Cover
100 20 98 73 100 100 100 100 98 76 74 40 6 0 0 0 1 0 0 0 0 4 0 0 1 2 0 0 4 3 5 4 7 4 8 14 77 71 18 5 0 9 100 100 100 100 100 100 100
100 65 96 94 100 100 100 100 100 11 26 41 40 2 0 20 9 7 0 0 0 0 0 9 0 0 0 0 2 4 2 44 25 28 23 37 26 96 100 72 12 5 62 61 94 100 100 100 100
100 100 100 98 95 100 100 100 100 5 13 14 77 6 8 61 24 6 1 0 0 0 0 6 2 0 5 96 83 5 5 77 25 28 39 15 98 100 100 95 7 5 5 5 16 30 77 5 5
54 100 98 100 100 100 100 100 100 90 5 4 99 49 45 66 0 47 0 0 0 0 0 2 11 7 16 100 100 5 92 100 100 93 24 100 68 96 96 88 6 4 62 5 32 12 22 5 19
77 64 82 100 100 100 100 92 100 100 4 3 100 51 80 57 11 18 12 0 0 0 0 2 4 6 5 22 80 11 80 53 6 13 100 100 100 87 33 9 3 3 5 25 58 78 96 100 100
73 95 87 100 100 100 96 58 97 100 47 88 67 66 43 96 10 44 10 6 0 4 31 23 3 5 2 38 74 6 0 3 5 94 100 100 100 88 85 31 77 5 7 43 12 46 100 100 100
100 100 100 100 100 100 95 72 49 100 7 1 13 69 92 96 24 30 26 14 0 37 22 34 21 11 0 13 2 1 2 8 89 100 100 48 42 100 100 61 5 5 5 26 17 94 93 100 100
98 100 100 100 100 100 70 100 62 100 73 2 52 18 78 55 25 20 16 5 1 9 26 35 12 18 17 21 0 4 5 8 94 100 100 5 90 100 100 100 5 39 15 95 97 81 100 86 100
62 99 100 100 100 100 100 100 100 92 100 6 95 7 1 20 18 7 0 0 4 35 29 17 20 12 0 24 16 3 1 8 12 5 5 7 23 94 100 83 5 8 6 93 100 100 82 51 40
91 98 100 100 100 100 100 100 100 8 45 10 77 71 12 25 1 0 0 0 10 52 44 37 33 13 11 20 7 16 9 5 5 5 5 6 36 97 6 5 5 5 20 100 83 49 5 31 22
98 97 100 100 100 100 92 81 96 36 14 46 86 88 3 5 0 0 0 0 1 48 52 27 22 22 4 0 2 0 4 5 5 5 5 5 5 1 5 5 1 0 4 100 90 7 5 5 5
100 100 92 100 100 100 100 100 97 38 84 67 100 85 1 0 0 0 0 0 0 3 42 23 12 20 8 0 0 0 0 4 5 5 5 5 5 1 2 0 0 0 0 38 73 5 5 4 74
100 100 100 100 100 100 100 100 100 77 95 82 100 24 4 0 0 0 0 0 0 0 0 8 14 2 0 0 0 0 0 0 4 5 5 1 0 0 0 0 0 0 0 5 5 0 0 5 5
100 100 100 100 100 100 99 96 100 97 75 30 43 66 38 0 0 0 0 0 0 0 0 0 0 0 0 0 0 0 0 0 0 0 1 0 3 0 0 0 0 0 3 5 3 0 4 0 1
100 100 100 100 100 86 98 100 100 96 85 74 5 5 92 0 0 0 0 2 0 0 0 0 0 0 0 0 0 0 0 0 0 2 0 0 0 0 0 0 0 0 0 0 0 0 0 0 0
100 100 100 100 100 100 100 100 100 100 95 60 39 18 44 42 0 0 0 4 0 0 0 0 0 0 0 0 0 0 0 5 5 0 0 0 0 0 0 0 0 0 0 0 0 0 0 0 0
100 100 100 100 100 100 100 100 100 100 100 100 14 96 7 3 1 0 0 0 0 0 0 0 0 0 0 0 0 0 0 5 5 5 1 2 2 0 0 0 0 0 0 0 0 0 0 0 0
100 100 100 100 100 100 99 100 100 100 98 99 37 93 21 2 3 0 0 0 0 0 0 4 4 0 0 0 0 0 3 0 5 8 5 5 2 0 0 0 0 0 0 0 0 0 0 0 0
5 100 100 100 100 100 88 67 100 100 100 78 32 52 4 5 36 0 0 0 0 0 0 0 0 5 0 0 0 4 0 0 2 5 5 0 0 0 0 0 0 0 0 0 0 0 0 0 0
68 90 100 100 100 100 100 91 100 100 92 90 100 21 5 52 99 27 0 0 0 0 0 0 1 5 1 0 0 0 0 13 0 0 2 5 4 0 0 0 0 0 0 0 0 0 0 0 0
98 36 100 100 100 100 100 100 100 100 100 88 76 8 56 91 49 62 4 2 0 0 0 0 0 3 4 0 0 0 0 0 0 0 0 2 5 5 1 0 0 0 0 0 0 0 0 0 0
100 61 98 100 100 100 100 100 100 100 100 100 100 97 69 11 6 84 45 5 0 0 0 0 0 0 50 5 4 4 4 0 1 0 0 0 0 5 46 20 5 1 0 0 0 0 0 0 0
86 99 91 78 100 100 100 100 100 100 96 84 90 96 5 73 31 5 57 62 1 2 0 0 0 0 5 6 8 4 5 28 0 0 4 5 5 3 15 96 61 0 0 0 0 0 0 0 0
100 36 69 94 96 100 100 100 100 100 100 91 100 100 100 67 19 92 53 100 17 4 4 0 0 5 78 10 14 97 16 100 7 1 0 0 0 0 5 2 30 3 0 0 0 0 0 0 0
100 100 21 60 98 100 100 100 100 100 100 100 98 98 94 97 100 98 95 91 79 27 5 0 0 2 41 53 5 44 99 15 96 42 5 2 1 4 4 5 4 5 5 0 5 4 0 0 0
30 100 90 100 99 100 100 100 100 100 100 100 100 100 100 99 100 83 74 90 54 22 5 4 0 2 12 26 14 100 100 5 5 65 72 34 41 5 5 10 31 5 5 5 5 5 5 31 2
0 0 13 79 5 44 100 100 100 100 100 100 100 100 100 100 88 100 81 90 100 83 26 5 6 0 0 58 43 81 100 96 6 5 16 97 51 52 13 10 12 54 18 5 5 5 5 51 69
0 0 0 5 46 23 100 100 100 100 100 100 100 100 100 100 86 100 89 100 97 100 93 50 21 90 28 39 5 16 59 57 97 19 98 16 13 77 97 100 98 8 90 37 5 5 5 60 18
0 0 0 1 3 29 39 100 100 100 100 100 100 100 87 100 100 100 100 99 100 100 97 86 93 88 32 84 0 7 29 10 33 27 16 13 6 49 100 91 100 100 69 69 76 95 6 26 18
0 0 0 0 0 0 2 34 100 100 100 100 100 100 100 100 100 92 100 100 100 96 82 100 78 46 66 15 90 5 91 10 99 100 47 74 5 82 98 100 100 99 30 17 10 9 6 100 24

GFSSGP_prec_cloud_108.txt.gz
Cloud_Cover
5 68 66 95 100 100 84 84 5 6 16 5 0 0 0 0 8 9 0 1 3 14 0 2 15 2 5 14 12 0 0 0 4 3 0 5 5 5 5 6 5 97 100 100 100 100 100 100 100
27 47 49 78 98 90 96 100 8 8 48 52 0 0 20 12 0 0 0 0 0 33 30 10 1 5 5 5 6 26 62 5 5 5 5 16 71 96 100 60 5 56 100 100 100 100 100 100 100
98 7 48 95 100 92 100 100 45 5 17 8 0 6 20 10 0 0 0 0 18 62 98 7 8 96 89 83 47 70 100 39 20 69 79 100 100 100 75 94 25 7 51 50 83 54 100 100 100
56 42 43 100 100 96 100 100 8 5 3 3 0 1 3 0 0 0 0 8 80 65 94 0 0 5 59 5 5 100 100 83 98 99 100 100 100 100 100 42 96 52 5 51 100 98 37 26 7
50 31 97 100 96 100 92 100 100 5 4 2 9 7 0 3 0 0 7 96 78 16 4 19 5 89 100 3 5 5 7 69 100 100 100 100 97 100 100 0 59 89 9 81 88 77 99 39 15
77 29 62 100 100 99 100 50 74 8 30 67 0 0 0 0 0 17 61 96 7 0 28 9 4 1 8 3 1 4 25 100 100 85 100 100 81 35 28 2 5 5 5 5 5 15 100 100 98
97 82 100 100 100 98 96 92 99 100 45 100 3 0 16 37 12 30 54 11 21 54 100 87 29 0 2 1 5 8 100 100 100 94 100 100 100 8 5 7 5 5 5 5 5 86 100 98 100
78 97 99 100 100 100 99 95 100 91 56 100 97 5 2 16 18 18 0 0 27 58 45 76 89 82 12 27 11 4 59 99 97 45 18 100 100 100 15 43 5 5 68 52 30 76 100 100 100
46 46 98 90 100 100 76 100 76 37 21 80 80 4 0 0 13 0 0 0 5 90 95 94 84 59 31 36 2 2 5 34 5 5 21 89 98 23 27 5 20 81 50 76 99 89 96 99 67
81 72 98 97 100 100 89 100 98 74 51 100 86 0 0 0 0 0 0 0 5 88 83 4 96 23 72 39 10 9 25 48 27 14 66 100 52 67 46 5 5 49 100 100 79 48 52 35 34
99 97 100 100 100 100 100 52 36 15 97 100 67 3 4 1 0 0 0 0 3 28 50 47 56 45 38 43 29 20 28 24 53 62 100 64 13 7 5 3 0 8 100 94 15 10 5 5 5
92 98 90 100 100 100 84 60 100 22 100 100 58 5 1 5 0 0 0 0 0 2 31 37 32 31 77 22 7 7 42 46 60 40 14 4 40 10 2 0 0 99 85 54 8 21 5 5 52
100 94 100 100 100 100 100 100 97 23 84 47 46 5 1 4 0 0 0 0 0 0 34 21 2 27 23 43 3 17 17 99 15 5 2 17 36 2 1 0 0 6 11 4 5 5 84 5 5
99 100 100 100 100 100 100 96 88 76 87 23 87 5 5 0 0 0 0 0 0 0 10 0 30 41 14 1 11 8 63 18 47 9 0 13 15 0 0 0 0 0 0 0 5 5 5 4 0
100 100 100 100 100 100 100 65 100 100 92 100 5 49 1 0 1 0 0 3 0 0 0 0 18 5 5 0 3 12 0 68 36 2 0 0 0 0 0 0 0 0 0 1 1 0 0 0 0
100 100 100 100 100 99 100 86 100 100 52 6 57 100 4 0 0 0 0 0 0 3 0 0 9 0 4 15 6 55 38 48 40 0 0 0 0 0 0 0 0 0 0 5 17 19 6 0 0
100 100 100 100 100 100 99 100 100 100 100 72 34 87 92 26 20 0 0 2 0 0 0 0 0 0 0 0 11 44 0 34 2 1 30 0 0 0 0 0 0 0 0 22 27 12 19 0 0
100 100 100 100 100 100 100 100 100 100 99 94 100 7 30 70 3 2 0 14 10 0 0 15 16 0 0 0 9 42 10 23 12 20 33 0 0 0 0 0 0 3 20 14 18 5 0 0 0
100 100 100 100 100 100 100 100 100 96 95 100 100 97 52 24 30 8 28 0 13 8 18 19 11 5 0 0 12 24 56 43 34 21 0 0 0 0 0 27 0 0 20 11 0 0 0 0 0
100 72 100 100 100 100 100 100 100 100 100 98 82 93 94 92 60 53 46 24 17 0 0 14 4 5 5 0 19 56 64 28 24 24 0 0 0 0 0 1 1 38 9 0 0 0 0 0 0
99 100 100 100 100 100 100 100 100 100 100 92 100 94 100 97 82 34 41 55 42 5 0 0 65 5 26 18 2 31 66 2 0 6 0 1 3 0 2 0 24 0 50 39 0 0 1 2 0
100 100 100 100 100 100 100 100 100 100 100 100 100 100 100 56 80 28 4 9 24 7 2 3 33 49 5 12 4 9 0 0 2 5 46 33 1 0 0 0 0 0 4 0 2 0 0 4 1
78 81 100 100 100 100 100 100 100 100 100 93 100 100 97 100 60 94 14 1 20 0 0 0 25 90 59 100 92 17 2 14 1 0 6 4 0 0 0 0 0 0 6 0 0 0 0 0 22
20 76 100 100 100 100 100 100 100 100 89 62 100 100 100 85 100 53 27 4 2 1 0 0 0 27 100 97 100 82 18 14 9 6 13 3 4 2 4 4 5 5 5 5 2 0 0 0 0
91 96 94 100 100 100 100 100 100 100 100 100 85 100 100 100 81 60 85 66 5 1 0 0 0 0 50 97 86 100 100 73 32 14 7 5 9 27 1 0 0 0 0 0 1 5 5 2 0
6 94 61 100 100 100 90 100 100 100 100 100 88 99 100 100 100 28 6 36 5 5 4 1 0 0 40 96 5 10 99 71 94 6 61 31 22 52 11 6 11 0 0 4 0 0 3 5 4
0 33 47 86 100 100 96 100 100 100 100 100 100 100 100 100 100 98 6 5 14 5 5 5 0 0 3 72 7 4 29 99 99 31 17 8 30 97 27 18 68 98 98 2 5 0 0 2 5
0 0 11 38 80 100 100 100 100 100 100 100 100 100 99 100 100 100 90 69 58 34 7 24 0 0 0 1 6 5 0 28 62 44 78 69 58 79 99 79 98 100 6 63 7 3 0 5 5
0 0 0 4 5 100 100 100 100 100 100 100 100 90 44 100 100 100 99 100 72 94 87 82 47 27 88 6 5 4 4 5 1 5 20 100 84 97 100 100 100 66 30 34 6 5 5 6 3
0 0 0 0 2 43 86 100 100 100 100 100 100 100 55 93 100 95 100 100 93 82 98 32 91 21 84 2 58 0 5 3 5 3 67 9 78 92 100 79 100 100 100 100 94 33 37 19 15

GFSSGP_prec_cloud_111.txt.gz
Cloud_Cover
5 56 99 97 100 100 100 67 1 3 0 1 3 60 9 56 76 10 2 52 34 7 0 3 8 11 0 1 0 0 0 3 2 5 6 5 5 5 54 83 97 89 100 100 100 100 100 89 100
16 54 82 100 100 100 100 4 0 2 0 0 0 45 51 0 0 2 4 26 86 16 12 4 1 3 3 10 5 5 5 5 5 4 3 5 66 38 24 26 7 40 100 100 100 100 100 100 100
5 52 93 100 100 100 100 37 15 40 8 41 6 53 30 4 0 0 0 17 100 25 11 5 5 3 0 4 6 17 10 15 5 5 52 97 82 90 100 100 100 100 100 100 100 100 100 100 100
96 49 66 100 95 100 100 25 96 88 98 96 12 4 0 0 9 0 0 100 28 88 69 5 5 0 0 1 8 100 5 59 100 16 96 100 96 94 100 100 100 81 60 99 100 100 100 100 100
100 34 98 94 92 100 78 18 100 99 71 88 85 0 0 0 0 6 96 62 87 79 2 1 4 5 3 8 5 74 79 95 100 97 97 85 97 100 90 100 100 98 6 100 100 100 100 82 39
58 97 97 93 100 100 75 96 100 100 100 10 7 0 0 0 5 72 33 66 71 48 3 3 1 0 0 3 37 100 100 85 95 81 100 100 100 93 32 100 40 7 28 100 100 100 74 61 36
40 57 75 100 100 100 73 98 100 94 100 66 14 0 0 21 47 21 12 23 70 26 35 54 15 1 0 2 94 100 82 98 99 100 100 100 71 16 3 5 5 5 5 5 9 99 98 96 97
50 46 84 100 98 100 61 100 100 93 100 11 19 1 0 25 20 47 4 98 100 45 3 100 93 54 57 15 5 86 100 100 54 60 19 48 13 5 5 34 37 58 5 50 100 100 100 96 100
98 45 88 93 82 100 100 96 100 85 100 99 22 3 16 0 15 0 4 49 46 94 100 44 85 77 60 3 58 5 30 14 99 60 18 5 6 29 91 34 8 34 100 38 91 65 100 100 100
74 69 100 96 79 100 100 71 100 81 100 86 72 73 6 1 0 0 4 18 67 84 41 97 29 100 100 84 20 5 51 10 5 86 100 12 22 61 5 5 5 93 100 100 91 16 51 46 81
100 50 100 99 99 100 100 99 7 82 100 100 58 3 0 0 0 0 1 20 52 58 99 94 15 100 100 50 27 28 54 10 65 86 100 10 5 4 0 4 9 100 100 95 96 66 79 47 73
100 81 84 94 96 100 100 94 100 55 100 100 63 0 0 0 0 0 0 19 16 52 100 94 100 100 95 8 100 91 69 93 72 94 34 50 92 68 16 6 60 81 95 57 100 34 14 6 31
100 61 65 100 100 100 71 100 100 99 69 100 98 4 0 0 0 0 0 0 0 51 90 70 87 100 1 22 80 66 59 100 52 26 25 100 98 14 58 70 88 86 100 37 54 54 43 5 34
100 100 100 100 98 100 100 100 100 100 5 63 100 22 3 4 0 0 4 0 0 33 39 18 100 83 42 9 39 75 100 100 73 99 72 100 35 100 0 25 66 100 99 98 59 97 35 81 1
100 78 95 99 100 100 98 100 80 100 78 35 100 100 1 0 1 0 2 4 0 20 1 78 98 18 11 10 43 100 71 100 100 69 90 19 2 11 1 21 99 100 6 7 5 2 9 5 0
100 99 100 100 100 100 100 56 100 71 59 42 13 62 62 22 11 0 0 0 21 16 0 6 29 53 15 10 87 100 72 86 100 93 13 10 1 0 15 19 98 11 84 85 34 94 79 50 18
99 99 100 100 100 100 100 100 98 98 30 58 40 35 57 100 70 41 1 12 23 4 1 66 14 100 79 0 90 90 77 100 45 88 33 18 1 0 55 52 10 62 30 92 84 40 98 20 19
95 100 100 100 100 100 100 100 93 100 75 98 83 58 66 96 92 50 47 47 46 2 3 6 18 28 71 92 34 83 98 100 91 100 58 0 8 0 71 36 0 20 75 26 87 13 63 34 16
98 100 100 100 100 100 100 100 100 100 100 100 100 100 100 91 100 100 100 51 24 84 86 86 95 22 95 94 100 100 98 97 100 100 4 5 56 0 2 77 0 67 100 60 0 67 24 96 0
93 100 100 100 100 100 100 100 100 100 100 100 71 92 100 92 98 92 98 87 51 50 98 30 94 14 48 86 100 91 96 64 100 100 7 77 100 7 0 92 36 100 0 0 0 32 16 45 85
97 100 100 100 100 100 100 100 100 100 100 100 100 81 36 9 98 52 66 99 69 21 38 59 56 8 10 100 72 80 55 39 15 100 12 13 19 73 52 0 0 19 0 0 1 0 34 87 0
99 70 100 100 100 100 100 100 100 100 100 98 100 97 61 100 73 94 49 95 100 37 29 6 95 86 50 22 100 9 4 2 54 10 100 92 28 100 2 8 1 0 100 49 0 0 6 32 57
98 71 96 100 100 100 100 100 100 100 100 100 100 87 100 32 100 82 36 19 31 100 30 44 5 85 100 97 27 7 62 39 76 100 73 0 5 81 35 2 0 5 33 3 23 0 0 45 52
46 54 99 100 100 100 100 100 100 100 100 100 100 79 53 45 94 100 51 99 90 85 53 23 0 31 100 65 99 100 5 97 100 67 71 76 76 14 32 39 82 6 32 3 2 0 0 0 2
1 98 42 100 100 100 100 100 100 100 100 100 96 100 96 100 99 98 100 66 21 100 48 34 0 0 60 100 58 92 33 7 5 9 28 94 84 100 14 49 27 5 5 24 6 1 6 0 11
0 72 70 100 100 100 100 100 100 100 100 100 55 95 100 76 85 92 99 99 99 100 38 19 0 0 2 83 48 68 6 8 43 55 100 76 100 23 100 69 84 6 10 5 5 3 0 3 4
2 4 45 100 100 100 100 100 100 100 100 100 99 100 100 99 95 96 96 98 89 44 63 48 0 0 0 28 5 4 6 52 59 72 72 94 56 98 100 96 93 40 61 27 1 9 5 79 5
1 14 6 76 94 65 100 100 100 100 100 100 98 100 100 94 100 88 100 76 100 88 95 100 42 7 12 6 5 2 0 5 6 8 15 71 100 100 100 99 100 50 62 86 78 80 6 74 0
0 0 5 100 100 100 100 86 100 100 100 100 100 99 100 100 93 99 98 97 5 100 86 67 69 70 93 74 83 7 2 2 4 3 5 27 100 100 100 100 100 100 100 87 66 92 98 12 4
0 0 0 0 19 100 100 86 100 100 100 100 100 100 100 100 100 99 100 100 27 70 40 6 68 62 29 38 97 71 89 6 0 0 2 8 29 98 100 100 98 100 100 100 97 100 99 100 76

GFSSGP_prec_cloud_114.txt.gz
Cloud_Cover
7 96 97 100 100 100 92 100 19 12 56 97 67 43 45 89 95 1 9 24 0 2 1 3 5 3 0 0 0 0 54 92 100 100 100 100 98 77 56 93 100 100 100 100 100 100 100 100 100
10 49 100 100 100 100 96 100 100 23 2 4 0 0 12 4 4 14 14 39 2 5 17 2 4 5 2 0 2 3 1 1 1 5 5 66 100 91 96 86 89 86 100 100 100 100 100 100 100
5 81 98 100 100 93 97 100 100 6 2 100 80 16 0 4 19 2 25 86 18 72 4 2 0 0 0 5 6 5 18 7 5 3 5 33 15 5 58 100 100 100 100 100 100 100 100 100 100
50 66 100 100 100 38 64 100 81 52 23 56 0 5 6 2 1 3 26 100 1 0 5 3 0 1 0 7 99 7 76 55 5 5 40 97 25 100 100 100 100 96 100 100 99 100 100 100 100
99 100 100 100 100 100 72 100 100 92 42 96 0 3 24 16 0 0 0 51 4 0 1 0 0 0 0 93 100 99 77 48 86 87 67 97 5 6 31 64 100 91 13 94 100 100 100 100 100
59 100 100 95 100 100 53 100 100 60 47 84 0 2 5 1 13 0 18 63 34 0 0 0 1 0 5 100 100 76 28 5 5 48 82 56 86 75 100 100 73 87 20 37 100 90 98 96 97
95 100 94 100 100 100 92 100 17 53 53 23 0 0 1 93 5 3 98 0 94 71 0 0 0 0 84 77 96 67 5 5 6 70 5 24 40 13 73 9 4 5 61 100 100 100 34 5 68
93 76 100 100 100 100 100 100 96 56 84 7 12 18 23 30 0 18 72 22 100 29 100 2 4 0 0 3 58 63 5 6 6 7 75 8 1 0 4 5 5 5 5 5 7 9 96 29 100
99 49 85 100 100 100 96 99 100 20 100 94 76 0 14 26 22 11 99 46 69 12 81 46 58 25 5 4 5 5 4 94 100 100 100 100 72 5 5 4 5 1 0 46 72 11 6 82 99
98 32 99 62 97 100 100 83 100 17 100 94 20 52 11 25 45 40 27 3 0 26 79 36 26 59 55 4 77 100 44 82 100 100 98 100 27 2 5 5 5 12 5 19 100 7 6 100 100
100 9 89 100 98 100 100 100 100 50 100 43 60 5 37 25 0 62 2 50 21 50 31 100 65 35 18 0 48 100 97 100 100 100 90 34 1 1 0 4 5 56 97 100 100 10 5 77 100
100 100 61 98 100 100 100 92 67 49 100 100 5 9 0 0 1 33 56 100 0 6 10 26 47 99 6 100 87 100 100 100 100 100 100 100 58 48 11 6 100 98 100 100 100 52 6 98 96
100 100 100 74 81 100 100 100 91 100 100 98 100 41 5 22 5 94 57 96 13 25 49 66 90 64 31 100 92 100 26 26 57 98 100 70 90 25 38 14 62 99 100 100 95 50 0 79 25
97 100 100 14 99 100 100 96 24 100 99 34 82 96 2 3 63 64 0 44 39 14 100 0 74 8 93 74 0 47 65 6 92 1 19 9 95 14 0 3 13 100 100 20 82 32 2 2 5
98 100 100 74 100 99 100 98 100 100 84 65 6 42 82 12 96 3 9 2 87 100 1 61 72 26 39 0 98 13 19 88 22 3 32 82 1 0 100 31 61 17 0 0 23 37 35 56 1
16 100 100 100 100 100 98 100 100 89 99 73 37 23 63 76 19 26 6 31 21 27 0 1 20 0 12 100 5 94 73 84 66 19 0 0 0 2 0 2 90 88 0 0 84 0 91 49 0
88 100 100 100 100 100 100 100 100 40 98 58 52 41 58 90 84 54 6 40 10 3 27 100 33 10 6 52 98 80 20 21 99 100 2 0 0 0 4 87 0 2 1 7 0 0 100 11 55
38 100 100 100 100 100 100 100 100 100 86 53 86 60 56 100 60 53 8 73 4 5 71 81 73 98 5 5 8 30 100 1 60 100 14 3 0 0 81 71 98 11 3 90 2 96 2 87 47
98 100 100 100 100 100 100 100 100 100 100 99 96 100 25 82 15 86 93 62 0 4 100 25 99 5 5 7 78 78 0 59 69 4 57 54 11 0 41 100 100 100 49 99 0 0 1 88 9
60 100 100 100 100 100 100 100 100 100 100 100 93 100 75 88 89 48 100 2 0 14 99 29 63 4 31 5 4 38 45 49 4 3 0 85 36 0 5 48 100 100 15 0 70 0 0 0 0
92 95 100 100 100 100 100 100 100 100 100 100 100 95 39 12 100 44 61 37 0 0 41 15 73 0 5 47 45 74 58 0 45 23 0 0 0 0 54 100 100 100 4 0 0 0 0 21 82
100 92 100 100 100 100 100 100 100 100 100 100 99 100 89 14 11 8 92 1 0 0 4 96 13 36 2 14 45 11 5 3 4 47 61 16 4 90 5 54 100 43 0 0 0 1 52 35 79
100 66 100 100 100 100 100 100 100 100 100 100 99 91 100 94 74 93 6 24 100 76 0 0 67 95 50 5 32 7 6 13 54 11 59 5 4 94 24 5 6 4 87 0 4 0 48 100 100
100 53 100 100 100 100 100 100 100 100 100 100 97 100 35 44 66 100 96 24 33 8 4 0 0 45 22 13 42 74 100 70 89 69 7 60 22 5 5 15 4 5 71 7 5 0 26 99 100
100 93 100 100 100 100 100 100 100 100 100 79 100 100 100 16 100 56 91 54 10 84 90 5 0 0 5 6 5 17 69 81 73 6 42 42 97 58 18 5 5 1 3 14 4 5 5 5 4
11 1 100 100 100 100 100 100 100 100 100 100 100 88 97 100 100 66 85 19 100 22 100 0 0 0 23 4 2 22 80 50 30 76 100 100 42 100 82 5 64 63 4 5 1 0 5 14 5
56 0 59 100 100 100 100 100 100 100 100 100 100 100 100 96 100 98 88 31 5 91 77 11 0 0 0 4 1 4 0 3 5 49 100 6 100 100 100 99 70 98 84 6 1 3 5 42 21
4 90 9 87 100 100 100 100 100 100 100 100 100 100 80 96 100 69 29 70 57 99 100 65 5 0 0 0 0 0 0 0 2 48 31 8 100 100 100 33 65 100 99 56 35 14 5 0 0
0 0 1 68 100 100 100 100 100 100 100 100 100 91 98 100 72 47 83 85 100 60 26 56 6 4 0 20 0 0 0 0 0 0 5 5 57 94 86 6 19 83 85 99 100 67 96 96 4
0 3 0 0 98 100 100 100 100 100 100 100 100 100 100 99 50 23 82 100 100 46 11 32 76 95 4 0 0 3 0 0 0 0 1 64 5 46 33 65 35 91 7 100 79 34 29 100 100

GFSSGP_prec_cloud_117.txt.gz
Cloud_Cover
7 100 100 100 94 53 100 100 87 99 64 100 69 80 69 10 1 2 0 0 0 0 0 4 3 5 5 12 33 98 100 100 100 100 100 100 100 100 100 100 100 98 10 20 100 100 100 80 26
5 44 100 100 60 100 100 100 5 4 50 29 6 8 4 5 0 7 37 2 1 3 0 0 1 5 5 11 5 5 2 78 100 100 100 100 100 100 95 64 100 100 94 99 100 99 100 98 22
10 96 100 100 100 100 100 100 5 0 67 23 1 0 0 0 0 1 18 0 2 11 3 0 0 0 3 5 6 5 5 4 3 7 5 13 52 41 78 92 62 50 92 100 100 100 100 41 100
61 100 100 100 100 82 100 100 28 2 1 12 0 4 9 5 0 0 36 4 3 0 0 0 0 0 0 5 5 61 90 5 5 5 60 23 11 94 5 86 6 6 100 100 97 100 100 91 62
17 100 100 100 100 100 32 100 100 55 12 7 0 4 13 8 0 0 13 0 0 0 3 0 13 0 35 5 5 8 52 5 5 5 75 95 5 6 30 17 5 87 67 100 100 100 100 100 100
87 100 100 100 100 74 65 81 100 97 45 47 0 0 3 0 0 0 1 3 33 0 0 1 4 4 80 38 5 6 5 19 5 8 99 99 7 54 34 61 34 18 17 100 100 99 100 100 100
100 100 100 100 100 100 84 100 100 94 83 0 0 0 28 0 0 32 2 0 15 3 0 0 1 5 3 99 16 54 29 27 98 50 86 35 5 92 5 5 5 14 5 11 100 92 100 100 100
100 100 99 91 100 100 100 99 100 34 95 0 80 0 84 6 13 68 0 0 10 6 1 0 0 5 3 19 4 2 5 10 92 85 100 100 100 91 5 5 5 1 5 5 6 24 28 60 67
100 100 100 100 99 100 100 91 100 100 88 2 30 0 19 0 5 0 0 8 0 50 21 0 0 0 5 18 3 5 87 99 98 100 100 100 100 100 16 5 5 0 3 5 5 18 5 5 5
100 100 100 98 100 100 100 99 100 100 100 100 13 0 40 43 0 41 37 1 0 76 1 5 0 1 2 24 5 77 84 67 96 100 100 100 100 100 5 5 4 1 5 5 15 5 22 6 51
99 100 100 100 100 100 100 99 100 71 100 69 0 9 85 95 71 81 0 3 0 0 0 77 44 0 6 53 4 6 100 100 100 100 100 100 100 87 0 0 1 5 5 76 85 57 91 36 74
65 100 100 74 68 100 100 100 100 99 100 49 19 15 100 4 2 0 83 58 0 0 7 18 7 14 12 49 20 64 96 100 100 100 100 100 86 0 8 6 32 81 75 36 98 70 100 6 11
15 100 100 97 100 96 100 100 96 100 100 100 0 19 2 0 79 4 8 3 0 0 0 27 28 6 100 82 2 34 100 100 100 97 98 72 11 2 100 100 100 98 100 48 100 8 5 5 1
36 100 100 100 100 100 100 100 100 53 100 100 43 96 5 4 100 84 7 7 0 0 0 25 68 13 17 27 0 6 42 39 89 49 3 0 0 7 14 100 100 90 68 94 17 33 36 3 0
4 60 100 100 91 100 100 100 100 99 100 41 0 26 1 88 100 33 0 0 0 0 20 0 55 48 11 41 9 9 28 12 26 0 0 57 1 84 22 49 14 4 43 89 34 74 4 0 0
22 60 100 100 96 100 100 100 100 100 98 65 12 76 77 100 100 56 0 0 40 0 3 13 5 0 16 3 0 0 7 55 37 6 0 0 0 5 2 30 12 25 63 0 96 16 0 0 0
90 77 94 100 100 100 100 90 100 77 100 99 5 22 100 93 93 8 0 1 0 14 6 5 5 2 2 0 49 1 80 7 84 29 0 0 9 5 2 3 2 0 0 0 4 57 6 6 28
100 44 100 100 100 100 100 100 100 100 100 65 5 62 91 73 73 4 26 0 0 0 45 67 0 5 45 51 18 12 2 13 78 93 11 2 21 94 88 76 86 5 2 0 2 58 42 8 77
100 100 100 100 100 100 100 100 100 100 100 92 100 99 20 5 58 26 4 0 0 5 0 5 4 4 0 0 0 76 0 1 40 12 57 5 13 14 5 100 20 2 5 0 0 23 79 5 46
100 99 21 100 100 100 100 100 100 100 100 100 100 72 5 8 93 3 5 0 33 0 82 62 57 5 4 20 1 0 4 0 36 12 0 16 6 83 56 100 85 0 2 7 4 4 38 9 100
100 50 84 100 100 100 100 100 100 100 100 96 100 100 15 8 17 6 5 24 0 0 7 3 45 5 5 5 4 1 3 2 0 21 5 6 27 98 100 20 4 3 6 100 100 71 98 100 100
100 79 100 97 100 100 100 100 100 100 100 100 100 100 58 39 5 5 3 19 0 0 0 5 5 5 74 4 79 19 34 4 5 41 43 5 5 8 5 8 4 5 22 100 100 95 88 54 90
78 100 100 100 100 100 100 100 100 100 100 100 100 100 83 14 31 92 0 2 4 0 0 2 25 35 6 93 100 24 20 96 5 6 12 5 5 9 10 1 5 5 6 46 98 97 100 100 99
34 99 100 100 100 100 100 98 100 100 100 100 100 90 100 100 64 20 74 34 5 6 0 0 12 5 26 100 100 100 99 95 52 86 53 72 52 8 4 5 5 5 7 6 5 25 100 100 100
88 86 98 100 100 100 100 100 100 100 100 95 99 100 100 98 98 93 100 4 43 52 21 0 0 5 3 2 20 88 100 73 100 98 100 100 100 96 34 5 7 64 82 1 0 5 5 22 26
7 90 96 100 100 100 100 100 100 100 100 100 100 100 100 100 100 73 100 51 95 91 84 0 0 1 42 5 5 5 6 47 100 100 100 100 100 100 70 29 5 5 9 5 2 0 1 8 12
40 50 65 63 100 100 100 100 100 100 99 100 100 100 98 71 100 100 20 74 40 91 100 9 0 5 0 0 0 3 0 9 32 98 100 100 100 95 100 90 13 74 31 5 45 5 5 0 0
8 72 94 65 100 100 100 100 100 100 100 100 98 98 95 99 85 94 32 40 5 69 71 100 26 0 5 0 0 0 0 0 1 22 82 62 94 100 98 100 100 52 32 99 19 5 4 0 5
5 0 5 60 100 100 100 100 100 100 100 100 98 90 100 100 94 99 44 98 22 89 100 76 86 3 3 70 1 0 0 0 0 0 4 5 34 64 84 100 96 84 52 14 83 6 23 78 6
5 0 0 0 97 100 100 100 100 100 100 100 100 99 100 100 93 90 100 67 5 100 99 99 100 100 10 76 100 2 0 0 0 0 0 0 4 5 6 8 5 9 58 33 5 19 98 100 100

GFSSGP_prec_cloud_120.txt.gz
Cloud_Cover
77 100 99 100 88 100 100 100 5 63 4 42 30 26 22 2 2 3 0 0 0 0 0 0 8 41 4 86 100 100 100 100 100 100 100 100 91 100 58 38 75 87 100 100 100 94 100 76 87
98 100 100 100 100 96 100 81 5 50 6 52 4 20 4 5 0 17 9 4 0 0 0 0 1 4 5 5 26 94 58 80 100 100 100 100 100 100 100 100 100 100 100 100 100 87 100 96 100
100 100 100 100 100 98 98 74 8 18 4 29 39 1 0 29 0 2 0 5 0 0 0 0 0 5 79 100 100 94 71 2 5 61 88 100 100 75 92 99 100 65 100 100 100 100 100 100 100
100 100 100 100 100 100 71 26 9 13 12 6 4 0 0 0 1 0 4 5 0 0 0 0 0 3 47 84 26 34 5 5 5 3 4 5 47 5 86 7 56 39 38 100 100 100 100 100 100
100 100 100 100 100 100 100 23 100 63 76 0 0 0 0 0 0 0 4 6 0 0 0 0 4 74 5 25 5 96 97 82 10 6 5 10 5 5 5 12 5 5 100 100 100 100 100 100 100
100 100 100 100 96 99 100 28 100 87 95 0 0 0 0 0 0 0 0 0 5 5 0 15 6 87 97 43 5 32 7 5 29 13 5 9 5 72 80 65 5 5 69 100 100 100 100 100 100
100 100 100 100 100 100 100 81 100 100 60 0 0 0 1 0 0 0 0 1 43 44 0 2 5 3 42 5 27 5 5 6 6 76 43 74 96 46 50 5 5 5 18 28 98 100 100 100 100
100 100 100 100 100 100 100 100 100 100 4 0 1 0 1 0 0 1 0 0 3 97 0 5 3 0 5 5 4 3 26 100 90 77 100 100 10 38 100 8 5 5 5 5 69 93 100 100 100
100 82 100 100 100 100 95 96 100 100 100 32 5 0 0 5 0 0 4 0 5 11 0 0 3 3 5 8 47 72 100 87 100 100 100 100 100 100 100 2 1 3 5 5 5 5 5 37 56
100 98 97 100 100 100 100 100 100 80 95 22 21 3 0 0 14 22 0 2 16 0 3 0 0 0 5 15 91 63 84 91 64 57 49 45 94 100 7 0 0 5 5 10 8 5 9 90 93
97 100 100 100 100 100 100 100 24 97 100 100 2 0 0 0 5 0 0 0 0 0 0 0 0 4 3 56 98 92 100 29 48 9 88 98 89 31 0 2 2 3 7 48 20 11 25 78 95
58 100 100 100 100 100 100 100 97 100 100 67 4 0 82 0 20 13 19 0 0 0 0 0 0 1 55 86 91 100 57 35 50 98 52 83 5 0 2 24 26 5 5 17 5 6 97 84 74
8 98 100 100 85 100 99 100 100 100 100 99 9 2 0 0 5 8 90 0 0 0 0 0 2 1 0 4 24 89 15 85 98 100 34 60 87 33 48 30 37 42 95 4 6 50 4 1 4
8 38 87 100 100 80 100 100 100 100 100 100 90 47 0 5 20 38 0 35 5 3 0 0 0 94 0 1 7 96 51 48 85 2 2 9 7 75 84 90 98 56 96 94 36 0 0 0 4
0 4 87 100 93 82 100 100 100 100 100 100 90 13 4 20 24 94 14 0 5 5 4 0 87 7 7 0 0 0 5 7 0 0 0 0 42 85 53 5 0 3 0 0 33 86 5 5 5
4 8 37 99 100 100 100 100 100 100 100 88 64 93 1 100 55 55 20 0 4 3 1 0 60 0 2 0 0 2 0 0 0 5 11 1 0 25 2 0 0 0 17 0 0 5 5 4 2
60 100 89 94 100 98 100 100 100 100 99 29 27 75 2 99 91 9 5 3 5 5 0 0 0 0 4 0 3 8 4 20 5 3 20 5 7 10 0 0 0 0 1 61 0 1 5 2 0
19 100 83 100 100 100 100 100 100 67 100 100 100 90 43 24 91 5 3 5 5 5 2 0 1 72 0 21 1 0 0 100 4 53 40 66 27 10 2 1 0 0 0 13 5 23 84 0 0
91 100 100 100 100 100 100 100 100 83 99 94 100 96 100 97 11 47 5 7 5 24 5 1 0 5 0 0 7 5 0 2 100 23 92 69 96 32 100 4 4 3 0 2 4 79 100 34 0
76 94 100 96 100 100 100 100 100 94 79 77 100 58 88 39 14 0 2 0 1 68 5 2 0 17 28 1 1 5 2 5 5 83 85 65 1 3 12 5 4 1 0 5 9 10 100 81 0
4 96 100 100 100 100 100 100 100 100 100 89 98 100 100 47 2 21 4 0 0 1 4 5 0 2 33 17 0 1 2 5 1 4 0 5 4 34 29 0 5 5 5 25 53 12 38 100 100
6 99 100 100 100 100 100 100 100 100 100 100 100 100 100 39 5 1 3 0 40 0 5 5 4 0 5 23 6 6 5 6 86 13 5 2 0 4 0 0 0 0 5 59 10 2 3 81 40
13 99 100 100 100 100 100 100 100 100 100 100 100 100 93 59 11 12 1 2 0 0 0 5 5 5 3 5 4 1 5 7 18 5 100 6 5 5 5 3 0 0 5 6 26 52 34 61 60
79 100 100 100 87 100 100 96 100 100 100 100 100 100 100 98 93 8 72 0 0 3 0 0 3 1 44 19 5 7 5 6 30 13 5 65 27 5 5 2 1 0 0 0 5 5 23 66 19
7 89 100 100 100 100 100 100 100 100 100 100 100 93 100 100 79 27 8 2 5 5 4 0 0 4 1 5 7 75 80 34 5 81 67 5 18 95 81 18 5 4 1 0 0 2 93 5 25
1 53 100 100 100 100 100 100 100 100 100 100 100 100 100 100 27 96 17 0 0 3 5 5 3 5 2 1 12 5 6 97 31 33 80 100 99 83 82 98 70 82 30 5 4 5 5 0 0
0 88 46 77 98 100 77 98 98 100 100 100 100 100 100 100 92 17 92 2 0 94 10 18 4 4 4 0 4 7 16 12 6 27 51 100 98 98 100 100 100 100 97 86 6 24 9 2 3
0 47 7 100 99 100 99 100 100 100 100 100 82 100 100 100 98 96 94 3 8 60 41 22 99 6 5 3 3 5 5 1 3 3 44 35 73 100 99 91 100 100 100 88 41 52 4 5 4
3 11 57 22 74 100 100 100 100 81 100 100 100 100 85 100 98 85 90 3 41 97 25 100 100 98 40 97 85 18 2 0 3 3 5 5 6 51 100 91 49 100 99 100 68 9 66 100 91
7 75 99 5 4 22 100 100 100 97 81 100 99 100 100 100 100 98 99 86 52 98 36 42 100 99 100 100 98 68 54 3 0 0 2 0 4 5 5 85 98 73 90 100 85 100 100 96 99

GFSSGP_prec_cloud_123.txt.gz
Cloud_Cover
31 67 93 88 100 100 33 85 10 1 8 5 5 5 6 0 5 1 3 0 0 0 0 0 75 5 5 95 88 100 100 100 100 100 95 100 100 99 100 99 82 89 85 81 100 100 99 100 96
78 100 100 58 93 100 19 84 100 8 10 2 5 5 5 2 10 2 12 5 0 5 0 0 1 0 4 5 81 100 100 100 100 100 100 100 100 100 100 100 100 91 97 100 100 99 100 100 100
100 100 100 100 89 100 59 60 100 5 2 3 3 1 1 37 16 0 13 5 0 2 0 0 1 1 5 2 35 46 5 5 51 97 100 100 100 100 100 100 100 100 100 100 92 99 64 58 100
100 100 100 100 100 100 100 81 100 0 0 4 4 0 0 0 0 1 7 81 57 6 0 2 8 41 5 89 97 10 6 5 5 9 100 94 100 99 100 100 100 100 100 100 76 100 100 100 100
100 100 97 80 98 100 99 99 100 23 4 5 5 7 8 0 0 0 2 36 27 2 3 4 21 83 100 89 23 8 42 5 10 100 68 67 26 33 32 50 75 97 76 82 100 98 100 100 100
100 100 100 100 100 100 98 48 100 60 11 2 4 5 29 0 0 0 0 0 24 23 5 18 100 89 100 91 11 14 56 96 100 5 5 5 5 5 50 28 6 95 100 67 100 100 99 100 100
100 100 82 100 100 100 78 99 100 94 32 5 3 27 48 0 1 0 0 0 33 17 5 5 76 74 40 19 84 5 72 100 100 41 14 5 98 23 9 5 5 26 30 47 100 100 100 100 100
100 100 100 100 100 100 99 75 100 6 94 5 0 18 94 1 0 0 0 4 8 10 4 0 0 11 33 5 6 6 84 99 74 100 100 100 99 87 5 5 11 5 5 38 97 100 100 100 100
100 100 100 100 100 100 100 99 32 69 99 6 0 0 0 4 0 0 13 48 32 31 0 4 4 5 38 99 98 100 96 100 100 97 100 99 44 86 96 2 4 5 5 5 16 61 98 97 98
64 100 100 100 100 100 100 100 45 48 88 5 0 0 1 2 0 0 18 61 64 37 8 4 5 5 61 87 100 100 100 100 100 90 54 58 96 100 47 1 5 45 5 4 5 6 28 53 31
67 100 100 100 100 100 100 98 19 35 92 62 5 0 1 4 2 2 3 5 5 1 3 0 2 4 91 50 98 100 32 100 54 87 100 100 100 60 8 58 51 38 94 12 5 5 11 46 5
5 88 100 94 100 92 99 100 96 92 100 91 4 2 4 0 4 14 3 3 0 0 0 0 4 5 63 31 99 70 46 28 95 5 5 4 2 5 9 15 27 21 94 53 95 97 98 99 85
5 6 100 100 76 99 100 100 100 94 100 26 6 3 4 11 0 97 24 11 0 0 0 0 0 0 42 98 80 96 25 100 40 5 5 4 2 17 60 69 76 21 5 15 5 60 6 84 96
62 5 77 100 54 100 100 98 100 100 100 99 40 12 5 4 5 5 33 13 2 0 0 0 7 0 2 100 40 45 51 9 5 3 5 23 28 41 82 8 5 11 5 22 1 5 16 5 5
0 0 1 75 100 99 100 100 100 100 100 100 100 97 20 11 32 44 12 4 0 0 0 0 3 0 0 1 5 5 5 5 0 0 5 93 45 15 4 8 5 0 0 4 0 0 0 5 2
0 0 9 71 100 100 100 100 100 100 99 100 96 64 54 76 24 22 72 5 1 0 0 0 0 0 0 2 4 4 4 3 0 0 1 3 69 7 3 0 0 0 3 39 4 0 0 3 4
0 0 77 92 100 100 100 100 100 100 100 100 35 92 65 100 89 37 52 5 16 0 0 1 0 0 0 0 1 1 5 12 5 4 3 3 4 1 0 0 1 2 4 54 0 0 0 0 0
5 4 100 98 100 100 100 100 100 100 100 100 46 99 36 38 7 83 3 5 86 10 2 36 2 5 1 1 1 5 8 14 50 5 95 5 5 5 0 0 1 5 20 24 1 0 0 0 0
0 7 66 85 100 100 100 100 100 100 100 100 92 88 59 27 10 100 4 23 5 6 1 14 17 5 5 3 2 4 4 5 16 5 56 17 60 5 5 4 5 5 40 65 45 0 5 0 0
5 50 73 100 60 100 100 100 100 100 100 100 99 24 36 97 5 5 4 5 5 4 5 5 8 89 5 6 4 0 1 23 100 19 3 5 42 62 5 5 5 5 5 58 14 10 2 1 0
52 12 81 100 100 100 100 100 100 100 100 100 86 44 91 16 5 0 0 1 7 2 4 23 5 72 5 5 5 5 12 10 0 2 0 10 14 5 56 6 5 5 5 4 81 92 97 45 41
98 6 99 100 100 100 100 100 100 100 99 97 97 30 90 74 24 2 0 0 5 5 3 5 26 84 5 16 16 5 5 0 4 0 0 0 2 3 1 4 1 5 5 5 5 5 5 15 11
42 63 5 66 100 100 100 100 96 100 100 99 54 11 89 7 34 0 4 5 0 19 3 2 87 40 93 100 63 56 5 3 5 5 11 98 10 1 0 4 0 0 0 4 5 42 34 5 5
100 9 7 100 100 100 100 100 100 77 98 100 98 46 22 68 25 0 97 17 0 15 7 2 5 100 71 11 68 100 75 15 5 5 5 86 36 5 5 2 0 0 0 0 0 2 3 5 11
7 21 49 100 100 100 100 100 100 96 94 78 100 77 82 87 86 10 59 1 0 0 0 0 1 48 97 89 92 84 86 100 82 83 86 8 71 14 5 4 3 0 0 0 4 2 5 5 2
4 36 98 100 100 100 100 100 100 99 100 98 100 100 100 66 97 78 4 0 0 0 0 3 0 3 3 44 96 23 85 50 100 87 100 86 9 71 7 4 3 5 4 0 0 0 0 0 0
0 72 85 98 100 100 100 100 99 100 100 100 100 100 100 84 100 100 7 3 0 0 0 0 2 0 0 0 5 5 4 28 76 48 98 99 49 59 5 48 7 5 5 5 5 2 0 0 0
0 64 100 100 100 64 100 100 100 100 100 100 100 96 97 100 100 100 94 16 4 4 0 4 3 2 1 1 1 5 5 4 2 3 5 6 100 95 56 24 64 51 23 5 5 5 10 3 0
0 20 95 83 100 92 100 100 100 100 100 100 100 100 96 95 100 100 100 40 13 6 17 5 70 99 54 5 5 5 21 2 0 0 1 3 5 35 33 100 97 26 13 91 100 95 59 80 5
10 6 2 5 13 100 100 100 100 93 99 100 100 77 100 100 100 100 100 75 98 13 10 31 20 14 39 81 98 100 100 65 5 3 4 5 6 5 5 15 45 94 53 93 100 100 100 100 100

GFSSGP_prec_cloud_126.txt.gz
Cloud_Cover
12 89 100 94 53 100 100 94 0 1 5 5 5 4 2 0 2 4 2 0 0 4 3 4 100 100 100 100 94 62 50 100 48 90 23 93 100 100 100 100 100 100 100 82 60 97 100 100 99
76 100 100 100 8 100 100 95 5 0 5 5 5 5 3 20 3 13 22 12 0 0 0 2 100 100 12 100 100 24 87 45 100 93 79 83 100 100 100 99 100 97 91 100 100 100 80 88 99
100 100 99 100 33 68 100 100 32 5 5 5 5 1 0 56 7 0 31 17 23 0 0 0 45 100 71 11 18 100 100 100 95 99 100 96 96 100 100 100 100 100 99 100 100 100 100 100 100
99 99 95 47 96 57 100 100 100 45 5 2 4 0 0 0 0 1 5 4 100 8 0 5 5 19 44 22 100 100 43 50 99 14 100 100 100 100 100 98 100 100 100 100 100 100 100 100 100
96 100 92 78 99 51 91 86 99 53 10 1 4 1 7 0 0 0 4 7 100 75 53 34 100 100 19 20 85 91 99 100 92 68 49 14 94 97 96 100 74 5 97 90 100 100 100 100 100
99 100 100 100 92 100 97 91 97 100 7 5 0 6 33 0 0 14 4 18 56 67 94 100 87 100 49 5 47 31 75 100 99 100 100 23 53 100 40 74 22 5 23 32 22 94 100 100 100
100 92 77 100 100 96 89 99 87 98 18 45 2 14 75 30 15 4 3 18 0 17 28 50 54 100 10 14 5 7 98 99 84 22 5 27 5 5 3 5 5 5 6 100 100 87 45 99 100
100 86 89 84 100 100 89 100 100 79 6 99 5 32 78 1 2 0 2 11 0 2 0 5 23 14 6 36 11 100 96 99 87 90 100 9 10 80 86 14 12 42 72 99 100 100 99 100 100
100 100 100 100 100 100 79 36 75 34 3 79 5 5 4 4 0 19 47 46 47 22 5 5 10 17 29 100 100 100 100 100 65 99 100 97 84 61 85 5 5 6 5 37 91 100 100 100 100
88 100 100 100 100 100 93 8 68 30 5 11 5 5 5 5 5 15 52 100 100 80 24 33 82 81 98 100 100 100 100 98 99 61 37 97 33 95 39 24 5 5 6 68 69 96 86 60 36
14 65 100 100 78 93 100 98 39 66 8 42 19 30 5 0 4 5 11 33 69 49 24 26 5 92 99 100 96 41 98 52 46 29 29 92 98 6 4 13 76 9 5 15 23 69 76 14 42
5 5 44 100 95 94 100 83 73 89 100 91 29 6 5 0 5 3 5 0 3 18 30 11 5 30 89 100 100 87 100 62 5 5 3 2 1 4 5 5 5 71 15 42 9 6 86 99 16
3 1 9 64 100 100 100 100 100 84 96 99 100 66 7 5 0 0 6 0 0 6 0 0 4 5 31 27 88 61 84 20 5 4 0 3 4 5 5 4 15 59 41 50 14 44 56 93 54
0 0 0 16 100 96 100 100 100 100 100 100 82 99 82 45 5 0 4 3 0 0 0 0 0 5 6 12 12 5 13 3 4 5 5 3 5 5 5 51 30 48 5 1 0 23 5 0 0
2 0 3 30 100 98 96 100 100 100 99 99 100 100 98 40 5 3 0 0 0 0 0 0 0 2 5 5 5 4 4 5 5 5 22 5 5 5 5 12 15 3 4 0 5 4 0 0 0
1 0 9 73 77 99 85 100 100 100 100 96 100 100 96 5 7 33 12 1 0 0 0 0 0 0 5 4 5 5 5 2 1 4 2 5 5 1 2 0 5 0 10 0 0 0 0 0 0
0 0 17 93 88 100 100 100 100 100 100 83 94 100 96 5 5 59 52 43 6 3 0 0 0 0 0 0 0 2 2 0 0 0 0 0 5 24 0 4 1 0 0 0 0 0 0 0 0
2 0 0 49 72 98 100 100 100 100 99 100 83 97 69 8 5 13 83 6 9 9 4 2 1 0 0 0 4 5 5 5 0 0 1 4 0 0 0 5 0 0 0 0 0 0 0 1 5
0 5 9 82 44 86 100 100 100 100 92 87 100 84 15 5 5 6 57 18 5 5 5 5 2 0 0 0 0 1 0 0 0 5 0 5 4 0 0 5 5 4 0 0 0 0 2 1 0
4 5 25 46 45 34 98 100 100 100 97 62 36 25 5 60 5 58 7 6 3 5 4 1 2 1 1 0 0 0 0 0 0 1 5 5 3 0 0 5 5 2 0 0 0 0 0 0 4
3 5 35 49 85 82 99 100 88 98 100 100 62 96 19 5 10 4 5 6 5 4 23 0 0 5 6 4 0 0 0 0 40 0 0 0 1 0 0 0 0 3 0 4 1 0 0 0 2
5 33 56 5 78 86 95 100 100 68 100 100 98 64 14 1 18 2 5 0 5 5 50 5 0 5 8 5 5 5 5 3 5 0 0 0 0 0 0 0 0 0 5 0 2 1 3 0 0
6 94 45 5 100 98 100 100 100 97 100 100 100 88 4 5 3 8 3 74 5 5 2 4 8 5 5 5 5 24 6 5 5 4 5 0 0 0 0 0 0 0 0 0 0 0 0 0 0
53 85 16 3 100 100 91 100 100 100 99 74 87 48 45 2 0 4 69 99 3 0 4 5 98 5 4 37 62 11 5 6 5 7 2 0 0 0 0 0 0 0 0 0 4 0 3 2 4
5 39 52 5 95 88 89 100 100 100 66 98 100 100 55 28 5 0 2 47 0 0 0 0 5 15 9 5 6 6 33 53 85 90 100 8 0 0 0 0 0 0 0 0 0 3 2 1 0
74 65 7 67 96 94 82 100 100 87 85 47 100 100 100 5 4 0 4 0 0 0 0 0 0 5 12 31 26 5 5 5 74 98 94 95 9 4 3 0 2 4 5 5 4 0 2 4 0
63 86 8 61 100 100 68 100 100 99 67 64 100 100 100 22 88 29 5 0 4 0 0 0 0 5 0 0 4 3 2 5 5 59 5 62 83 85 6 5 2 3 5 5 1 1 0 0 0
100 85 55 46 100 100 85 100 100 100 64 49 100 100 99 100 96 90 16 19 5 5 2 6 5 5 8 3 0 0 3 0 2 4 5 5 5 18 9 5 5 3 5 5 0 0 0 0 0
96 85 38 16 100 100 95 100 100 100 97 84 100 100 99 82 100 100 93 51 3 5 5 5 24 34 12 63 9 8 5 1 2 0 3 3 5 5 25 56 53 5 43 5 2 4 10 10 10
54 3 2 10 100 100 100 100 100 100 100 98 100 100 100 50 100 100 100 100 74 2 1 5 5 0 5 5 86 87 100 21 2 5 1 8 43 8 5 14 100 95 100 26 5 4 6 13 100